[[{"header":{"parameterUnit":"m.s-1","parameterCategory":1,"la1":30.6,"la2":29.2853,"lo1":-89.7004,"lo2":-87.6739,"dx":0.0162,"dy":0.0183,"nx":112,"ny":82,"refTime":"2022-11-05T18:00:00:Z","depth":0,"parameterNumber":2,"parameterNumberName":"U-component_of_WINDS"},"data":[0.0,0.0,0.0,0.0,0.0,0.0,0.0,0.0,0.0,0.0,0.0,0.0,0.0,0.0,0.0,0.0,0.0,0.0,0.0,0.0,0.0,0.0,0.0,0.0,0.0,0.0,0.0,0.0,0.0,0.0,0.0,0.0,0.0,0.0,0.0,0.0,0.0,0.0,0.0,0.0,0.0,0.0,0.0,0.0,0.0,0.0,0.0,0.0,0.0,0.0,0.0,0.0,0.0,0.0,0.0,0.0,0.0,0.0,0.0,0.0,0.0,0.0,0.0,0.0,0.0,0.0,0.0,0.0,0.0,0.0,0.0,0.0,0.0,0.0,0.0,0.0,0.0,0.0,0.0,0.0,0.0,0.0,0.0,0.0,0.0,0.0,0.0,0.0,0.0,0.0,1.9105,1.9615,2.1251,2.1774,2.0452,2.1532,2.1419,1.934,0.0,0.0,0.0,0.0,0.0,0.0,0.0,0.0,0.0,0.0,0.0,0.0,0.0,0.0,0.0,0.0,0.0,0.0,0.0,0.0,0.0,0.0,0.0,0.0,0.0,0.0,0.0,0.0,0.0,0.0,0.0,0.0,0.0,0.0,0.0,0.0,0.0,0.0,0.0,0.0,0.0,0.0,0.0,0.0,0.0,0.0,0.0,0.0,0.0,0.0,0.0,0.0,0.0,0.0,0.0,0.0,0.0,0.0,0.0,0.0,0.0,0.0,0.0,0.0,0.0,0.0,0.0,0.0,0.0,0.0,0.0,0.0,0.0,0.0,0.0,0.0,0.0,0.0,0.0,0.0,0.0,0.0,0.0,0.0,0.0,0.0,0.0,0.0,0.0,0.0,0.0,0.0,0.0,0.0,0.0,0.0,0.0,0.0,0.0,0.0,0.0,0.0,0.0,0.0,1.9383,2.0708,2.111,2.1227,2.0975,2.1195,2.1122,2.0638,0.0,0.0,0.0,0.0,0.0,0.0,0.0,0.0,0.0,0.0,0.0,0.0,0.0,0.0,0.0,0.0,0.0,0.0,0.0,0.0,0.0,0.0,0.0,0.0,0.0,0.0,0.0,0.0,0.0,0.0,0.0,0.0,0.0,0.0,0.0,0.0,0.0,0.0,0.0,0.0,0.0,0.0,0.0,0.0,0.0,0.0,0.0,0.0,0.0,0.0,0.0,0.0,0.0,0.0,0.0,0.0,0.0,0.0,0.0,0.0,0.0,0.0,0.0,0.0,0.0,0.0,0.0,0.0,0.0,0.0,0.0,0.0,0.0,0.0,0.0,0.0,0.0,0.0,0.0,0.0,0.0,0.0,0.0,0.0,0.0,0.0,0.0,0.0,0.0,0.0,0.0,0.0,0.0,0.0,0.0,0.0,0.0,0.0,0.0,0.0,0.0,0.0,0.0,1.9439,2.0307,2.1456,2.159,2.1523,2.1395,2.1381,2.0987,2.0144,1.9395,0.0,0.0,0.0,0.0,0.0,0.0,0.0,0.0,0.0,0.0,0.0,0.0,0.0,0.0,0.0,0.0,0.0,0.0,0.0,0.0,0.0,0.0,0.0,0.0,0.0,0.0,0.0,0.0,0.0,0.0,0.0,0.0,0.0,0.0,0.0,0.0,0.0,0.0,0.0,0.0,0.0,0.0,0.0,0.0,0.0,0.0,0.0,0.0,0.0,0.0,0.0,0.0,0.0,0.0,0.0,0.0,0.0,0.0,0.0,0.0,0.0,0.0,0.0,0.0,0.0,0.0,0.0,0.0,0.0,0.0,0.0,0.0,0.0,0.0,0.0,0.0,0.0,0.0,0.0,0.0,0.0,0.0,0.0,0.0,0.0,0.0,0.0,0.0,0.0,0.0,0.0,0.0,0.0,0.0,0.0,0.0,0.0,0.0,0.0,0.0,0.0,0.0,2.0508,2.1122,2.1991,2.2084,2.2031,2.1903,2.1836,2.1167,1.9696,1.9535,0.0,0.0,0.0,0.0,0.0,0.0,0.0,0.0,0.0,0.0,0.0,0.0,0.0,0.0,0.0,0.0,0.0,0.0,0.0,0.0,0.0,0.0,0.0,0.0,0.0,0.0,0.0,0.0,0.0,0.0,0.0,0.0,0.0,0.0,0.0,0.0,0.0,0.0,0.0,0.0,0.0,0.0,0.0,0.0,0.0,0.0,0.0,0.0,0.0,0.0,0.0,0.0,0.0,0.0,0.0,0.0,0.0,0.0,0.0,0.0,0.0,0.0,0.0,0.0,0.0,0.0,0.0,0.0,0.0,0.0,0.0,0.0,0.0,0.0,0.0,0.0,0.0,0.0,0.0,0.0,0.0,0.0,0.0,0.0,0.0,0.0,0.0,0.0,0.0,0.0,0.0,0.0,0.0,0.0,0.0,0.0,0.0,0.0,0.0,0.0,0.0,0.0,2.0561,2.1416,2.2298,2.2358,2.2498,2.2786,2.2512,2.1691,2.0237,1.992,0.0,0.0,0.0,0.0,0.0,0.0,0.0,0.0,0.0,0.0,0.0,0.0,0.0,0.0,0.0,0.0,0.0,0.0,0.0,0.0,0.0,0.0,0.0,0.0,0.0,0.0,0.0,0.0,0.0,0.0,0.0,0.0,0.0,0.0,0.0,0.0,0.0,0.0,0.0,0.0,0.0,0.0,0.0,0.0,0.0,0.0,0.0,0.0,0.0,0.0,0.0,0.0,0.0,0.0,0.0,0.0,0.0,0.0,0.0,0.0,0.0,0.0,0.0,0.0,0.0,0.0,0.0,0.0,0.0,0.0,0.0,0.0,0.0,0.0,0.0,0.0,0.0,0.0,0.0,0.0,0.0,0.0,0.0,0.0,0.0,0.0,0.0,0.0,0.0,0.0,0.0,0.0,0.0,0.0,0.0,0.0,0.0,0.0,0.0,0.0,0.0,0.0,2.1229,2.2071,2.3153,2.296,2.2819,2.3126,2.2699,2.1871,2.0588,0.0,0.0,0.0,0.0,0.0,0.0,0.0,0.0,0.0,0.0,0.0,0.0,0.0,0.0,0.0,0.0,0.0,0.0,0.0,0.0,0.0,0.0,0.0,0.0,0.0,0.0,0.0,0.0,0.0,0.0,0.0,0.0,0.0,0.0,0.0,0.0,0.0,0.0,0.0,0.0,0.0,0.0,0.0,0.0,0.0,0.0,0.0,0.0,0.0,0.0,0.0,0.0,0.0,0.0,0.0,0.0,0.0,0.0,0.0,0.0,0.0,0.0,0.0,0.0,0.0,0.0,0.0,0.0,0.0,0.0,0.0,0.0,0.0,0.0,0.0,0.0,0.0,0.0,0.0,0.0,0.0,0.0,0.0,0.0,0.0,0.0,0.0,0.0,0.0,0.0,0.0,0.0,0.0,0.0,0.0,0.0,0.0,0.0,0.0,0.0,0.0,0.0,2.0975,2.1697,2.2552,2.3696,2.3348,2.3166,2.3532,2.314,2.2378,2.1296,0.0,0.0,0.0,0.0,0.0,0.0,0.0,0.0,0.0,0.0,0.0,0.0,0.0,0.0,0.0,0.0,0.0,0.0,0.0,0.0,0.0,0.0,0.0,0.0,0.0,0.0,0.0,0.0,0.0,0.0,0.0,0.0,0.0,0.0,0.0,0.0,0.0,0.0,0.0,0.0,0.0,0.0,0.0,0.0,0.0,0.0,0.0,0.0,0.0,0.0,0.0,0.0,0.0,0.0,0.0,0.0,0.0,0.0,0.0,0.0,0.0,0.0,0.0,0.0,0.0,0.0,0.0,0.0,0.0,0.0,0.0,0.0,0.0,0.0,0.0,0.0,0.0,0.0,0.0,0.0,0.0,0.0,0.0,0.0,0.0,0.0,0.0,0.0,0.0,0.0,0.0,0.0,0.0,0.0,0.0,0.0,0.0,0.0,0.0,0.0,0.0,0.0,2.1015,2.1897,2.2779,2.3723,2.3514,2.3532,2.4168,2.3977,2.338,0.0,0.0,0.0,0.0,0.0,0.0,0.0,0.0,0.0,0.0,0.0,0.0,0.0,0.0,0.0,0.0,0.0,0.0,0.0,0.0,0.0,0.0,0.0,0.0,0.0,0.0,0.0,0.0,0.0,0.0,0.0,0.0,0.0,0.0,0.0,0.0,0.0,0.0,0.0,0.0,0.0,0.0,0.0,0.0,0.0,0.0,0.0,0.0,0.0,0.0,0.0,0.0,0.0,0.0,0.0,0.0,0.0,0.0,0.0,0.0,0.0,0.0,0.0,0.0,0.0,0.0,0.0,0.0,0.0,0.0,0.0,0.0,0.0,0.0,0.0,0.0,0.0,0.0,0.0,0.0,0.0,0.0,0.0,0.0,0.0,0.0,0.0,0.0,0.0,0.0,0.0,0.0,0.0,0.0,0.0,0.0,0.0,0.0,0.0,0.0,0.0,0.0,0.0,2.1891,2.2819,2.375,2.4633,2.4098,2.3955,2.4756,2.4205,2.3567,2.3052,0.0,0.0,0.0,0.0,0.0,0.0,0.0,0.0,0.0,0.0,0.0,0.0,0.0,0.0,0.0,0.0,0.0,0.0,0.0,0.0,0.0,0.0,0.0,0.0,0.0,0.0,0.0,0.0,0.0,0.0,0.0,0.0,0.0,0.0,0.0,0.0,0.0,0.0,0.0,0.0,0.0,0.0,0.0,0.0,0.0,0.0,0.0,0.0,0.0,0.0,0.0,0.0,0.0,0.0,0.0,0.0,0.0,0.0,0.0,0.0,0.0,0.0,0.0,0.0,0.0,0.0,0.0,0.0,0.0,0.0,0.0,0.0,0.0,0.0,0.0,0.0,0.0,0.0,0.0,0.0,0.0,0.0,0.0,0.0,0.0,0.0,0.0,0.0,0.0,0.0,0.0,0.0,0.0,0.0,0.0,0.0,0.0,0.0,0.0,0.0,0.0,0.0,2.2325,2.3313,2.4235,2.5034,2.4646,2.4539,2.5074,2.4633,2.4062,2.3541,0.0,0.0,0.0,0.0,0.0,0.0,0.0,0.0,0.0,0.0,0.0,0.0,0.0,0.0,0.0,0.0,0.0,0.0,0.0,0.0,0.0,0.0,0.0,0.0,0.0,0.0,0.0,0.0,0.0,0.0,0.0,0.0,0.0,0.0,0.0,0.0,0.0,0.0,0.0,0.0,0.0,0.0,0.0,0.0,0.0,0.0,0.0,0.0,0.0,0.0,0.0,0.0,0.0,0.0,0.0,0.0,0.0,0.0,0.0,0.0,0.0,0.0,0.0,0.0,0.0,0.0,0.0,0.0,0.0,0.0,0.0,0.0,0.0,0.0,0.0,0.0,0.0,0.0,0.0,0.0,0.0,0.0,0.0,0.0,0.0,0.0,0.0,0.0,0.0,0.0,0.0,0.0,0.0,0.0,0.0,0.0,0.0,0.0,0.0,0.0,0.0,0.0,2.2432,2.3541,2.4516,2.5141,2.5181,2.5144,2.5235,2.5168,2.4743,2.3977,0.0,0.0,0.0,0.0,0.0,0.0,0.0,0.0,0.0,0.0,0.0,0.0,0.0,0.0,0.0,0.0,0.0,0.0,0.0,0.0,0.0,0.0,0.0,0.0,0.0,0.0,0.0,0.0,0.0,0.0,0.0,0.0,0.0,0.0,0.0,0.0,0.0,0.0,0.0,0.0,0.0,0.0,0.0,0.0,0.0,0.0,0.0,0.0,0.0,0.0,0.0,0.0,0.0,0.0,0.0,0.0,0.0,0.0,0.0,0.0,1.718,0.0,0.0,0.0,0.0,0.0,0.0,0.0,0.0,0.0,0.0,0.0,0.0,0.0,0.0,0.0,0.0,0.0,0.0,0.0,0.0,0.0,0.0,0.0,0.0,0.0,0.0,0.0,0.0,0.0,0.0,0.0,0.0,0.0,0.0,0.0,0.0,0.0,0.0,0.0,0.0,0.0,2.3086,2.4168,2.5155,2.5743,2.5558,2.5611,2.6066,2.5478,2.5034,2.4847,2.4071,0.0,0.0,0.0,0.0,0.0,0.0,0.0,0.0,0.0,0.0,0.0,0.0,0.0,0.0,0.0,0.0,0.0,0.0,0.0,0.0,0.0,0.0,0.0,0.0,0.0,0.0,0.0,0.0,0.0,0.0,0.0,0.0,0.0,0.0,0.0,0.0,0.0,0.0,0.0,0.0,0.0,0.0,0.0,0.0,0.0,0.0,0.0,0.0,0.0,0.0,0.0,0.0,0.0,0.0,0.0,0.0,0.0,0.0,0.0,0.0,1.7969,0.0,0.0,0.0,0.0,0.0,0.0,0.0,0.0,0.0,0.0,0.0,0.0,0.0,0.0,0.0,0.0,0.0,0.0,0.0,0.0,0.0,0.0,0.0,0.0,0.0,0.0,0.0,0.0,0.0,0.0,0.0,0.0,0.0,0.0,0.0,0.0,0.0,0.0,0.0,0.0,2.3514,2.4727,2.5703,2.6158,2.6319,2.6426,2.6587,2.6052,2.5585,2.5304,2.4596,0.0,0.0,0.0,0.0,0.0,0.0,0.0,0.0,0.0,0.0,0.0,0.0,0.0,0.0,0.0,0.0,0.0,0.0,0.0,0.0,0.0,0.0,0.0,0.0,0.0,0.0,0.0,0.0,0.0,0.0,0.0,0.0,0.0,0.0,0.0,0.0,0.0,0.0,0.0,0.0,0.0,0.0,0.0,0.0,0.0,0.0,0.0,0.0,0.0,0.0,0.0,0.0,0.0,2.0464,2.053,2.0584,2.0584,2.0877,2.1376,2.0588,2.0147,1.988,1.893,0.0,0.0,0.0,0.0,0.0,0.0,0.0,0.0,0.0,0.0,0.0,0.0,0.0,0.0,0.0,0.0,0.0,0.0,0.0,0.0,0.0,0.0,0.0,0.0,2.177,2.2091,0.0,0.0,0.0,0.0,0.0,0.0,0.0,0.0,0.0,0.0,0.0,0.0,2.4031,2.5222,2.6225,2.6573,2.7054,2.7268,2.7068,2.6734,2.6306,2.5772,2.5159,2.4609,0.0,0.0,0.0,0.0,0.0,0.0,0.0,0.0,0.0,0.0,0.0,0.0,0.0,0.0,0.0,0.0,0.0,0.0,0.0,0.0,0.0,0.0,0.0,0.0,0.0,0.0,0.0,0.0,0.0,0.0,0.0,0.0,1.5448,1.5568,0.0,0.0,0.0,0.0,0.0,0.0,0.0,0.0,0.0,0.0,0.0,0.0,0.0,1.9783,1.9693,2.0521,2.0962,2.1002,2.151,2.1884,2.2091,2.2091,2.2311,2.2639,2.2231,0.0,2.0592,2.0668,0.0,0.0,0.0,0.0,0.0,0.0,0.0,0.0,0.0,0.0,0.0,0.0,0.0,0.0,0.0,0.0,0.0,0.0,0.0,0.0,0.0,0.0,2.3185,2.3905,2.4132,2.4356,0.0,2.3287,2.177,2.1515,2.205,0.0,0.0,0.0,0.0,0.0,0.0,0.0,2.4941,2.5745,2.664,2.7442,2.7602,2.7736,2.7991,2.751,2.7014,2.6667,2.6106,2.5556,2.4967,2.4342,0.0,0.0,0.0,0.0,0.0,0.0,0.0,0.0,0.0,0.0,0.0,0.0,0.0,0.0,0.0,0.0,0.0,0.0,0.0,0.0,0.0,0.0,0.0,0.0,0.0,0.0,0.0,0.0,0.0,1.5524,1.638,1.6553,1.6859,1.7033,0.0,0.0,0.0,0.0,0.0,0.0,0.0,0.0,0.0,2.0147,2.049,2.0989,2.1555,2.1737,2.1984,2.2331,2.2619,2.2899,2.318,2.3354,2.3581,2.3848,2.3679,2.3287,2.2592,2.1756,2.1167,2.0806,0.0,0.0,0.0,0.0,2.0641,2.0873,2.1301,2.1523,2.171,2.2004,0.0,0.0,0.0,0.0,0.0,0.0,0.0,0.0,0.0,0.0,2.4409,2.4796,2.501,2.5197,2.5451,2.4836,2.4071,0.0,2.346,2.3728,2.4084,0.0,0.0,0.0,0.0,2.561,2.561,2.648,2.7335,2.7924,2.8257,2.8511,2.8644,2.8257,2.7883,2.763,2.7055,2.6466,2.5838,2.509,2.4516,0.0,0.0,0.0,0.0,0.0,0.0,0.0,0.0,0.0,0.0,0.0,0.0,0.0,0.0,0.0,0.0,0.0,0.0,0.0,0.0,0.0,0.0,0.0,0.0,0.0,0.0,0.0,0.0,1.6673,1.7408,1.7809,1.8117,1.829,0.0,0.0,0.0,0.0,0.0,0.0,2.0561,2.0677,2.0997,2.1537,2.1777,2.2285,2.3121,2.302,2.3185,2.3625,2.3625,2.3781,2.3995,2.4302,2.4543,2.4719,2.4786,2.4743,2.4422,2.2987,2.2238,2.2024,2.1844,2.1697,2.1577,2.1737,2.197,2.2211,2.2653,2.2913,2.3153,2.3447,2.3522,2.3469,2.3469,0.0,0.0,0.0,0.0,2.4285,2.4446,2.4983,2.5545,2.5625,2.5865,2.6092,2.6172,2.6399,2.6252,0.0,2.4863,2.4903,2.5382,0.0,0.0,0.0,0.0,2.6439,2.6439,2.7295,2.807,2.8486,2.8885,2.9108,2.9108,2.8951,2.8698,2.8433,2.7938,2.7348,2.6747,2.6026,2.5543,2.5197,0.0,0.0,0.0,0.0,0.0,0.0,0.0,0.0,0.0,0.0,0.0,0.0,0.0,0.0,0.0,0.0,0.0,0.0,0.0,0.0,0.0,0.0,0.0,0.0,0.0,0.0,0.0,0.0,0.0,1.9599,1.992,0.0,0.0,0.0,0.0,2.013,2.0468,2.0927,2.1489,2.2004,2.2458,2.28,2.3607,2.3941,2.3763,2.4262,2.4506,2.4532,2.4532,2.4546,2.4572,2.4903,2.5037,2.5077,2.5344,2.5464,2.5398,2.4706,2.3959,2.3225,2.3527,2.3322,2.288,2.3455,2.3683,2.3817,2.466,2.493,2.4997,2.5291,2.5197,2.5007,2.5007,2.477,0.0,0.0,2.5411,2.5558,2.6106,2.6493,2.68,2.7135,2.7375,2.7669,2.7991,2.8058,2.7643,0.0,2.6145,2.6293,2.6319,0.0,2.6627,2.6386,2.7068,2.7615,2.7615,2.8163,2.8778,2.9352,2.9446,2.9459,2.9459,2.9446,2.9312,2.8975,2.8711,2.827,2.7655,2.7362,2.6627,2.5518,2.5438,0.0,0.0,0.0,0.0,0.0,0.0,0.0,0.0,0.0,0.0,0.0,0.0,0.0,0.0,0.0,0.0,0.0,0.0,0.0,0.0,0.0,0.0,0.0,0.0,0.0,0.0,0.0,0.0,2.0024,2.0477,0.0,2.0949,2.1376,2.1611,2.1611,2.2285,2.288,2.3233,2.3447,2.3701,2.3995,2.4502,2.481,2.489,2.5291,2.5585,2.5758,2.5758,2.5865,2.6013,2.6159,2.6306,2.6533,2.664,2.6533,2.6333,2.6093,2.5493,2.4743,2.485,2.4756,2.4596,2.481,2.501,2.5262,2.5569,2.581,2.5932,2.6039,2.6132,2.6239,2.6466,2.6413,2.6413,2.68,2.6921,2.6961,2.7175,2.7602,2.8003,2.8096,2.835,2.8591,2.8698,2.8724,2.8564,2.8043,2.7562,2.7295,2.7523,2.7442,2.7482,2.7776,2.8083,2.8283,2.8283,2.8804,2.9245,2.9459,2.9646,2.9766,2.9766,2.9766,2.9633,2.9339,2.9232,2.8898,2.831,2.8031,2.759,2.6934,2.6547,2.6146,0.0,0.0,0.0,0.0,0.0,0.0,0.0,0.0,0.0,0.0,0.0,0.0,0.0,0.0,0.0,0.0,0.0,0.0,0.0,0.0,0.0,0.0,0.0,0.0,0.0,1.9663,2.0494,2.0757,2.1336,2.1737,2.1811,2.2565,2.302,2.302,2.3674,2.4235,2.4623,2.4649,2.4823,2.5211,2.5518,2.5758,2.5959,2.6346,2.664,2.6827,2.6934,2.7081,2.7268,2.7375,2.7535,2.7722,2.7829,2.7749,2.7534,2.7534,2.7187,2.6614,2.6146,2.5959,2.5972,2.6172,2.6373,2.66,2.6693,2.6854,2.7028,2.7028,2.7108,2.7308,2.755,2.7603,2.767,2.7923,2.8003,2.803,2.8123,2.8524,2.8898,2.8898,2.9125,2.9295,2.9295,2.9295,2.9295,2.9295,2.8655,2.8217,2.8417,2.8283,2.8283,2.8655,2.8845,2.8898,2.8898,2.9325,2.9633,2.9633,2.9806,2.9913,2.9913,3.0007,2.994,2.9646,2.9726,2.9513,2.8925,2.8804,2.8551,2.8163,2.7468,2.7068,2.6961,0.0,0.0,0.0,0.0,0.0,0.0,0.0,0.0,0.0,0.0,0.0,0.0,0.0,0.0,0.0,0.0,0.0,0.0,0.0,0.0,0.0,0.0,0.0,2.0317,2.0535,2.1087,2.1943,2.2572,2.302,2.3292,2.3888,2.4249,2.4249,2.4479,2.4906,2.5518,2.5558,2.5838,2.6413,2.672,2.6881,2.6881,2.7455,2.7736,2.7736,2.8072,2.8219,2.8219,2.8484,2.8617,2.8631,2.8868,2.9001,2.9001,2.9001,2.9001,2.8855,2.7414,2.6854,2.692,2.7535,2.7736,2.7789,2.8112,2.8219,2.8219,2.8219,2.8219,2.8232,2.8232,2.8232,2.8299,2.8564,2.8644,2.8711,2.8948,2.9285,2.9513,2.9513,2.9726,2.994,2.994,2.994,2.994,2.994,2.9442,2.9041,2.9041,2.9041,2.9041,2.9055,2.9339,0.0,2.9526,2.9766,2.994,2.994,2.994,2.994,2.994,3.0207,3.0247,2.9967,3.0221,3.0159,2.9553,2.9793,2.9628,2.9041,2.819,2.7602,2.7376,0.0,0.0,0.0,0.0,0.0,0.0,0.0,0.0,0.0,0.0,0.0,0.0,0.0,0.0,0.0,0.0,0.0,0.0,0.0,0.0,0.0,2.0927,2.1328,2.0922,2.1703,2.2385,2.2626,2.3375,2.3875,2.3955,2.4676,2.5157,2.5157,2.5625,2.6066,2.64,2.6667,2.6947,2.7321,2.7843,2.811,2.811,2.8441,2.8628,2.8628,2.8751,2.8791,2.8791,2.8841,2.8881,2.8881,2.8961,2.9001,2.9001,2.9001,2.9001,2.8961,2.8548,2.8388,2.8414,2.8575,2.8628,2.8641,2.8764,2.8791,2.8791,2.8791,2.8938,2.9155,2.9155,2.9259,2.9446,2.9526,2.9553,2.9579,2.9615,2.99,3.0159,3.0159,3.0341,3.0555,3.0555,3.0555,3.0555,3.0555,3.0421,3.0247,3.0034,2.9993,3.0074,3.0274,3.0381,0.0,3.0434,3.0501,3.0555,3.0555,3.0555,3.0555,3.0555,3.0621,3.0635,3.0555,3.0635,3.0595,3.0434,3.0515,3.0274,2.9642,2.8975,2.8738,0.0,0.0,0.0,0.0,0.0,0.0,0.0,0.0,0.0,0.0,0.0,0.0,0.0,0.0,0.0,0.0,0.0,0.0,0.0,0.0,0.0,0.0,2.1911,2.2325,2.2392,2.292,2.3322,2.3442,2.4209,2.4756,2.4756,2.5545,2.6027,2.6027,2.66,2.7068,2.7362,2.7669,2.7963,2.8243,2.8561,2.8791,2.8791,2.9085,2.9219,2.9232,2.9308,2.9362,2.9362,2.9362,2.9362,2.9362,2.9362,2.9362,2.9362,2.9362,2.9362,0.0,0.0,0.0,0.0,0.0,2.9362,2.9362,2.9362,2.9362,2.9362,2.9362,2.9526,2.9686,2.9806,2.9967,3.0127,3.0247,3.0287,3.0287,3.0287,3.0408,3.0587,3.0587,3.0675,3.0795,3.0795,3.0795,3.0795,3.0795,3.0795,0.0,3.0728,3.0621,3.0595,3.0768,3.0795,3.0795,3.0795,3.0795,3.0795,3.0795,3.0795,3.0795,3.0795,3.0902,0.0,0.0,0.0,3.0969,3.0969,3.0969,0.0,0.0,0.0,0.0,0.0,0.0,0.0,0.0,2.7041,2.6894,0.0,0.0,0.0,0.0,0.0,0.0,0.0,0.0,0.0,0.0,0.0,0.0,0.0,0.0,0.0,0.0,2.3025,2.3639,2.4262,2.4182,2.4178,2.4329,2.5104,2.5625,2.5651,2.6453,2.6974,2.6974,2.7522,2.7963,2.8272,2.8537,0.0,0.0,0.0,2.9095,2.9095,2.9406,2.9539,2.9539,2.9793,2.9913,2.9913,2.9913,2.9913,2.9913,2.9913,2.994,2.9967,2.9967,2.998,2.998,2.9659,2.9539,2.9566,2.982,2.994,2.9967,2.9967,0.0,0.0,3.002,3.002,3.006,3.0327,3.0453,3.0507,3.0715,3.0795,3.0795,3.0795,3.0822,3.0849,3.0849,3.0862,3.0889,3.0889,3.0915,3.0942,3.0942,3.0969,3.1076,3.133,3.1076,3.0849,3.0889,3.0915,3.0942,3.0942,3.0969,3.0996,3.0996,0.0,0.0,3.0996,3.1223,3.1263,3.1009,3.1236,3.137,3.137,3.1343,3.1283,3.1283,3.1036,3.0768,3.0547,3.0247,3.0114,3.0087,2.8941,2.8406,0.0,0.0,0.0,0.0,0.0,0.0,0.0,0.0,0.0,0.0,0.0,0.0,0.0,0.0,0.0,2.3025,2.3812,2.4559,2.517,2.5625,2.5732,2.5304,2.5825,2.6306,2.6547,2.7375,2.7924,2.7924,2.8444,2.8761,2.8815,2.9152,2.9339,2.9392,2.9619,2.9753,2.9753,2.9806,2.9833,2.9833,0.0,0.0,2.9913,2.9913,2.9913,2.9913,2.9913,3.0047,3.0319,3.0319,3.0408,3.0568,3.0047,2.9833,2.9847,2.99,3.0074,3.0319,3.0319,3.0421,3.0621,3.0621,3.0621,3.0635,3.0688,3.0715,0.0,3.0782,3.0795,3.0795,3.0795,3.0969,3.1142,3.1142,3.133,3.155,3.155,3.169,3.1851,3.1851,3.2086,3.2273,3.2326,3.165,3.1223,3.151,3.1704,3.1851,3.1851,3.2064,3.226,3.226,3.226,3.226,3.226,3.23,3.2313,3.226,3.2313,3.234,3.234,3.2064,3.1931,3.1931,3.165,3.1524,3.1457,3.1356,3.133,3.1303,3.0127,2.97,0.0,0.0,0.0,0.0,0.0,0.0,0.0,0.0,0.0,0.0,0.0,2.1643,2.197,0.0,2.3425,2.3879,2.4559,2.5277,2.5865,2.6333,2.6493,2.6199,2.668,2.7161,2.7455,2.8072,2.8473,2.8577,2.9005,2.8719,2.746,2.7667,2.7267,2.6042,2.7312,2.8076,2.8076,2.8076,2.8076,2.8031,2.6905,2.7023,2.8277,2.8369,2.913,3.0354,3.0354,3.0434,3.0627,3.0627,3.0662,3.0768,3.0474,3.0354,3.0354,3.0354,3.0448,3.0627,3.0627,3.0675,3.0795,3.0795,3.0795,3.0822,3.0969,3.1009,3.1036,3.1196,3.1236,3.1236,3.1236,3.145,3.1664,3.1664,3.1891,3.2152,3.2152,3.2273,3.2367,3.2367,3.25,3.2594,3.2594,3.2233,3.1944,3.2139,3.2273,3.2367,3.2367,3.25,3.2594,3.2594,3.2594,3.2594,3.2594,3.2594,3.2594,3.2594,3.2594,3.2594,3.2594,3.2447,3.2367,3.2367,3.2233,3.2152,3.2152,3.2152,3.2152,3.2139,3.155,3.1203,0.0,0.0,0.0,0.0,0.0,0.0,0.0,2.0464,2.0797,2.1384,2.2191,2.2832,2.3108,2.3808,2.4489,2.4836,2.5331,2.5905,2.6547,2.6477,2.6553,2.708,2.7535,2.7923,2.8326,2.8591,2.8655,2.8387,2.8673,2.7794,2.5284,2.5388,2.458,2.2556,2.4899,2.5957,2.5491,2.6004,2.6027,2.5525,2.3721,2.3929,2.5994,2.6608,2.803,3.003,3.0095,3.0121,3.0121,3.0173,3.0538,3.0969,3.0969,3.0969,3.0955,3.0835,3.0822,3.0875,3.0875,3.0915,3.0969,3.0969,3.0969,3.1022,3.1303,3.1349,3.145,3.1805,3.1885,3.1885,3.1885,3.2059,3.2185,3.2185,3.242,3.2594,3.2594,3.2634,3.2674,3.2674,3.2728,3.2768,3.2768,3.2768,3.2728,3.2607,3.2648,3.2674,3.2674,3.2728,3.2768,3.2768,3.2768,3.2768,3.2768,3.2768,3.2768,3.2768,3.2768,3.2768,3.2768,3.2768,3.2768,3.2768,3.2768,3.2768,3.2768,3.2768,3.2768,3.2768,3.2768,3.2447,1.9746,2.011,2.0686,2.1208,2.1141,2.1122,0.0,2.2118,2.2352,2.2918,2.3567,2.4008,2.4048,2.4556,2.5157,2.5757,2.6079,2.6587,2.7428,2.5924,2.5665,2.8108,2.8259,2.8366,2.8841,2.9205,2.8497,2.6297,2.6414,2.5502,2.2983,2.2958,2.2841,2.251,2.4899,2.5127,2.2923,2.5295,2.535,2.3174,2.3024,2.3135,2.3513,2.5836,2.7075,2.7332,2.7581,2.7688,2.77,2.8033,2.949,3.1617,3.1617,3.1617,3.1503,3.0982,3.0955,3.1183,3.1183,3.1343,3.1617,3.1617,3.1617,3.1671,3.1917,3.1998,3.2064,3.242,3.25,3.25,3.25,3.2527,3.2541,3.2541,3.2567,3.2594,3.2594,3.2795,3.2982,3.2982,3.3133,3.332,3.332,3.332,3.3146,3.2674,3.2808,3.2982,3.2982,3.316,3.332,3.332,3.332,3.332,3.332,3.332,3.332,3.332,3.332,3.332,3.332,3.332,3.332,3.332,3.332,3.332,3.332,3.332,3.332,3.332,3.332,3.3,2.1109,2.1256,2.1529,2.177,2.1844,2.2017,2.2552,2.2819,2.3078,2.3714,2.4168,2.4556,2.4903,2.5451,2.5972,2.6386,2.7041,2.7068,2.6011,2.5352,2.4969,2.4816,2.4703,2.5299,2.6975,2.7276,2.636,2.4052,2.3967,2.2969,2.0529,2.0437,1.9752,1.8321,2.0742,2.1588,2.0527,2.1705,2.181,2.0724,1.9505,1.9686,2.1177,2.2336,2.3683,2.5141,2.5286,2.6283,2.785,2.7956,2.9709,3.2075,3.044,2.9797,2.9916,3.0936,3.149,3.173,3.173,3.1931,3.2233,3.2233,3.2233,3.2246,3.238,3.2407,3.2433,3.2567,3.2594,3.2594,3.2594,3.2728,3.2848,3.2848,3.2933,3.3053,3.3053,3.3146,3.3227,3.3227,3.3334,3.3414,3.3414,3.3561,3.3601,3.341,3.3267,3.3227,3.3227,3.3334,3.3414,3.3414,3.3414,3.3414,3.3414,3.3414,3.3414,3.3414,3.3414,3.3414,3.3414,3.3587,3.3694,3.3694,3.3855,3.3935,3.3935,3.3935,3.3935,3.3935,3.3935,3.3814,2.2338,2.2352,2.2352,2.2352,2.2579,2.2846,2.3094,2.3407,2.3772,2.4235,2.4676,2.5157,2.5665,2.6172,2.6627,2.7001,2.7116,2.6558,2.4859,2.3951,2.3115,2.2192,2.1582,2.1939,2.3718,2.4496,2.3985,2.1672,2.1498,2.0437,1.7996,1.7856,1.7048,1.5289,1.7781,1.8806,1.8152,1.8942,1.9033,1.8319,1.6712,1.6939,1.8833,1.9683,2.1116,2.2934,2.2934,2.4104,2.6032,2.6032,2.7729,3.0131,2.8076,2.773,2.8583,3.0181,3.0905,3.1183,3.197,3.242,3.2594,3.2594,3.2594,3.2607,3.2688,3.2714,3.2728,3.2808,3.2835,3.2835,3.2835,3.2933,3.3093,3.3093,3.3253,3.344,3.3521,3.3547,3.3561,3.3641,3.3668,3.3668,3.3668,3.3855,3.4002,3.4002,3.3814,3.3668,3.3668,3.3668,3.3668,3.3668,3.3668,3.3668,3.3668,3.3668,3.3668,3.3668,3.3668,3.3668,3.3668,3.3881,3.4002,3.4002,3.4215,3.4322,3.4322,3.4322,3.4322,3.4322,3.4322,3.4362,2.3207,2.3252,2.3252,2.3252,2.3514,2.3763,2.3777,2.4182,2.4559,2.4586,2.5317,2.6051,2.6306,2.66,2.7001,2.7575,2.5952,2.4676,2.4878,2.1249,1.9488,2.184,2.0253,1.9048,1.9094,2.1304,2.1672,1.9196,1.901,1.7949,1.5462,1.5321,1.5343,1.5398,1.7797,1.8018,1.5725,1.8213,1.8299,1.5992,1.6051,1.6126,1.6275,1.8988,2.03,2.0528,2.0528,2.0578,2.0637,2.0637,2.2182,2.4527,2.4477,2.6022,2.8421,2.8459,2.8508,2.8914,3.1627,3.2581,3.2594,3.2594,3.2594,3.2648,3.2929,3.3009,3.3026,3.3307,3.3387,3.3387,3.3387,3.3387,3.34,3.34,3.34,3.3494,3.3801,3.3868,3.3961,3.4242,3.4295,3.4295,3.4295,3.4295,3.4309,3.4309,3.4295,3.4295,3.4295,3.4295,3.4295,3.4295,3.4295,3.4295,3.4295,3.4295,3.4295,3.4295,3.4295,3.4295,3.4295,3.4295,3.4309,3.4309,3.4322,3.4322,3.4322,3.4322,3.4322,3.4322,3.4322,3.4469,2.3875,2.3915,2.3915,2.3915,2.3981,2.4115,2.4302,2.4649,2.5037,2.5438,2.5784,2.6198,2.6881,2.5809,2.5009,2.5632,2.4039,2.2226,2.0657,1.9443,1.8408,1.7629,1.6901,1.6425,1.6425,1.8685,1.9103,1.6612,1.6425,1.6108,1.5377,1.5337,1.5404,1.5512,1.6464,1.6591,1.5826,1.6749,1.6835,1.6008,1.6157,1.6279,1.6425,1.7321,1.7778,1.7829,1.7829,1.89,2.0731,2.0731,2.2373,2.4728,2.29,2.3862,2.6302,2.6302,2.7425,2.9388,3.1991,3.2959,3.312,3.312,3.312,3.3133,3.324,3.3267,3.328,3.3387,3.3414,3.3414,3.3414,3.3574,3.3721,3.3721,3.3868,3.4042,3.4148,3.4175,3.4202,3.4295,3.4322,3.4322,3.4322,3.4482,3.4683,3.487,3.4563,3.4322,3.4322,3.4322,3.4322,3.4322,3.4322,3.4322,3.4322,3.4322,3.4322,3.4322,3.4322,3.4322,3.4322,3.4509,3.4616,3.4616,3.4803,3.4897,3.4897,3.4897,3.4897,3.4897,3.4897,3.495,2.4356,2.4356,2.4382,2.4489,2.4436,2.4426,2.4826,2.5024,2.5288,2.5877,2.6078,2.6109,2.5989,2.4848,2.3843,2.3568,2.1876,2.0076,1.8598,1.7905,1.6986,1.5368,1.5181,1.5181,1.5181,1.6658,1.6939,1.5321,1.5235,1.5309,1.5404,1.5466,1.556,1.571,1.5854,1.5928,1.5983,1.609,1.6191,1.6239,1.6341,1.6463,1.6554,1.6554,1.6632,1.6686,1.6686,1.7761,1.9497,1.9497,2.0588,2.2079,2.0331,2.131,2.3723,2.3723,2.5471,2.8319,3.1927,3.3253,3.3414,3.3414,3.3414,3.3414,3.3414,3.3414,3.3414,3.3414,3.3494,3.3574,3.3574,3.3814,3.4042,3.4042,3.4189,3.4349,3.4456,3.4482,3.4509,3.4616,3.4629,3.4629,3.4629,3.479,3.4977,3.5164,3.487,3.4629,3.4629,3.4629,3.4629,3.4629,3.4629,3.4629,3.4629,3.4629,3.4629,3.4629,3.4629,3.4629,3.4629,3.4817,3.4923,3.4923,3.5097,3.5191,3.5191,3.5191,3.5191,3.5191,3.5191,3.5191,2.4639,2.4639,2.4719,2.505,2.4903,2.4786,2.5398,2.5317,2.5291,2.5736,2.6042,2.5685,2.3789,2.3661,2.3268,2.1518,1.9437,1.813,1.8433,1.6604,1.5181,1.5181,1.5181,1.5181,1.5181,1.5187,1.5194,1.5194,1.533,1.5418,1.5432,1.5574,1.5716,1.5908,1.5915,1.599,1.609,1.6246,1.6395,1.653,1.653,1.656,1.6709,1.6709,1.6842,1.6978,1.6978,1.6978,1.6978,1.6978,1.6978,1.6978,1.6978,1.8686,2.1103,2.1103,2.2855,2.5984,3.1302,3.32,3.32,3.32,3.3314,3.3414,3.3427,3.344,3.344,3.3454,3.3681,3.3908,3.3908,3.4122,3.4336,3.4336,3.4349,3.4442,3.4723,3.4842,3.4922,3.5137,3.5191,3.5191,3.5191,3.5191,3.5191,3.5191,3.5191,3.5191,3.5191,3.5191,3.5191,3.5191,3.5191,3.5191,3.5191,3.5191,3.5191,3.5191,3.5191,3.5191,3.5191,3.5191,3.5191,3.5191,3.5191,3.5191,3.5191,3.5191,3.5191,3.5191,3.5191,3.5191,2.5237,2.5253,2.5358,2.5703,2.5504,2.5384,2.5797,2.5824,2.5399,2.4098,2.4009,2.3574,2.1719,2.0105,1.8974,1.875,1.6958,1.562,1.5699,1.541,1.5181,1.5181,1.5181,1.5181,1.5181,1.5289,1.535,1.535,1.5391,1.5506,1.5779,1.5778,1.5866,1.6015,1.6071,1.6096,1.6252,1.6395,1.6544,1.6642,1.6642,1.6775,1.6924,1.6924,1.6944,1.6978,1.6978,1.6978,1.6978,1.6978,1.6978,1.6978,1.6978,1.8686,2.1103,2.1103,2.2855,2.5676,2.9167,3.0343,3.0343,3.0343,3.1718,3.3454,3.3694,3.3761,3.3814,3.4028,3.4148,3.4202,3.4202,3.4429,3.4591,3.4643,3.4817,3.499,3.507,3.5084,3.511,3.5177,3.5191,3.5191,3.5191,3.5191,3.5191,3.5191,3.5191,3.5191,3.5191,3.5191,3.5191,3.5191,3.5191,3.5191,3.5191,3.5191,3.5191,3.5191,3.5191,3.5191,3.5191,3.5191,3.5191,3.5191,3.5191,3.5191,3.5191,3.5191,3.5191,3.5191,3.5191,3.5191,2.5598,2.5705,2.5772,2.6118,2.5957,2.5553,2.4878,2.4555,2.3854,2.2059,2.1794,2.1255,1.9333,1.8106,1.7145,1.6448,1.5426,1.4741,1.4916,1.5079,1.5181,1.5181,1.5242,1.5282,1.5282,1.5418,1.554,1.5601,1.5608,1.5676,1.5894,1.5969,1.6044,1.6076,1.6144,1.6286,1.6452,1.6527,1.6648,1.6849,1.6849,1.6897,1.6978,1.6978,1.6978,1.6978,0.0,1.6978,1.6978,1.6978,1.6978,1.6978,1.6978,1.7961,1.9305,1.9305,2.0328,2.1891,2.3441,2.5675,2.8175,3.0562,3.2416,3.3841,3.4028,3.4082,3.4108,3.4269,3.4416,3.4509,3.4509,3.4723,3.495,3.495,3.5084,3.5191,3.5191,3.5191,3.5191,3.5191,3.5191,3.5191,3.5191,3.5191,3.5191,3.5191,3.5191,3.5191,3.5191,3.5191,3.5191,3.5191,3.5191,3.5191,3.5191,3.5191,3.5191,3.5191,3.5191,3.5191,3.5191,3.5191,3.5191,3.5191,3.5191,3.5191,3.5191,3.5191,3.5191,3.5191,3.5191,3.5191,2.585,2.6024,2.6118,2.6333,2.6238,2.5518,2.3532,2.2725,2.181,1.9826,1.9441,1.8827,1.6826,1.6764,1.6483,1.4747,1.4579,1.4789,1.5113,1.5167,1.5181,1.5181,1.5316,1.5411,1.5411,1.5567,1.5716,1.5894,1.5922,1.5935,1.5935,1.6058,1.609,1.611,1.6279,1.6439,1.6696,1.6716,1.6849,1.6978,1.6978,1.6978,1.6978,1.6978,1.6978,1.6978,1.6978,1.6978,1.6978,1.6978,1.6978,1.6978,1.6978,1.6978,1.6985,1.7005,1.7087,1.7248,1.7634,2.111,2.6188,3.1199,3.3481,3.4322,3.4362,3.4376,3.4389,3.4429,3.4616,3.4869,3.4869,3.5004,3.5191,3.5191,3.5191,3.5191,3.5191,3.5191,3.5191,3.5191,3.5191,3.5191,3.5191,3.5191,3.5191,3.5191,3.5191,3.5191,3.5191,3.5191,3.5191,3.5191,3.5191,3.5191,3.5191,3.5191,3.5191,3.5191,3.5191,3.5191,3.5191,3.5191,3.5191,3.5191,3.5191,3.5191,3.5191,3.5191,3.5191,3.5191,3.5191,3.5191,2.5904,2.6172,2.6333,2.6373,2.636,2.5753,2.358,2.2945,2.1671,1.782,1.7115,1.6541,1.4412,1.4373,1.4603,1.435,1.4518,1.4801,1.4984,1.5106,1.5181,1.5181,1.5316,1.5411,1.5411,1.5655,1.5874,1.5901,1.6017,1.6092,1.6092,1.6069,1.6137,1.6266,1.6479,1.6648,1.6696,1.6876,1.6951,1.6978,1.6978,1.6978,1.6978,1.6978,1.6978,1.6978,1.6978,0.0,1.6978,1.6978,1.6978,1.6978,1.6978,1.6978,1.6992,1.7114,1.7168,1.7528,1.992,2.1622,2.3179,2.6303,3.0463,3.4362,3.4616,3.4683,3.4736,3.4977,3.5084,3.5124,3.5124,3.5164,3.5191,3.5191,3.5191,3.5191,3.5191,3.5191,3.5191,3.5191,3.5191,3.5191,3.5191,3.5191,3.5191,3.5191,3.5191,3.5191,3.5191,3.5191,3.5191,3.5191,3.5191,3.5191,3.5191,3.5191,3.5191,3.5191,3.5191,3.5191,3.5191,3.5191,3.5191,3.5191,3.5191,3.5191,3.5191,3.5191,3.5191,3.5191,3.5191,3.5191,2.6065,2.6279,2.6386,2.6386,2.5541,2.4074,2.1849,2.0403,1.8577,1.5305,1.4675,1.4464,1.3576,1.3641,1.3939,1.4251,1.4482,1.4706,1.4936,1.5078,1.5099,1.5174,1.5391,1.5479,1.5479,1.5798,1.6024,1.6024,1.6042,1.6083,1.6083,1.6157,1.6266,1.6415,1.6581,1.6736,1.687,1.6944,1.6978,1.6978,1.6978,1.6978,1.6978,1.6978,1.6978,1.6978,1.6978,1.6978,1.6978,1.6978,1.6978,1.6985,1.706,1.7087,1.7107,1.7256,1.7358,1.7601,1.9007,2.0635,2.2329,2.3574,2.6802,3.0558,3.2245,3.2769,3.3123,3.4716,3.5191,3.5191,3.5191,3.5191,3.5191,3.5191,3.5191,3.5191,3.5191,3.5191,3.5191,3.5191,3.5191,3.5191,3.5191,3.5191,3.5191,3.5191,3.5191,3.5191,3.5191,3.5191,3.5191,3.5191,3.5191,3.5191,3.5191,3.5191,3.5191,3.5191,3.5191,3.5191,3.5191,3.5191,3.5191,3.5191,3.5191,3.5191,3.5191,3.5191,3.5191,3.5191,3.5191,3.5191,2.6079,2.6017,2.57,2.57,2.4035,2.1792,1.9534,1.759,1.5665,1.3408,1.2948,1.299,1.3261,1.3458,1.3729,1.4177,1.4394,1.4618,1.4976,1.4997,1.5059,1.5167,1.5452,1.5593,1.5593,1.5906,1.6083,1.6083,1.6083,1.6096,1.613,1.6273,1.6422,1.6564,1.6669,1.6856,1.6978,1.6978,1.6978,1.6978,1.6978,1.6978,1.6978,1.6978,1.6978,1.6978,1.6978,1.6978,1.6978,1.6978,1.6998,1.7039,1.7148,1.7209,1.7256,1.7412,1.7494,1.7595,1.7629,1.9232,2.1281,2.1281,2.3665,2.7068,3.0033,3.0899,3.1497,3.4372,3.5191,3.5191,3.5191,3.5191,3.5191,3.5191,3.5191,3.5191,3.5191,3.5191,3.5191,3.5191,3.5191,3.5191,3.5191,3.5191,3.5191,3.5191,3.5191,3.5191,3.5191,3.5191,3.5191,3.5191,3.5191,3.5191,3.5191,3.5191,3.5191,3.5191,3.5191,3.5191,3.5191,3.5191,3.5191,3.5191,3.5191,3.5191,3.5191,3.5257,3.5284,3.5284,3.5351,3.5378,2.5864,2.473,2.338,2.338,2.1678,1.9434,1.7222,1.6352,1.5401,1.3179,1.2713,1.28,1.3009,1.3234,1.3566,1.4021,1.4326,1.4618,1.4976,1.5079,1.5167,1.5181,1.5452,1.5593,1.5593,1.5906,1.6083,1.6083,1.6083,1.6144,1.6279,1.6422,1.652,1.6669,1.6876,1.6965,1.6978,1.6978,1.6978,1.6978,1.6978,1.6978,1.6978,1.6978,1.6978,1.6978,1.6978,1.6978,0.0,1.6978,1.706,1.7175,1.7188,1.7277,1.7419,1.7514,1.7575,1.7615,1.7792,1.8074,1.8302,1.8302,2.2038,2.7068,3.0033,3.0899,3.1497,3.4372,3.5191,3.5191,3.5191,3.5191,3.5191,3.5191,3.5191,3.5191,3.5191,3.5191,3.5191,3.5191,3.5191,3.5191,3.5191,3.5191,3.5191,3.5191,3.5191,3.5191,3.5191,3.5191,3.5191,3.5191,3.5191,3.5191,3.5191,3.5191,3.5191,3.5191,3.5191,3.5191,3.5191,3.5191,3.5191,3.5191,3.5191,3.5191,3.5191,3.5458,3.5538,3.5591,3.5872,3.6046,2.5784,2.544,2.4549,2.3301,2.1347,1.9065,1.6682,1.5034,1.3742,1.2766,1.2589,1.2637,1.2793,1.3064,1.341,1.3858,1.419,1.455,1.5031,1.5147,1.5215,1.5309,1.5588,1.5737,1.56,1.5906,1.6083,1.6083,1.6164,1.6286,1.6429,1.649,1.654,1.6696,1.6904,1.6978,1.6978,1.6978,1.6978,1.6978,1.6978,1.6978,1.6978,1.6978,1.6978,1.6978,1.6978,1.6978,0.0,1.6978,1.7066,1.7202,1.7297,1.7426,1.7521,1.7717,1.7772,1.7792,1.7846,1.7915,1.7915,1.7915,1.9445,2.1874,2.4806,2.6907,2.8843,3.1764,3.3883,3.5191,3.5191,3.5191,3.5191,3.5191,3.5191,3.5191,3.5191,3.5191,3.5191,3.5191,3.5191,3.5191,3.5191,3.5191,3.5191,3.5191,3.5191,3.5191,3.5191,3.5191,3.5191,3.5191,3.5191,3.5191,3.5191,3.5191,3.5191,3.5191,3.5191,3.5191,3.5191,3.5191,3.5191,3.5191,3.5191,3.5284,3.5458,3.5404,3.5458,3.5578,3.5565,3.5551,2.5543,2.4881,2.3636,2.2165,1.9698,1.7171,1.5417,1.3774,1.2591,1.2522,1.2501,1.2549,1.2665,1.2942,1.3254,1.366,1.4075,1.4496,1.5045,1.5194,1.5309,1.5459,1.5737,1.5915,1.5716,1.5934,1.6083,1.6083,1.6225,1.6374,1.6517,1.6564,1.6608,1.6763,1.6924,1.6978,1.6978,1.6978,1.6978,1.6978,1.6978,1.6978,1.6978,1.6978,1.6978,1.6978,1.6978,1.6978,0.0,1.6978,1.7066,1.7209,1.7358,1.746,1.7609,1.7812,1.7915,1.7915,1.7915,1.7915,1.7915,1.7915,1.7915,1.8302,2.0317,2.3556,2.7122,3.0086,3.2957,3.5191,3.5191,3.5191,3.5191,3.5191,3.5191,3.5191,3.5191,3.5191,3.5191,3.5191,3.5191,3.5191,3.5191,3.5191,3.5191,3.5191,3.5191,3.5191,3.5191,3.5191,3.5191,3.5191,3.5191,3.5191,3.5191,3.5191,3.5191,3.5191,3.5191,3.5191,3.5191,3.5191,3.5191,3.5191,3.5191,3.5297,3.5498,3.5378,3.5431,3.5631,3.5511,3.5404,2.501,2.2254,1.9279,1.924,1.5962,1.2771,1.2732,1.261,1.2501,1.2501,1.2501,1.2549,1.2665,1.2861,1.3112,1.3559,1.4007,1.4455,1.4955,1.5221,1.5466,1.5566,1.59,1.6015,1.5915,1.6037,1.6083,1.6083,1.6225,1.6374,1.6517,1.6615,1.677,1.6971,1.6978,1.6978,1.6978,1.6978,1.6978,1.6978,1.6978,1.6978,1.6978,1.6978,1.6978,1.6978,1.6978,1.6978,0.0,1.6978,1.7066,1.7209,1.7358,1.746,1.7609,1.7812,1.7915,1.7915,1.7915,1.7915,1.7915,1.7915,1.7915,1.7915,1.7922,2.1929,2.7122,3.0086,3.2957,3.5191,3.5191,3.5191,3.5191,3.5191,3.5191,3.5191,3.5191,3.5191,3.5191,3.5191,3.5191,3.5191,3.5191,3.5191,3.5191,3.5191,3.5191,3.5191,3.5191,3.5191,3.5191,3.5191,3.5191,3.5191,3.5191,3.5191,3.5191,3.5191,3.5191,3.5191,3.5191,3.5191,3.5191,3.5191,3.5191,3.5191,3.5204,3.5485,3.5631,3.5631,3.5925,3.5912,2.4943,2.4174,2.2577,1.9741,1.8029,1.6251,1.3251,1.2535,1.2501,1.2501,1.2501,1.2515,1.2562,1.2786,1.3111,1.3417,1.3939,1.4489,1.5038,1.5289,1.5466,1.5573,1.5675,1.5839,1.6044,1.6105,1.6083,1.6083,1.6313,1.6476,1.6517,1.6768,1.6931,1.6978,1.6978,1.6978,1.6978,1.6978,1.6978,1.6978,1.6978,1.6978,1.6978,1.6978,1.6978,1.6978,1.6978,1.7032,1.7121,1.7019,1.7127,1.7351,1.7399,1.746,1.7609,1.7812,1.7915,1.7915,1.7915,1.7915,1.7915,1.7915,1.7915,1.7915,1.7915,2.0529,2.4589,2.9551,3.2957,3.5191,3.5191,3.5191,3.5191,3.5191,3.5191,3.5191,3.5191,3.5191,3.5191,3.5191,3.5191,3.5191,3.5191,3.5191,3.5191,3.5191,3.5191,3.5191,3.5191,3.5191,3.5191,3.5191,3.5191,3.5191,3.5191,3.5191,3.5191,3.5191,3.5191,3.5191,3.5191,3.5191,3.5191,3.5191,3.5191,3.5297,3.5498,3.5378,3.5338,3.5338,3.5431,3.5418,2.4556,2.4289,2.2991,1.9652,1.8277,1.6753,1.3288,1.2501,1.2501,1.2501,1.2501,1.2522,1.2576,1.2793,1.3118,1.3431,1.3946,1.4509,1.5099,1.5316,1.5506,1.5771,1.5757,1.5839,1.6137,1.6117,1.6083,1.6083,1.6307,1.649,1.6554,1.6788,1.6944,1.706,1.7012,1.6978,1.6978,1.6978,1.6978,1.6978,1.6978,1.7012,1.706,1.7005,1.7012,1.706,1.7005,1.706,0.0,1.71,1.7202,1.7426,1.7487,1.7507,1.7609,1.7812,1.7915,1.7915,1.7915,1.7915,1.7915,1.7915,1.7915,1.7915,1.7915,1.9933,2.3402,2.9272,3.2201,3.3566,3.3566,3.4372,3.4927,3.383,3.4425,3.5191,3.5191,3.5191,3.5191,3.5191,3.5191,3.5191,3.5191,3.5191,3.5191,3.5191,3.5191,3.5191,3.5191,3.5191,3.5191,3.5191,3.5191,3.5191,3.5191,3.5191,3.5191,3.5191,3.5191,3.5191,3.5191,3.5191,3.5191,3.5191,3.5191,3.5284,3.5471,3.5391,3.5364,3.5364,3.5471,3.5404,0.0,2.2962,2.1305,1.9317,1.7246,1.5195,1.319,1.2617,0.0,1.2501,1.2501,1.2549,1.2665,1.2868,1.3166,1.3531,1.4034,1.4529,1.5106,1.5316,1.5574,1.6015,1.5983,1.601,1.6279,1.6171,1.6083,1.6083,1.6232,1.6442,1.6669,1.6702,1.6838,1.7168,1.7046,1.6978,1.6978,1.6992,1.6998,1.6998,1.7005,1.708,1.7202,1.7073,1.708,0.0,1.7066,1.7087,1.7209,1.7209,1.7297,1.7453,1.7541,1.7595,1.7609,1.7812,1.7915,1.7915,1.7915,1.7915,1.7915,1.7915,1.7915,1.7915,1.7915,1.9933,2.3347,2.9004,3.0567,3.0621,3.0846,3.2904,3.4214,3.1551,3.3129,3.5191,3.5191,3.5191,3.5191,3.5191,3.5191,3.5191,3.5191,3.5191,3.5191,3.5191,3.5191,3.5191,3.5191,3.5191,3.5191,3.5191,3.5191,3.5191,3.5191,3.5191,3.5191,3.5191,3.5191,3.5191,3.5191,3.5191,3.5191,3.5191,3.5217,3.5231,3.5231,3.5511,3.5591,3.5631,3.5939,3.5765,2.3148,0.0,2.3159,2.1356,1.9365,1.7322,0.0,1.3606,1.2501,1.2501,1.2501,1.2549,1.2665,1.2949,1.3268,1.3673,1.4221,1.4767,1.5133,1.5316,1.5533,1.5915,1.5778,1.5852,1.6273,1.6171,1.6083,1.6083,1.6327,1.6503,1.652,1.6795,1.6958,1.7026,1.6998,1.6978,1.6978,1.7087,1.7141,1.7148,1.7263,1.7331,1.7365,1.7331,1.727,1.7195,1.7283,1.7338,1.7365,1.7365,1.7406,1.7541,1.7575,1.7595,1.7609,1.7812,1.7915,1.7915,1.7915,1.7915,1.7915,1.7915,1.7915,1.7915,1.7915,1.9933,2.2966,2.6529,2.7553,2.8038,3.03,3.1379,3.1764,3.1059,3.3129,3.5191,3.5191,3.5191,3.5191,3.5191,3.5191,3.5191,3.5191,3.5191,3.5191,3.5191,3.5191,3.5191,3.5191,3.5191,3.5191,3.5191,3.5191,3.5191,3.5191,3.5191,3.5191,3.5191,3.5191,3.5191,3.5191,3.5191,3.5191,3.5191,3.5418,3.5525,3.5525,3.5832,3.5845,3.5631,3.5939,3.5872,2.2827,2.3549,2.3749,2.1882,2.0003,1.808,1.596,1.3945,1.2501,1.2501,1.2556,1.2671,1.2895,1.318,1.3532,1.398,1.4496,1.497,1.5343,1.5581,1.575,1.5894,1.5845,1.594,1.6185,1.613,1.611,1.6185,1.6334,1.6517,1.672,1.689,1.7012,1.7073,1.7148,1.7148,1.708,1.7154,1.7229,1.7297,1.7378,1.7406,1.7467,1.7453,1.7412,1.7405,1.7412,1.7406,1.7473,1.7473,1.7521,1.7595,1.7717,1.7704,1.7609,1.7812,1.7915,1.7915,1.7915,1.7915,1.7915,1.7915,1.7915,1.7915,1.7915,1.9004,2.0842,2.372,2.4535,2.4905,2.6475,2.7876,2.8897,2.8897,3.1112,3.3619,3.4927,3.5191,3.5191,3.5191,3.5191,3.5191,3.5191,3.5191,3.5191,3.5191,3.5191,3.5191,3.5191,3.5191,3.5191,3.5191,3.5191,3.5191,3.5191,3.5191,3.5191,3.5191,3.5191,3.5191,3.5191,3.5191,3.5191,3.5191,3.5351,3.5565,3.5832,3.5992,3.6059,3.6032,3.634,3.6246,2.2626,2.3196,2.3259,2.1617,1.9868,1.808,1.596,1.3968,1.2535,1.2535,1.2678,1.2881,1.3159,1.3478,1.3844,1.4292,1.4746,1.5174,1.5506,1.5818,1.5947,1.5915,1.6017,1.6069,1.611,1.6117,1.6171,1.63,1.6354,1.6544,1.6924,1.6971,1.7046,1.7188,1.7317,1.7344,1.7263,1.7263,1.7324,1.7453,1.748,1.7555,1.7629,1.7548,1.7494,1.7595,0.0,0.0,1.7595,1.7615,1.7615,1.7609,1.7812,1.7772,1.7609,1.7812,1.7915,1.7915,1.7915,1.7915,1.7915,1.7915,1.7915,1.7915,1.7915,1.7915,1.8412,2.085,2.1516,2.1664,2.2101,2.3992,2.5934,2.6421,2.8736,3.171,3.4597,3.5191,3.5191,3.5191,3.5191,3.5191,3.5191,3.5191,3.5191,3.5191,3.5191,3.5191,3.5191,3.5191,3.5191,3.5191,3.5191,3.5191,3.5191,3.5191,3.5191,3.5191,3.5191,3.5191,3.5191,3.5191,3.5191,3.5191,3.5244,3.5525,3.6072,3.6112,3.6259,3.6513,3.6794,3.6647,2.2098,2.1719,2.1233,2.1203,1.9868,1.808,1.596,1.402,1.2659,1.2659,1.2915,1.3159,1.3336,1.3715,1.415,1.4552,1.5052,1.5364,1.5438,1.5486,1.5601,1.5874,1.5922,1.6037,1.6252,1.6273,1.6286,1.6307,1.6486,1.6662,1.673,1.691,1.7046,1.7188,1.7216,1.7338,1.7521,1.7527,1.7534,1.7561,1.7738,1.7812,1.7826,1.7812,1.7738,1.7595,0.0,1.7738,1.7609,1.7772,1.7758,1.7609,1.7812,1.7772,1.7609,1.7812,1.7915,1.7915,1.7915,1.7915,1.7915,1.7915,1.7915,1.7915,1.7915,1.7915,1.7977,1.8412,1.8564,1.9122,2.1571,2.2538,2.3456,2.5934,2.8736,3.171,3.4597,3.5191,3.5191,3.5191,3.5191,3.5191,3.5191,3.5191,3.5191,3.5191,3.5191,3.5191,3.5191,3.5191,3.5191,3.5191,3.5191,3.5191,3.5191,3.5191,3.5191,3.5191,3.5191,3.5191,3.5191,3.5191,3.5191,3.5191,3.5431,3.5725,3.6072,3.6313,3.6473,3.6513,3.6794,3.6754,2.1991,2.2181,2.1894,1.9803,1.8096,1.6703,1.5859,1.415,1.2733,1.2935,1.3146,1.3363,1.3593,1.3946,1.4367,1.4896,1.5221,1.5438,1.552,1.5669,1.5791,1.5894,1.6051,1.6123,1.6185,1.6259,1.6341,1.6422,1.6574,1.6736,1.687,1.7012,1.7127,1.7188,1.7351,1.7507,1.7595,1.7717,1.7758,1.7772,1.7881,1.7915,1.7915,1.7915,1.7826,1.7772,0.0,1.7826,1.7772,1.7881,1.7772,1.7609,1.7812,1.7772,1.7609,1.7812,1.7915,1.7915,1.7915,1.7915,1.7915,1.7915,1.7915,1.7915,1.7915,1.7915,1.7915,1.7915,1.7915,1.8184,1.9555,1.9878,2.1015,2.5447,2.7553,2.9765,3.4214,3.5191,3.5191,3.5191,3.5191,3.5191,3.5191,3.5191,3.5191,3.5191,3.5191,3.5191,3.5191,3.5191,3.5191,3.5191,3.5191,3.5191,3.5191,3.5191,3.5191,3.5191,3.5191,3.5191,3.5191,3.5191,3.5191,3.5191,3.5324,3.5538,3.5832,3.5965,3.6112,3.6273,3.6393,3.6393,2.2071,2.2556,2.2205,1.867,1.7011,1.6064,1.5257,1.3946,1.2942,1.3132,1.3376,1.3627,1.3808,1.4231,1.4665,1.5153,1.5337,1.5452,1.5519,1.5811,1.5947,1.5915,1.609,1.6212,1.609,1.6252,1.6402,1.651,1.6648,1.6856,1.6971,1.708,1.7175,1.7243,1.7473,1.7575,1.7649,1.7812,1.7915,1.7915,1.7915,1.7915,1.7915,1.7915,1.7915,1.7915,1.7915,1.7915,1.7915,1.7915,1.7772,1.7609,1.7812,1.7792,1.7663,1.7826,1.7915,1.7915,1.7915,1.7915,1.7915,1.7915,1.7915,1.7915,1.7915,1.7915,1.7915,1.7915,1.7915,1.7915,1.7915,1.7915,1.9177,2.4254,2.5988,2.793,3.3076,3.4702,3.5191,3.5191,3.5191,3.5191,3.5191,3.5191,3.5191,3.5191,3.5191,3.5191,3.5191,3.5191,3.5191,3.5191,3.5191,3.5191,3.5191,3.5191,3.5191,3.5191,3.5191,3.5191,3.5191,3.5191,3.5191,3.5191,3.5191,3.5338,3.5578,3.5578,3.5778,3.6072,3.6072,3.6072,2.2311,2.1669,2.0451,1.8537,1.8325,1.7575,1.3772,1.3131,1.3315,1.3241,1.3669,1.4071,1.4048,1.4638,1.5181,1.5364,1.5404,1.5411,1.5425,1.5519,1.5716,1.5888,1.6044,1.6096,1.6083,1.6341,1.651,1.6524,1.6795,1.6971,1.6978,1.6992,1.7121,1.7399,1.7426,1.7568,1.7902,1.786,1.7915,1.7915,1.7915,1.7915,1.7915,1.7915,1.7915,1.7915,1.7915,1.7915,1.7915,1.7915,1.7772,1.7609,1.7812,1.786,1.7902,1.786,1.7915,1.7915,1.7915,1.7915,1.7915,1.7915,1.7915,1.7915,1.7915,1.7915,1.7915,1.7915,1.7915,1.7915,1.7915,1.7915,1.8681,2.1773,2.4535,2.7338,3.0525,3.3288,3.5191,3.5191,3.5191,3.5191,3.5191,3.5191,3.5191,3.5191,3.5191,3.5191,3.5191,3.5191,3.5191,3.5191,3.5191,3.5191,3.5191,3.5191,3.5191,3.5191,3.5191,3.5191,3.5191,3.5191,3.5191,3.5191,3.5191,3.5338,3.5578,3.5578,3.5778,3.6072,3.6072,3.6072,2.2619,2.1875,2.0583,1.8737,1.773,1.6409,1.3518,1.3146,1.3464,1.3731,1.3987,1.4299,1.4622,1.4908,1.5099,1.5248,1.5269,1.5303,1.5398,1.554,1.5689,1.5888,1.6037,1.6083,1.6083,1.6347,1.6524,1.6524,1.6809,1.6978,1.6978,1.6978,1.7114,1.7412,1.7419,1.7561,1.7915,1.7915,1.7915,1.7915,1.7915,1.7915,1.7915,1.7915,1.7915,1.7915,1.7915,1.7915,1.7915,1.7915,1.7881,1.7792,1.7846,1.7915,1.7915,1.7915,1.7915,1.7915,1.7915,1.7915,1.7915,1.7915,1.7915,1.7915,1.7915,1.7915,1.7915,1.7915,1.7915,1.7915,1.7915,1.7915,1.8626,2.1516,2.4426,2.7338,3.0247,3.3182,3.5191,3.5191,3.5191,3.5191,3.5191,3.5191,3.5191,3.5191,3.5191,3.5191,3.5191,3.5191,3.5191,3.5191,3.5191,3.5191,3.5191,3.5191,3.5191,3.5191,3.5191,3.5191,3.5191,3.5191,3.5191,3.5191,3.5191,3.5244,3.5364,3.5364,3.5418,3.5525,3.5525,3.5525,2.1979,2.1222,1.989,1.8104,1.6914,1.5651,1.3654,1.3403,1.3702,1.405,1.4306,1.4618,1.5017,1.5079,1.514,1.5242,1.5215,1.5255,1.5452,1.5526,1.571,1.5949,1.6015,1.6083,1.6083,1.6347,1.6524,1.6524,1.6809,1.6978,1.6978,1.6978,1.7114,1.7412,1.7419,1.7561,1.7915,1.7915,1.7915,1.7915,1.7915,1.7915,1.7915,1.7915,1.7915,1.7915,1.7915,1.7915,1.7915,1.7915,1.7846,1.7792,1.7902,1.7881,1.7806,1.7902,1.7915,1.7915,1.7915,1.7915,1.7915,1.7915,1.7915,1.7915,1.7915,1.7915,1.7915,1.7915,1.7915,1.7915,1.7915,1.7915,1.8412,2.0372,2.302,2.5934,2.8897,3.1764,3.4108,3.5032,3.5191,3.5191,3.5191,3.5191,3.5191,3.5191,3.5191,3.5191,3.5191,3.5191,3.5191,3.5191,3.5191,3.5191,3.5191,3.5191,3.5191,3.5191,3.5191,3.5191,3.5191,3.5191,3.5191,3.5191,3.5191,3.5191,3.5191,3.5191,3.5191,3.5191,3.5191,3.5191,2.0169,1.9361,1.7998,1.639,1.6073,1.5715,1.4014,1.3858,1.4119,1.4125,1.4602,1.5064,1.516,1.5309,1.5411,1.5411,1.5282,1.5289,1.5546,1.5593,1.5702,1.6049,1.6083,1.6083,1.6083,1.6347,1.6524,1.6524,1.6809,1.6978,1.6978,1.6978,1.7114,1.7412,1.7419,1.7561,1.7915,1.7915,1.7915,1.7915,1.7915,1.7915,1.7915,1.7915,1.7915,1.7915,1.7915,1.7915,1.7915,1.7915,1.7772,1.7609,1.7812,1.7772,1.7609,1.7812,1.7915,1.7915,1.7915,1.7915,1.7915,1.7915,1.7915,1.7915,1.7915,1.7915,1.7915,1.7915,1.7915,1.7915,1.7915,1.7915,1.7915,1.7915,2.0145,2.302,2.588,2.8843,3.1764,3.465,3.5191,3.5191,3.5191,3.5191,3.5191,3.5191,3.5191,3.5191,3.5191,3.5191,3.5191,3.5191,3.5191,3.5191,3.5191,3.5191,3.5191,3.5191,3.5191,3.5191,3.5191,3.5191,3.5191,3.5191,3.5191,3.5191,3.5191,3.5191,3.5191,3.5191,3.5191,3.5191,2.0829,1.9647,1.826,1.6464,1.5188,1.4243,1.3856,1.3933,1.4234,1.4663,1.4969,1.5167,1.5316,1.5289,1.5289,1.5391,1.5282,1.5289,1.5546,1.5593,1.5702,1.6049,1.6083,1.6083,1.6083,1.6347,1.6524,1.6524,1.6809,1.6978,1.6978,1.6978,1.7114,1.7412,1.7419,1.7561,1.7915,1.7915,1.7915,1.7915,1.7915,1.7915,1.7915,1.7915,1.7915,1.7915,1.7915,1.7915,1.786,1.7758,1.7629,1.7595,1.7649,1.7629,1.7609,1.7812,1.7915,1.7915,1.7915,1.7915,1.7915,1.7915,1.7915,1.7915,1.7915,1.7915,1.7915,1.7915,1.7915,1.7915,1.7915,1.7915,1.7915,1.7915,2.1664,2.5447,2.6313,3.0419,3.4161,3.5032,3.5191,3.5191,3.5191,3.5191,3.5191,3.5191,3.5191,3.5191,3.5191,3.5191,3.5191,3.5191,3.5191,3.5191,3.5191,3.5191,3.5191,3.5191,3.5191,3.5191,3.5191,3.5191,3.5191,3.5191,3.5191,3.5191,3.5191,3.5191,3.5191,3.5191,3.5191,3.5191,1.8759,1.7425,1.616,1.5154,1.4218,1.3641,1.3977,1.4224,1.4455,1.4928,1.5133,1.5282,1.5316,1.5296,1.5282,1.5316,1.5242,1.5289,1.5546,1.5593,1.5702,1.6049,1.6083,1.6083,1.6083,1.6347,1.6524,1.6524,1.6809,1.6978,1.6978,1.7032,1.7175,1.7412,1.7426,1.7623,1.7915,1.7915,1.7915,1.7915,1.7915,1.7915,1.7915,1.7915,1.7915,1.7915,1.7915,1.7826,1.7772,1.7629,1.7521,1.7426,1.7548,1.7554,1.7527,1.7792,1.7915,1.7915,1.7915,1.7915,1.7915,1.7915,1.7915,1.7915,1.7915,1.7915,1.7915,1.7915,1.7915,1.7915,1.7915,1.7915,1.7915,1.7915,2.0529,2.372,2.5988,2.9283,3.2426,3.4755,3.5191,3.5191,3.5191,3.5191,3.5191,3.5191,3.5191,3.5191,3.5191,3.5191,3.5191,3.5191,3.5191,3.5191,3.5191,3.5191,3.5191,3.5191,3.5191,3.5191,3.5191,3.5191,3.5191,3.5191,3.5191,3.5191,3.5191,3.5191,3.5191,3.5191,3.5191,3.5191,1.5502,1.4098,1.3072,1.3186,1.3329,1.3668,1.4373,1.4652,1.4755,1.4957,1.5201,1.535,1.5208,1.5296,1.5343,1.5208,1.5181,1.5289,1.5546,1.5593,1.5702,1.6049,1.6083,1.6083,1.6083,1.6347,1.6524,1.6524,1.6809,1.6978,1.6978,1.7114,1.7263,1.7412,1.7514,1.7717,1.7915,1.7915,1.7915,1.7915,1.7915,1.7915,1.7915,1.7915,1.7915,1.7915,1.7915,1.7772,1.7595,1.7575,1.7453,1.7222,1.746,1.7487,1.7453,1.7758,1.7915,1.7915,1.7915,1.7915,1.7915,1.7915,1.7915,1.7915,1.7915,1.7915,1.7915,1.7915,1.7915,1.7915,1.7915,1.7915,1.7915,1.7915,1.8074,1.9823,2.5285,2.6691,2.8521,3.4108,3.5191,3.5191,3.5191,3.5191,3.5191,3.5191,3.5191,3.5191,3.5191,3.5191,3.5191,3.5191,3.5191,3.5191,3.5191,3.5191,3.5191,3.5191,3.5191,3.5191,3.5191,3.5191,3.5191,3.5191,3.5191,3.5191,3.5191,3.5191,3.5191,3.5191,3.5191,3.5191,1.7458,1.6289,1.508,1.36,1.3641,1.4211,1.4552,1.4808,1.4964,1.5106,1.5187,1.5221,1.5187,1.5208,1.5221,1.5187,1.5181,1.5289,1.5546,1.5593,1.5702,1.6049,1.6083,1.6083,1.6083,1.6347,1.6524,1.6524,1.6809,1.6978,1.6978,1.7114,1.7263,1.7412,1.7514,1.7717,1.7915,1.7915,1.7915,1.7915,1.7915,1.7915,1.7915,1.7915,1.7915,1.7915,1.7915,1.7772,1.7575,1.7467,1.7358,1.7209,1.7399,1.7453,1.7453,1.7758,1.7915,1.7915,1.7915,1.7915,1.7915,1.7915,1.7915,1.7915,1.7915,1.7915,1.7915,1.7915,1.7915,1.7915,1.7915,1.7915,1.7915,1.7915,1.961,2.221,2.5718,2.8307,3.1006,3.4544,3.5191,3.5191,3.5191,3.5191,3.5191,3.5191,3.5191,3.5191,3.5191,3.5191,3.5191,3.5191,3.5191,3.5191,3.5191,3.5191,3.5191,3.5191,3.5191,3.5191,3.5191,3.5191,3.5191,3.5191,3.5191,3.5191,3.5191,3.5191,3.5191,3.5191,3.5191,3.5191,1.6732,1.5463,1.4336,1.3562,1.3851,1.438,1.4626,1.4909,1.5139,1.5167,1.5181,1.5181,1.5181,1.5181,1.5181,1.5181,1.5242,1.5371,1.556,1.5696,1.5825,1.6056,1.6083,1.6083,1.6083,1.6347,1.6524,1.6524,1.6809,1.6978,1.6978,1.7182,1.7338,1.7419,1.7629,1.7792,1.7915,1.7915,1.7915,1.7915,1.7915,1.7915,1.7915,1.7915,1.7915,1.786,1.7792,1.7684,1.7473,1.7372,1.7222,1.7114,1.7331,1.7419,1.7453,1.7758,1.7915,1.7915,1.7915,1.7915,1.7915,1.7915,1.7915,1.7915,1.7915,1.7915,1.7915,1.7915,1.7915,1.7915,1.7915,1.7915,1.7915,1.7915,1.906,2.0905,2.3828,2.6745,2.9658,3.2586,3.4267,3.5191,3.5191,3.5191,3.5191,3.5191,3.5191,3.5191,3.5191,3.5191,3.5191,3.5191,3.5191,3.5191,3.5191,3.5191,3.5191,3.5191,3.5191,3.5191,3.5191,3.5191,3.5191,3.5191,3.5191,3.5191,3.5191,3.5338,3.5338,3.5204,3.5338,3.5324,1.5639,1.4122,1.2909,1.3553,1.4021,1.4407,1.4633,1.497,1.5181,1.5181,1.5181,1.5181,1.5181,1.5181,1.5181,1.5181,1.5309,1.5466,1.5566,1.5764,1.5956,1.6062,1.6083,1.6083,1.6083,1.6347,1.6524,1.6524,1.6809,1.6992,1.7019,1.727,1.7433,1.7406,1.7724,1.7915,1.7915,1.7915,1.7915,1.7915,1.7915,1.7902,1.7826,1.7826,1.7826,1.7868,1.767,1.7467,1.7372,1.7243,1.7107,1.7012,1.7304,1.7419,1.7453,1.7758,1.7915,1.7915,1.7915,1.7915,1.7915,1.7915,1.7915,1.7915,1.7915,1.7915,1.7915,1.7915,1.7915,1.7915,1.7915,1.7915,1.7915,1.7915,1.7915,1.8681,2.1571,2.4481,2.7392,3.0354,3.3235,3.5191,3.5191,3.5191,3.5191,3.5191,3.5191,3.5191,3.5191,3.5191,3.5191,3.5191,3.5191,3.5191,3.5191,3.5191,3.5191,3.5191,3.5191,3.5191,3.5191,3.5191,3.5217,3.5271,3.5271,3.5297,3.5351,3.5591,3.5578,3.5351,3.5591,3.5578,1.7191,1.5286,1.3302,1.3865,1.4251,1.4529,1.4654,1.497,1.5181,1.5181,1.5181,1.5181,1.5181,1.5181,1.5181,1.5181,1.5309,1.5466,1.5566,1.5764,1.5956,1.6062,1.6083,1.6083,1.6083,1.6347,1.6524,1.6524,1.6809,1.7032,1.7154,1.7324,1.7426,1.7561,1.7772,1.7915,1.7915,1.7915,1.7915,1.7915,1.7915,1.7792,1.7629,1.7629,1.7629,1.7615,1.746,1.7365,1.7222,1.7202,1.7107,1.7012,1.7304,1.7419,1.7453,1.7758,1.7915,1.7915,1.7915,1.7915,1.7915,1.7915,1.7915,1.7915,1.7915,1.7915,1.7915,1.7915,1.7915,1.7915,1.7915,1.7915,1.7915,1.7915,1.7915,1.8681,2.1571,2.4481,2.7392,3.0354,3.3235,3.5191,3.5191,3.5191,3.5191,3.5191,3.5191,3.5191,3.5191,3.5191,3.5191,3.5191,3.5191,3.5191,3.5191,3.5191,3.5191,3.5191,3.5191,3.5191,3.5191,3.5191,3.5311,3.5511,3.5578,3.5698,3.5952,3.5992,3.5992,3.5952,3.5992,3.5992,1.4844,1.3947,1.32,1.3587,1.398,1.4326,1.4557,1.4848,1.5086,1.5167,1.5181,1.5181,1.5181,1.5181,1.5208,1.5296,1.5438,1.5588,1.5737,1.5886,1.6008,1.6076,1.6083,1.6083,1.6083,1.6279,1.6435,1.6466,1.6646,1.6863,1.7175,1.7256,1.7399,1.7595,1.7792,1.7915,1.7915,1.7915,1.7915,1.7915,1.7772,1.7704,1.7595,1.7419,1.7439,1.746,1.7358,1.7256,1.7188,1.7107,1.7039,1.7012,1.7304,1.7419,1.7453,1.7758,1.7915,1.7915,1.7915,1.7915,1.7915,1.7915,1.7915,1.7915,1.7915,1.7915,1.7915,1.7915,1.7915,1.7915,1.7915,1.7915,1.7915,1.7915,1.7915,1.8247,1.95,2.3339,2.7876,3.2414,3.4319,3.5191,3.5191,3.5191,3.5191,3.5191,3.5191,3.5191,3.5191,3.5191,3.5191,3.5191,3.5191,3.5191,3.5191,3.5191,3.5191,3.5191,3.5191,3.5191,3.5191,3.5191,3.5404,3.5872,3.5712,3.5778,3.6072,3.6233,3.6233,3.6072,3.6233,3.6233,1.2815,1.261,1.2975,1.3308,1.3682,1.4048,1.438,1.4692,1.495,1.5099,1.516,1.5181,1.5181,1.5181,1.5235,1.5384,1.5492,1.5689,1.5881,1.6037,1.6083,1.6083,1.6083,1.6083,1.6083,1.6218,1.6368,1.651,1.6592,1.6802,1.7175,1.7263,1.7412,1.7595,1.7792,1.7915,1.7915,1.7915,1.7915,1.7915,1.7717,1.7575,1.7527,1.7311,1.7236,1.7304,1.7188,1.7141,1.7127,1.7026,1.7005,1.706,1.7317,1.7446,1.7507,1.7772,1.7915,1.7915,1.7915,1.7915,1.7915,1.7915,1.7915,1.7915,1.7915,1.7915,1.7915,1.7915,1.7915,1.7915,1.7915,1.7915,1.7915,1.7915,1.7915,1.8302,1.9768,2.3447,2.8253,3.4055,3.5191,3.5191,3.5191,3.5191,3.5191,3.5191,3.5191,3.5191,3.5191,3.5191,3.5191,3.5191,3.5191,3.5191,3.5191,3.5191,3.5191,3.5191,3.5191,3.5231,3.5311,3.5311,3.5578,3.6166,3.5965,3.6006,3.6286,3.65,3.65,3.6299,3.6513,3.65,1.2978,1.2298,1.2664,1.3254,1.3526,1.377,1.4211,1.4536,1.4748,1.495,1.5086,1.5181,1.5181,1.5181,1.5235,1.5384,1.5492,1.5689,1.5881,1.6037,1.6083,1.6083,1.6083,1.6083,1.6083,1.6218,1.6368,1.651,1.6788,1.7026,1.7182,1.7412,1.7575,1.7595,1.7792,1.7915,1.7915,1.7915,1.7915,1.7915,1.7717,1.7521,1.7426,1.7263,1.7121,1.7005,1.6992,1.6992,1.6992,1.6985,1.706,1.7195,1.7358,1.7453,1.7595,1.7812,1.7915,1.7915,1.7915,1.7915,1.7915,1.7915,1.7915,1.7915,1.7915,1.7915,1.7915,1.7915,1.7915,1.7915,1.7915,1.7915,1.7915,1.7915,1.7915,1.9383,2.4851,2.6313,2.8253,3.4055,3.5191,3.5191,3.5191,3.5191,3.5191,3.5191,3.5191,3.5191,3.5191,3.5191,3.5191,3.5191,3.5191,3.5191,3.5191,3.5191,3.5191,3.5191,3.5191,3.5324,3.5591,3.5551,3.5885,3.6473,3.6473,3.6607,3.6845,3.6845,3.6845,3.6845,3.6845,3.6845,1.2481,1.2203,1.2603,1.3057,1.3376,1.3722,1.4075,1.4462,1.4741,1.4936,1.5132,1.5181,1.5181,1.5262,1.5377,1.5533,1.5683,1.5832,1.603,1.6049,1.6083,1.6083,1.6083,1.6083,1.6083,1.6218,1.6368,1.651,1.6625,1.6836,1.7175,1.7297,1.7446,1.7595,1.7792,1.7915,1.7915,1.7915,1.7915,1.7915,1.7616,1.7473,1.7412,1.7168,1.7026,1.6978,1.6978,1.6978,1.6978,1.6978,1.7066,1.7209,1.7358,1.746,1.7609,1.7812,1.7915,1.7915,1.7915,1.7915,1.7915,1.7915,1.7915,1.7915,1.7915,1.7915,1.7915,1.7915,1.7915,1.7915,1.7915,1.7915,1.7915,1.7915,1.7915,1.95,2.5231,2.6529,2.8253,3.4055,3.5191,3.5191,3.5191,3.5191,3.5191,3.5191,3.5191,3.5191,3.5191,3.5191,3.5191,3.5191,3.5191,3.5191,3.5191,3.5191,3.5191,3.5191,3.5191,3.5324,3.5565,3.5578,3.5912,3.65,3.65,3.6647,3.6885,3.6885,3.6885,3.6885,3.6885,3.6885,1.2072,1.2013,1.2427,1.2732,1.3112,1.3498,1.3844,1.4231,1.4584,1.4841,1.5011,1.5173,1.5174,1.5309,1.5459,1.5566,1.5757,1.5956,1.6062,1.6083,1.6083,1.6083,1.6083,1.6103,1.6151,1.6252,1.6388,1.6533,1.6646,0.0,1.7107,1.7216,1.7385,1.7595,1.7738,1.7812,1.7915,1.7915,1.7915,1.7915,1.7561,1.7419,1.7412,1.7114,1.6978,1.6978,1.6978,1.6978,1.6978,1.6978,1.7093,1.7277,1.7378,1.7541,1.7738,1.7826,1.7915,1.7915,1.7915,1.7915,1.7915,1.7915,1.7915,1.7915,1.7915,1.7915,1.7915,1.7915,1.7915,1.7915,1.7915,1.7915,1.7915,1.7915,1.7915,1.9232,2.4046,2.5826,2.8253,3.4055,3.5191,3.5191,3.5191,3.5191,3.5191,3.5191,3.5191,3.5191,3.5191,3.5191,3.5191,3.5191,3.5191,3.5191,3.5191,3.5191,3.5191,3.5191,3.5191,3.5364,3.5765,3.5778,3.6059,3.6592,3.6647,3.6699,3.6885,3.6885,3.6885,3.6885,3.6885,3.6885,0.0,0.0,0.0,1.2427,1.2732,1.3118,1.3477,1.3858,1.4197,1.4593,1.4855,1.5011,1.5153,1.5303,1.5452,1.556,1.5757,1.5956,1.6105,1.6076,1.6083,1.6083,1.6083,1.6144,1.6293,1.632,1.6442,1.6675,1.6897,1.6978,1.6978,1.7256,1.7487,1.7595,1.7595,1.7717,1.7915,1.786,1.786,1.7902,1.7555,1.7412,1.7405,1.7114,1.6978,1.6978,1.6978,1.6978,1.6978,1.6985,1.7161,1.7419,1.7426,1.7609,1.7915,1.7915,1.7915,1.7915,1.7915,1.7915,1.7915,1.7915,1.7915,1.7915,1.7915,1.7915,1.7915,1.7915,1.7915,1.7915,1.7915,1.7915,1.7915,1.7915,1.7915,1.8736,2.1664,2.4535,2.8199,3.3949,3.5138,3.5191,3.5191,3.5191,3.5191,3.5191,3.5191,3.5191,3.5191,3.5191,3.5191,3.5191,3.5191,3.5191,3.5191,3.5191,3.5191,3.5191,3.5191,3.5458,3.61,3.6072,3.6353,3.6885,3.6885,3.6885,3.6885,3.6885,3.6885,3.6885,3.6885,3.6885,1.1516,0.0,0.0,0.0,0.0,0.0,1.339,1.3777,1.4214,1.4502,1.4699,1.4882,1.5133,1.5215,1.5296,1.5452,1.5689,1.5915,1.5962,1.6058,1.6083,1.6083,1.6178,1.6266,1.6307,1.6503,1.6608,0.0,1.6897,1.6978,1.6978,1.7154,1.7378,1.7595,1.7595,1.7717,1.7915,1.7758,1.7704,1.7704,1.7399,1.7256,1.7249,1.7066,1.6978,1.6978,1.6978,1.6978,1.6992,1.7093,1.7249,1.7433,1.7487,1.7704,1.7915,1.7915,1.7915,1.7915,1.7915,1.7915,1.7915,1.7915,1.7915,1.7915,1.7915,1.7915,1.7915,1.7915,1.7915,1.7915,1.7915,1.7915,1.7915,1.7915,1.7915,1.9272,2.4263,2.5934,2.7607,3.1391,3.3778,3.5191,3.5191,3.5191,3.5191,3.5191,3.5191,3.5191,3.5191,3.5191,3.5191,3.5191,3.5191,3.5191,3.5191,3.5191,3.5191,3.5191,3.5191,3.5458,3.61,3.6072,3.6353,3.6885,3.6885,3.6885,3.6885,3.6885,3.6885,3.6885,3.6885,3.6885,1.1389,1.1757,1.2139,1.2277,0.0,0.0,1.3166,1.3519,1.3892,1.4251,1.4448,1.4665,1.5025,1.5139,1.516,1.5377,1.5554,1.5689,1.5757,1.5893,1.6037,1.6037,1.6123,1.6239,1.63,1.6463,1.6567,1.6689,1.6836,1.691,1.6978,1.706,1.7243,1.7487,1.744,1.7561,1.7772,1.7629,1.75,1.7494,1.7311,1.7195,1.7188,1.7046,1.6978,1.6978,1.6978,1.6978,1.6998,1.7202,1.7338,1.7439,1.7534,1.7738,1.7915,1.7915,1.7915,1.7915,1.7915,1.7915,1.7915,1.7915,1.7915,1.7915,1.7915,1.7915,1.7915,1.7915,1.7915,1.7915,1.7915,1.7915,1.7915,1.7915,1.7915,1.9177,2.372,2.5664,2.7715,3.1882,3.4055,3.5191,3.5191,3.5191,3.5191,3.5191,3.5191,3.5191,3.5191,3.5191,3.5191,3.5191,3.5191,3.5191,3.5191,3.5191,3.5191,3.5191,3.5191,3.5404,3.5872,3.6006,3.6286,3.6699,3.6861,3.6885,3.6885,3.6885,3.6885,3.6885,3.6885,3.6885,1.1409,1.1771,1.2118,1.2084,1.2372,0.0,1.2901,1.3152,1.3478,1.3933,1.4129,1.4367,1.4881,1.4909,1.4997,1.5309,1.5364,1.5425,1.5566,1.575,1.5888,1.5901,1.6024,1.6123,1.6293,1.6307,1.6422,1.6655,1.6689,1.6763,1.6971,1.6978,1.7107,1.7385,1.7263,1.7331,1.7568,1.7419,1.7399,1.7392,1.7243,1.7168,1.7161,1.7039,1.6978,1.6978,1.6978,1.6992,1.7026,1.7304,1.7419,1.7439,1.7554,1.7758,1.7915,1.7915,1.7915,1.7915,1.7915,1.7915,1.7915,1.7915,1.7915,1.7915,1.7915,1.7915,1.7915,1.7915,1.7915,1.7915,1.7915,1.7915,1.7915,1.7915,1.8129,1.9177,2.2038,2.496,2.8629,3.4108,3.5191,3.5191,3.5191,3.5191,3.5191,3.5191,3.5191,3.5191,3.5191,3.5191,3.5191,3.5191,3.5191,3.5191,3.5191,3.5191,3.5191,3.5191,3.5191,3.5324,3.5565,3.5912,3.6206,3.65,3.6739,3.6885,3.6885,3.6885,3.6885,3.6885,3.6885,3.6885,1.1525,1.1809,1.2189,1.1938,1.2216,0.0,1.2739,1.2915,1.3214,1.362,1.3736,1.3889,1.4496,1.4509,1.457,1.4991,1.5059,1.5194,1.5539,1.5614,1.5723,1.5888,1.5928,1.6008,1.6286,1.6307,1.6381,1.6551,1.6628,1.6763,1.6971,1.6978,1.706,1.7229,1.7209,1.7283,1.746,1.7311,1.7236,1.7236,1.7087,1.7019,1.7019,1.6992,1.6978,1.6978,1.6978,1.7046,1.7168,1.7344,1.7419,1.7446,1.7724,1.7846,1.7915,1.7915,1.7915,1.7915,1.7915,1.7915,1.7915,1.7915,1.7915,1.7915,1.7915,1.7915,1.7915,1.7915,1.7915,1.7915,1.7915,1.7915,1.7915,1.7915,1.965,2.2156,2.5014,2.7984,3.1059,3.4544,3.5191,3.5191,3.5191,3.5191,3.5191,3.5191,3.5191,3.5191,3.5191,3.5191,3.5191,3.5191,3.5191,3.5191,3.5191,3.5191,3.5191,3.5191,3.5191,3.5324,3.5565,3.5912,3.6206,3.65,3.6739,3.6885,3.6885,3.6885,3.6885,3.6885,3.6885,3.6885,1.1846,1.2036,1.225,1.2094,1.2284,0.0,0.0,1.2739,1.2935,1.3234,1.3349,1.3559,1.4082,1.4122,1.4245,1.4774,1.4794,1.4875,1.5255,1.5451,1.5621,1.5737,1.5879,1.6029,1.6185,1.6198,1.6259,1.6402,1.65,1.6615,1.6748,1.6822,1.6937,1.708,1.7087,1.7154,1.7304,1.7161,1.7087,1.7087,1.7012,1.6978,1.6978,1.6978,1.6978,1.6978,1.6978,1.706,1.7202,1.7358,1.7467,1.7555,1.7772,1.7915,1.7915,1.7915,1.7915,1.7915,1.7915,1.7915,1.7915,1.7915,1.7915,1.7915,1.7915,1.7915,1.7915,1.7915,1.7915,1.7915,1.7915,1.7915,1.7915,1.7915,2.009,2.2966,2.588,2.8843,3.1764,3.465,3.5191,3.5191,3.5191,3.5191,3.5191,3.5191,3.5191,3.5191,3.5191,3.5191,3.5191,3.5191,3.5191,3.5191,3.5191,3.5191,3.5191,3.5191,3.5191,3.5257,3.5404,3.5832,3.6273,3.6672,3.6805,3.6885,3.6885,3.6885,3.6885,3.6885,3.6885,3.6885,1.2132,1.2234,1.2311,1.2223,1.2352,1.2501,0.0,0.0,0.0,1.2888,1.305,1.3214,1.3592,1.3666,1.3829,1.4315,1.4407,1.4462,1.4679,1.5147,1.5438,1.5499,1.5764,1.594,1.6029,1.609,1.6191,1.6341,1.6456,1.6551,1.6605,1.6648,1.677,1.6978,1.6978,1.7032,1.7148,1.7039,1.6978,1.6978,1.6978,1.6978,1.6978,1.6978,1.6978,1.6978,1.6978,1.708,1.7243,1.7372,1.7528,1.7649,1.7868,1.7915,1.7915,1.7915,1.7915,1.7915,1.7915,1.7915,1.7915,1.7915,1.7915,1.7915,1.7915,1.7915,1.7915,1.7915,1.7915,1.7915,1.7915,1.7915,1.8033,1.8626,2.0905,2.3828,2.6745,2.9658,3.2414,3.4755,3.5191,3.5191,3.5191,3.5191,3.5191,3.5191,3.5191,3.5191,3.5191,3.5191,3.5191,3.5191,3.5191,3.5191,3.5191,3.5191,3.5191,3.5191,3.5191,3.5191,3.5191,3.5765,3.6353,3.6885,3.6885,3.6885,3.6885,3.6885,3.6885,3.6885,3.6885,3.6885,1.2247,1.2264,1.2379,1.1949,1.2196,1.2501,1.2501,0.0,1.2569,1.2686,0.0,1.2874,1.3186,0.0,0.0,1.3342,1.3668,1.3842,1.3754,1.4349,1.489,1.5201,1.5262,1.5493,1.5888,1.6123,1.6341,1.6483,1.651,1.6639,1.6917,1.6815,1.677,1.6978,1.6978,1.6985,1.7005,1.6992,1.6978,1.6978,1.6978,1.6978,1.6978,1.6978,1.6978,1.6978,1.6978,1.7134,1.7399,1.7412,1.7582,1.7846,1.786,1.7915,1.7915,1.7915,1.7915,1.7915,1.7915,1.7915,1.7915,1.7915,1.7915,1.7915,1.7915,1.7915,1.7915,1.7915,1.7915,1.7915,1.7915,1.7915,1.8564,2.1077,2.3883,2.6799,2.9765,3.2692,3.4808,3.5138,3.5191,3.5191,3.5191,3.5191,3.5191,3.5191,3.5191,3.5191,3.5191,3.5191,3.5191,3.5191,3.5191,3.5191,3.5191,3.5191,3.5191,3.5191,3.5191,3.5191,3.5191,3.5765,3.6353,3.6885,3.6885,3.6885,3.6885,3.6885,3.6885,3.6885,3.6885,3.6885,1.2839,1.2778,1.2698,1.2381,1.2427,1.2501,1.2501,1.2501,1.2522,1.2583,0.0,0.0,0.0,0.0,0.0,0.0,1.3329,0.0,1.3492,1.3802,1.4255,1.4862,0.0,0.0,1.5696,0.0,0.0,0.0,1.6395,1.6456,1.6585,1.6605,1.6594,1.6714,1.689,1.6978,1.6978,1.6978,1.6978,1.6978,1.6978,1.6978,1.6978,1.6978,1.6978,1.6985,1.7066,1.7222,1.7426,1.746,1.767,1.7915,1.7915,1.7915,1.7915,1.7915,1.7915,1.7915,1.7915,1.7915,1.7915,1.7915,1.7915,1.7915,1.7915,1.7915,1.7915,1.7915,1.7915,1.7915,1.7915,1.7915,1.8626,2.1516,2.4426,2.7338,3.0247,3.3182,3.5191,3.5191,3.5191,3.5191,3.5191,3.5191,3.5191,3.5191,3.5191,3.5191,3.5191,3.5191,3.5191,3.5191,3.5191,3.5191,3.5191,3.5191,3.5191,3.5191,3.5191,3.5351,3.5685,3.5993,3.6353,3.6885,3.6885,3.6885,3.6885,3.7128,3.7195,3.7195,3.7195,3.7275,1.3275,1.3173,1.3023,1.2834,1.2712,1.263,1.263,1.2596,1.2562,1.2562,0.0,0.0,0.0,0.0,1.3333,1.2966,0.0,1.3064,1.3091,1.3329,1.3749,1.437,0.0,0.0,0.0,0.0,0.0,0.0,0.0,1.6368,1.6368,1.6463,1.6537,1.6533,1.6842,1.6978,1.6978,1.6978,1.6978,1.6978,1.6978,1.6978,1.6978,1.6978,1.7005,1.7046,1.7148,1.7304,1.744,1.7548,1.7738,1.7915,1.7915,1.7915,1.7915,1.7915,1.7915,1.7915,1.7915,1.7915,1.7915,1.7915,1.7915,1.7915,1.7915,1.7915,1.7915,1.7915,1.7915,1.7915,1.7915,1.7915,1.8626,2.1516,2.4426,2.7338,3.0247,3.3182,3.5191,3.5191,3.5191,3.5191,3.5191,3.5191,3.5191,3.5191,3.5191,3.5191,3.5191,3.5191,3.5191,3.5191,3.5191,3.5191,3.5191,3.5191,3.5191,3.5191,3.5191,3.5418,3.5925,3.6032,3.6313,3.6794,3.6981,3.7048,3.7048,3.7342,3.7585,3.7635,3.7529,3.7595,1.3437,1.3281,1.3173,1.303,1.2989,1.2989,1.2989,1.2827,1.2686,1.2686,1.4136,1.4821,1.2849,1.4107,1.4686,1.2473,1.2461,0.0,0.0,1.282,1.3356,1.3774,0.0,0.0,0.0,0.0,0.0,0.0,0.0,0.0,1.6517,1.6517,1.654,1.6682,1.6897,1.6978,1.6978,1.6978,1.6978,1.6978,1.6978,1.6978,1.6978,1.6978,1.7053,1.7182,1.7188,1.7365,1.7595,1.7595,1.7738,1.7915,1.7915,1.7915,1.7915,1.7915,1.7915,1.7915,1.7915,1.7915,1.7915,1.7915,1.7915,1.7915,1.7915,1.7915,1.7915,1.7915,1.7915,1.7915,1.7915,1.7915,1.8626,2.1516,2.4426,2.7338,3.0247,3.3182,3.5191,3.5191,3.5191,3.5191,3.5191,3.5191,3.5191,3.5191,3.5191,3.5191,3.5191,3.5191,3.5191,3.5191,3.5191,3.5191,3.5191,3.5191,3.5191,3.5191,3.5191,3.5324,3.5578,3.5925,3.6219,3.6513,3.7088,3.7382,3.7382,3.7676,3.7956,3.8281,3.7929,3.7809,0.0,0.0,1.358,1.3437,0.0,0.0,0.0,1.3214,1.3146,1.3044,1.3375,0.0,0.0,1.3106,1.3262,1.248,1.2481,1.2542,0.0,0.0,0.0,0.0,0.0,0.0,0.0,0.0,0.0,0.0,0.0,0.0,0.0,1.6469,1.6493,1.6547,1.6849,1.6978,1.6978,1.6978,1.6978,1.6978,1.6978,1.6978,1.6985,1.708,1.7148,1.7202,1.7405,1.75,1.7595,1.7758,1.7826,1.7915,1.7915,1.7915,1.7915,1.7915,1.7915,1.7915,1.7915,1.7915,1.7915,1.7915,1.7915,1.7915,1.7915,1.7915,1.7915,1.7915,1.7915,1.7915,1.7915,1.7915,1.9115,2.3937,2.5772,2.7823,3.2692,3.4491,3.5191,3.5191,3.5191,3.5191,3.5191,3.5191,3.5191,3.5191,3.5191,3.5191,3.5191,3.5191,3.5191,3.5191,3.5191,3.5191,3.5191,3.5191,3.5191,3.5191,3.5191,3.5324,3.5565,3.6099,3.65,3.6739,3.7382,3.7676,3.7676,3.7969,3.82,3.8321,3.8357,3.8379,1.4482,1.4187,0.0,1.391,1.3865,0.0,1.3729,0.0,1.3532,0.0,0.0,0.0,0.0,1.3386,1.351,1.2782,1.2617,1.2562,0.0,1.2583,0.0,0.0,0.0,0.0,0.0,0.0,0.0,0.0,0.0,0.0,0.0,0.0,1.6469,1.6517,1.6768,1.6924,1.6978,1.6978,1.6978,1.6978,1.6978,1.6978,1.6985,1.7127,1.7222,1.729,1.7487,1.7629,1.7738,1.7826,1.7915,1.7915,1.7915,1.7915,1.7915,1.7915,1.7915,1.7915,1.7915,1.7915,1.7915,1.7915,1.7915,1.7915,1.7915,1.7915,1.7915,1.7915,1.7915,1.7915,1.7915,1.8681,2.0372,2.41,2.6583,2.9112,3.2851,3.4491,3.5191,3.5191,3.5191,3.5191,3.5191,3.5191,3.5191,3.5191,3.5191,3.5191,3.5191,3.5191,3.5191,3.5191,3.5191,3.5191,3.5191,3.5191,3.5191,3.5191,3.5191,3.5284,3.5471,3.6139,3.654,3.662,3.7529,3.7929,3.7809,3.8223,3.8437,3.8437,3.8624,3.8718]},{"header":{"parameterUnit":"m.s-1","parameterCategory":1,"la1":30.6,"la2":29.2853,"lo1":-89.7004,"lo2":-87.6739,"dx":0.0162,"dy":0.0183,"nx":112,"ny":82,"refTime":"2022-11-05T18:00:00:Z","depth":0,"parameterNumber":3,"parameterNumberName":"V-component_of_WINDS"},"data":[0.0,0.0,0.0,0.0,0.0,0.0,0.0,0.0,0.0,0.0,0.0,0.0,0.0,0.0,0.0,0.0,0.0,0.0,0.0,0.0,0.0,0.0,0.0,0.0,0.0,0.0,0.0,0.0,0.0,0.0,0.0,0.0,0.0,0.0,0.0,0.0,0.0,0.0,0.0,0.0,0.0,0.0,0.0,0.0,0.0,0.0,0.0,0.0,0.0,0.0,0.0,0.0,0.0,0.0,0.0,0.0,0.0,0.0,0.0,0.0,0.0,0.0,0.0,0.0,0.0,0.0,0.0,0.0,0.0,0.0,0.0,0.0,0.0,0.0,0.0,0.0,0.0,0.0,0.0,0.0,0.0,0.0,0.0,0.0,0.0,0.0,0.0,0.0,0.0,0.0,5.2491,5.3801,5.4646,5.5364,5.5908,5.5459,5.4202,5.1988,0.0,0.0,0.0,0.0,0.0,0.0,0.0,0.0,0.0,0.0,0.0,0.0,0.0,0.0,0.0,0.0,0.0,0.0,0.0,0.0,0.0,0.0,0.0,0.0,0.0,0.0,0.0,0.0,0.0,0.0,0.0,0.0,0.0,0.0,0.0,0.0,0.0,0.0,0.0,0.0,0.0,0.0,0.0,0.0,0.0,0.0,0.0,0.0,0.0,0.0,0.0,0.0,0.0,0.0,0.0,0.0,0.0,0.0,0.0,0.0,0.0,0.0,0.0,0.0,0.0,0.0,0.0,0.0,0.0,0.0,0.0,0.0,0.0,0.0,0.0,0.0,0.0,0.0,0.0,0.0,0.0,0.0,0.0,0.0,0.0,0.0,0.0,0.0,0.0,0.0,0.0,0.0,0.0,0.0,0.0,0.0,0.0,0.0,0.0,0.0,0.0,0.0,0.0,0.0,5.3345,5.6895,5.7414,5.7537,5.7629,5.7549,5.5658,5.1402,0.0,0.0,0.0,0.0,0.0,0.0,0.0,0.0,0.0,0.0,0.0,0.0,0.0,0.0,0.0,0.0,0.0,0.0,0.0,0.0,0.0,0.0,0.0,0.0,0.0,0.0,0.0,0.0,0.0,0.0,0.0,0.0,0.0,0.0,0.0,0.0,0.0,0.0,0.0,0.0,0.0,0.0,0.0,0.0,0.0,0.0,0.0,0.0,0.0,0.0,0.0,0.0,0.0,0.0,0.0,0.0,0.0,0.0,0.0,0.0,0.0,0.0,0.0,0.0,0.0,0.0,0.0,0.0,0.0,0.0,0.0,0.0,0.0,0.0,0.0,0.0,0.0,0.0,0.0,0.0,0.0,0.0,0.0,0.0,0.0,0.0,0.0,0.0,0.0,0.0,0.0,0.0,0.0,0.0,0.0,0.0,0.0,0.0,0.0,0.0,0.0,0.0,0.0,5.3408,5.5794,5.8951,5.9318,5.9134,5.8682,5.8646,5.6793,5.2477,5.2134,0.0,0.0,0.0,0.0,0.0,0.0,0.0,0.0,0.0,0.0,0.0,0.0,0.0,0.0,0.0,0.0,0.0,0.0,0.0,0.0,0.0,0.0,0.0,0.0,0.0,0.0,0.0,0.0,0.0,0.0,0.0,0.0,0.0,0.0,0.0,0.0,0.0,0.0,0.0,0.0,0.0,0.0,0.0,0.0,0.0,0.0,0.0,0.0,0.0,0.0,0.0,0.0,0.0,0.0,0.0,0.0,0.0,0.0,0.0,0.0,0.0,0.0,0.0,0.0,0.0,0.0,0.0,0.0,0.0,0.0,0.0,0.0,0.0,0.0,0.0,0.0,0.0,0.0,0.0,0.0,0.0,0.0,0.0,0.0,0.0,0.0,0.0,0.0,0.0,0.0,0.0,0.0,0.0,0.0,0.0,0.0,0.0,0.0,0.0,0.0,0.0,0.0,5.6345,5.8033,6.0419,6.0676,6.0529,6.0077,5.9893,5.8058,5.4021,5.3581,0.0,0.0,0.0,0.0,0.0,0.0,0.0,0.0,0.0,0.0,0.0,0.0,0.0,0.0,0.0,0.0,0.0,0.0,0.0,0.0,0.0,0.0,0.0,0.0,0.0,0.0,0.0,0.0,0.0,0.0,0.0,0.0,0.0,0.0,0.0,0.0,0.0,0.0,0.0,0.0,0.0,0.0,0.0,0.0,0.0,0.0,0.0,0.0,0.0,0.0,0.0,0.0,0.0,0.0,0.0,0.0,0.0,0.0,0.0,0.0,0.0,0.0,0.0,0.0,0.0,0.0,0.0,0.0,0.0,0.0,0.0,0.0,0.0,0.0,0.0,0.0,0.0,0.0,0.0,0.0,0.0,0.0,0.0,0.0,0.0,0.0,0.0,0.0,0.0,0.0,0.0,0.0,0.0,0.0,0.0,0.0,0.0,0.0,0.0,0.0,0.0,0.0,5.6492,5.8841,6.1263,6.1533,6.1814,6.2499,6.1851,5.9697,5.5695,5.473,0.0,0.0,0.0,0.0,0.0,0.0,0.0,0.0,0.0,0.0,0.0,0.0,0.0,0.0,0.0,0.0,0.0,0.0,0.0,0.0,0.0,0.0,0.0,0.0,0.0,0.0,0.0,0.0,0.0,0.0,0.0,0.0,0.0,0.0,0.0,0.0,0.0,0.0,0.0,0.0,0.0,0.0,0.0,0.0,0.0,0.0,0.0,0.0,0.0,0.0,0.0,0.0,0.0,0.0,0.0,0.0,0.0,0.0,0.0,0.0,0.0,0.0,0.0,0.0,0.0,0.0,0.0,0.0,0.0,0.0,0.0,0.0,0.0,0.0,0.0,0.0,0.0,0.0,0.0,0.0,0.0,0.0,0.0,0.0,0.0,0.0,0.0,0.0,0.0,0.0,0.0,0.0,0.0,0.0,0.0,0.0,0.0,0.0,0.0,0.0,0.0,0.0,5.8327,6.0639,6.3613,6.2976,6.2695,6.3539,6.2365,6.0089,5.6565,0.0,0.0,0.0,0.0,0.0,0.0,0.0,0.0,0.0,0.0,0.0,0.0,0.0,0.0,0.0,0.0,0.0,0.0,0.0,0.0,0.0,0.0,0.0,0.0,0.0,0.0,0.0,0.0,0.0,0.0,0.0,0.0,0.0,0.0,0.0,0.0,0.0,0.0,0.0,0.0,0.0,0.0,0.0,0.0,0.0,0.0,0.0,0.0,0.0,0.0,0.0,0.0,0.0,0.0,0.0,0.0,0.0,0.0,0.0,0.0,0.0,0.0,0.0,0.0,0.0,0.0,0.0,0.0,0.0,0.0,0.0,0.0,0.0,0.0,0.0,0.0,0.0,0.0,0.0,0.0,0.0,0.0,0.0,0.0,0.0,0.0,0.0,0.0,0.0,0.0,0.0,0.0,0.0,0.0,0.0,0.0,0.0,0.0,0.0,0.0,0.0,0.0,5.7629,5.9612,6.1961,6.4995,6.404,6.3649,6.4763,6.3576,6.1484,5.851,0.0,0.0,0.0,0.0,0.0,0.0,0.0,0.0,0.0,0.0,0.0,0.0,0.0,0.0,0.0,0.0,0.0,0.0,0.0,0.0,0.0,0.0,0.0,0.0,0.0,0.0,0.0,0.0,0.0,0.0,0.0,0.0,0.0,0.0,0.0,0.0,0.0,0.0,0.0,0.0,0.0,0.0,0.0,0.0,0.0,0.0,0.0,0.0,0.0,0.0,0.0,0.0,0.0,0.0,0.0,0.0,0.0,0.0,0.0,0.0,0.0,0.0,0.0,0.0,0.0,0.0,0.0,0.0,0.0,0.0,0.0,0.0,0.0,0.0,0.0,0.0,0.0,0.0,0.0,0.0,0.0,0.0,0.0,0.0,0.0,0.0,0.0,0.0,0.0,0.0,0.0,0.0,0.0,0.0,0.0,0.0,0.0,0.0,0.0,0.0,0.0,0.0,5.774,6.0162,6.2585,6.5068,6.4604,6.4763,6.6402,6.5765,6.4237,0.0,0.0,0.0,0.0,0.0,0.0,0.0,0.0,0.0,0.0,0.0,0.0,0.0,0.0,0.0,0.0,0.0,0.0,0.0,0.0,0.0,0.0,0.0,0.0,0.0,0.0,0.0,0.0,0.0,0.0,0.0,0.0,0.0,0.0,0.0,0.0,0.0,0.0,0.0,0.0,0.0,0.0,0.0,0.0,0.0,0.0,0.0,0.0,0.0,0.0,0.0,0.0,0.0,0.0,0.0,0.0,0.0,0.0,0.0,0.0,0.0,0.0,0.0,0.0,0.0,0.0,0.0,0.0,0.0,0.0,0.0,0.0,0.0,0.0,0.0,0.0,0.0,0.0,0.0,0.0,0.0,0.0,0.0,0.0,0.0,0.0,0.0,0.0,0.0,0.0,0.0,0.0,0.0,0.0,0.0,0.0,0.0,0.0,0.0,0.0,0.0,0.0,0.0,6.0248,6.2695,6.5141,6.7564,6.6096,6.5815,6.8017,6.6389,6.4751,6.3442,0.0,0.0,0.0,0.0,0.0,0.0,0.0,0.0,0.0,0.0,0.0,0.0,0.0,0.0,0.0,0.0,0.0,0.0,0.0,0.0,0.0,0.0,0.0,0.0,0.0,0.0,0.0,0.0,0.0,0.0,0.0,0.0,0.0,0.0,0.0,0.0,0.0,0.0,0.0,0.0,0.0,0.0,0.0,0.0,0.0,0.0,0.0,0.0,0.0,0.0,0.0,0.0,0.0,0.0,0.0,0.0,0.0,0.0,0.0,0.0,0.0,0.0,0.0,0.0,0.0,0.0,0.0,0.0,0.0,0.0,0.0,0.0,0.0,0.0,0.0,0.0,0.0,0.0,0.0,0.0,0.0,0.0,0.0,0.0,0.0,0.0,0.0,0.0,0.0,0.0,0.0,0.0,0.0,0.0,0.0,0.0,0.0,0.0,0.0,0.0,0.0,0.0,6.1337,6.4053,6.6586,6.8665,6.76,6.7307,6.8775,6.7564,6.6109,6.4677,0.0,0.0,0.0,0.0,0.0,0.0,0.0,0.0,0.0,0.0,0.0,0.0,0.0,0.0,0.0,0.0,0.0,0.0,0.0,0.0,0.0,0.0,0.0,0.0,0.0,0.0,0.0,0.0,0.0,0.0,0.0,0.0,0.0,0.0,0.0,0.0,0.0,0.0,0.0,0.0,0.0,0.0,0.0,0.0,0.0,0.0,0.0,0.0,0.0,0.0,0.0,0.0,0.0,0.0,0.0,0.0,0.0,0.0,0.0,0.0,0.0,0.0,0.0,0.0,0.0,0.0,0.0,0.0,0.0,0.0,0.0,0.0,0.0,0.0,0.0,0.0,0.0,0.0,0.0,0.0,0.0,0.0,0.0,0.0,0.0,0.0,0.0,0.0,0.0,0.0,0.0,0.0,0.0,0.0,0.0,0.0,0.0,0.0,0.0,0.0,0.0,0.0,6.163,6.4677,6.7357,6.8958,6.9068,6.9082,6.9215,6.9032,6.7981,6.5765,0.0,0.0,0.0,0.0,0.0,0.0,0.0,0.0,0.0,0.0,0.0,0.0,0.0,0.0,0.0,0.0,0.0,0.0,0.0,0.0,0.0,0.0,0.0,0.0,0.0,0.0,0.0,0.0,0.0,0.0,0.0,0.0,0.0,0.0,0.0,0.0,0.0,0.0,0.0,0.0,0.0,0.0,0.0,0.0,0.0,0.0,0.0,0.0,0.0,0.0,0.0,0.0,0.0,0.0,0.0,0.0,0.0,0.0,0.0,0.0,4.7122,0.0,0.0,0.0,0.0,0.0,0.0,0.0,0.0,0.0,0.0,0.0,0.0,0.0,0.0,0.0,0.0,0.0,0.0,0.0,0.0,0.0,0.0,0.0,0.0,0.0,0.0,0.0,0.0,0.0,0.0,0.0,0.0,0.0,0.0,0.0,0.0,0.0,0.0,0.0,0.0,0.0,6.3429,6.6402,6.8995,7.061,7.022,7.0367,7.1615,7.0,6.8665,6.8151,6.6022,0.0,0.0,0.0,0.0,0.0,0.0,0.0,0.0,0.0,0.0,0.0,0.0,0.0,0.0,0.0,0.0,0.0,0.0,0.0,0.0,0.0,0.0,0.0,0.0,0.0,0.0,0.0,0.0,0.0,0.0,0.0,0.0,0.0,0.0,0.0,0.0,0.0,0.0,0.0,0.0,0.0,0.0,0.0,0.0,0.0,0.0,0.0,0.0,0.0,0.0,0.0,0.0,0.0,0.0,0.0,0.0,0.0,0.0,0.0,0.0,4.937,0.0,0.0,0.0,0.0,0.0,0.0,0.0,0.0,0.0,0.0,0.0,0.0,0.0,0.0,0.0,0.0,0.0,0.0,0.0,0.0,0.0,0.0,0.0,0.0,0.0,0.0,0.0,0.0,0.0,0.0,0.0,0.0,0.0,0.0,0.0,0.0,0.0,0.0,0.0,0.0,6.4604,6.782,7.0499,7.1747,7.2188,7.2606,7.3046,7.1578,7.0293,6.9522,6.7577,0.0,0.0,0.0,0.0,0.0,0.0,0.0,0.0,0.0,0.0,0.0,0.0,0.0,0.0,0.0,0.0,0.0,0.0,0.0,0.0,0.0,0.0,0.0,0.0,0.0,0.0,0.0,0.0,0.0,0.0,0.0,0.0,0.0,0.0,0.0,0.0,0.0,0.0,0.0,0.0,0.0,0.0,0.0,0.0,0.0,0.0,0.0,0.0,0.0,0.0,0.0,0.0,0.0,5.6319,5.6503,5.665,5.665,5.7457,5.8731,5.6565,5.5354,5.462,5.2097,0.0,0.0,0.0,0.0,0.0,0.0,0.0,0.0,0.0,0.0,0.0,0.0,0.0,0.0,0.0,0.0,0.0,0.0,0.0,0.0,0.0,0.0,0.0,0.0,5.971,6.0591,0.0,0.0,0.0,0.0,0.0,0.0,0.0,0.0,0.0,0.0,0.0,0.0,6.5912,6.9178,7.1931,7.301,7.4331,7.4918,7.4368,7.345,7.2275,7.0807,6.9242,6.7614,0.0,0.0,0.0,0.0,0.0,0.0,0.0,0.0,0.0,0.0,0.0,0.0,0.0,0.0,0.0,0.0,0.0,0.0,0.0,0.0,0.0,0.0,0.0,0.0,0.0,0.0,0.0,0.0,0.0,0.0,0.0,0.0,4.2515,4.2845,0.0,0.0,0.0,0.0,0.0,0.0,0.0,0.0,0.0,0.0,0.0,0.0,0.0,5.4447,5.4106,5.6381,5.7593,5.7703,5.9098,6.0126,6.0798,6.0798,6.13,6.2095,6.108,0.0,5.648,5.6785,0.0,0.0,0.0,0.0,0.0,0.0,0.0,0.0,0.0,0.0,0.0,0.0,0.0,0.0,0.0,0.0,0.0,0.0,0.0,0.0,0.0,0.0,6.3809,6.5791,6.6416,6.6916,0.0,6.398,5.971,5.9013,6.0481,0.0,0.0,0.0,0.0,0.0,0.0,0.0,6.8408,7.0734,7.3193,7.5395,7.5836,7.6203,7.6775,7.5454,7.4221,7.3266,7.1725,7.0096,6.8481,6.688,0.0,0.0,0.0,0.0,0.0,0.0,0.0,0.0,0.0,0.0,0.0,0.0,0.0,0.0,0.0,0.0,0.0,0.0,0.0,0.0,0.0,0.0,0.0,0.0,0.0,0.0,0.0,0.0,0.0,4.2653,4.5002,4.548,4.6241,4.6718,0.0,0.0,0.0,0.0,0.0,0.0,0.0,0.0,0.0,5.5354,5.6393,5.7666,5.9123,5.9722,6.0505,6.1459,6.2144,6.2915,6.3686,6.4163,6.4787,6.5521,6.5167,6.398,6.2071,5.9673,5.8058,5.7068,0.0,0.0,0.0,0.0,5.6712,5.7251,5.8425,5.9134,5.9648,6.0456,0.0,0.0,0.0,0.0,0.0,0.0,0.0,0.0,0.0,0.0,6.7063,6.8128,6.8715,6.9229,6.9926,6.8238,6.6022,0.0,6.4457,6.5191,6.6059,0.0,0.0,0.0,0.0,7.0243,7.0243,7.2753,7.5102,7.6592,7.7635,7.8332,7.8699,7.7635,7.6607,7.5784,7.4206,7.2591,7.0991,6.8935,6.7357,0.0,0.0,0.0,0.0,0.0,0.0,0.0,0.0,0.0,0.0,0.0,0.0,0.0,0.0,0.0,0.0,0.0,0.0,0.0,0.0,0.0,0.0,0.0,0.0,0.0,0.0,0.0,0.0,4.581,4.7829,4.8847,4.9691,5.0251,0.0,0.0,0.0,0.0,0.0,0.0,5.6492,5.6907,5.7788,5.9171,5.9832,6.1227,6.3417,6.3246,6.3809,6.502,6.502,6.5338,6.5925,6.6769,6.743,6.8031,6.8214,6.7981,6.71,6.305,6.0994,6.0407,6.0015,5.9612,5.9281,5.9722,6.026,6.0921,6.2132,6.2952,6.3613,6.442,6.4517,6.4371,6.4371,0.0,0.0,0.0,0.0,6.6609,6.705,6.8641,7.0183,7.0403,7.1064,7.1688,7.1908,7.2408,7.2004,0.0,6.8311,6.8421,6.9619,0.0,0.0,0.0,0.0,7.2518,7.2518,7.4992,7.7121,7.8133,7.936,8.011,8.011,7.9543,7.8846,7.7986,7.6628,7.5139,7.3487,7.1505,7.0059,6.9229,0.0,0.0,0.0,0.0,0.0,0.0,0.0,0.0,0.0,0.0,0.0,0.0,0.0,0.0,0.0,0.0,0.0,0.0,0.0,0.0,0.0,0.0,0.0,0.0,0.0,0.0,0.0,0.0,0.0,5.3849,5.473,0.0,0.0,0.0,0.0,5.5401,5.6235,5.7398,5.8939,6.0456,6.1704,6.2536,6.4861,6.5778,6.5178,6.6659,6.7444,6.7517,6.7517,6.7554,6.7627,6.8421,6.8788,6.8898,6.9633,6.9963,6.9779,6.7994,6.5938,6.3919,6.464,6.3967,6.2756,6.4334,6.4958,6.5325,6.7637,6.8495,6.8678,6.9486,6.9229,6.8591,6.8591,6.8054,0.0,0.0,6.9816,7.022,7.1725,7.2789,7.3634,7.4426,7.5212,7.6019,7.6775,7.6959,7.5821,0.0,7.1711,7.2239,7.2312,0.0,7.3156,7.2496,7.4368,7.5873,7.5873,7.7378,7.9066,8.0645,8.0901,8.0938,8.0938,8.0901,8.0534,7.9743,7.8883,7.7671,7.5983,7.505,7.3156,7.011,6.9889,0.0,0.0,0.0,0.0,0.0,0.0,0.0,0.0,0.0,0.0,0.0,0.0,0.0,0.0,0.0,0.0,0.0,0.0,0.0,0.0,0.0,0.0,0.0,0.0,0.0,0.0,0.0,0.0,5.5108,5.6356,0.0,5.7556,5.8731,5.9477,5.9477,6.1227,6.2756,6.3833,6.442,6.5118,6.5925,6.732,6.8164,6.8385,6.9486,7.0293,7.077,7.077,7.1064,7.1592,7.1872,7.2275,7.2775,7.3068,7.2899,7.2349,7.1812,7.016,6.7981,6.8274,6.8017,6.7577,6.8164,6.8715,6.9288,7.0132,7.0793,7.1248,7.1541,7.1798,7.2092,7.2591,7.2569,7.2569,7.3634,7.3964,7.4074,7.4661,7.5836,7.6937,7.7194,7.7892,7.8552,7.8846,7.8919,7.8479,7.7047,7.5726,7.4992,7.5491,7.5395,7.5506,7.6313,7.7157,7.7708,7.7708,7.914,8.0351,8.0938,8.1452,8.1782,8.1782,8.1782,8.1415,8.0608,8.0314,7.9396,7.7781,7.6885,7.5674,7.4001,7.2936,7.1835,0.0,0.0,0.0,0.0,0.0,0.0,0.0,0.0,0.0,0.0,0.0,0.0,0.0,0.0,0.0,0.0,0.0,0.0,0.0,0.0,0.0,0.0,0.0,0.0,0.0,5.4116,5.6308,5.7127,5.8621,5.9722,6.0027,6.1998,6.3246,6.3246,6.5044,6.6586,6.765,6.7724,6.8201,6.9265,7.011,7.077,7.1321,7.2386,7.3193,7.3707,7.4001,7.4404,7.4918,7.5212,7.5652,7.6166,7.646,7.624,7.5778,7.5778,7.4823,7.3244,7.1835,7.1321,7.1358,7.1908,7.2459,7.2958,7.3215,7.3656,7.4133,7.4133,7.4478,7.5028,7.5564,7.5711,7.5894,7.6717,7.6937,7.7011,7.7268,7.8369,7.9396,7.9396,8.0021,8.0624,8.0624,8.0624,8.0624,8.0624,7.8862,7.7524,7.8075,7.7708,7.7708,7.8862,7.925,7.9396,7.9396,8.0571,8.1415,8.1415,8.1893,8.2186,8.2186,8.2443,8.226,8.1452,8.1672,8.1085,7.947,7.914,7.8442,7.7378,7.5469,7.4368,7.4074,0.0,0.0,0.0,0.0,0.0,0.0,0.0,0.0,0.0,0.0,0.0,0.0,0.0,0.0,0.0,0.0,0.0,0.0,0.0,0.0,0.0,0.0,0.0,5.5915,5.6418,5.7838,6.0187,6.1912,6.3246,6.4103,6.5632,6.6623,6.6623,6.737,6.8545,7.011,7.022,7.0991,7.2569,7.3413,7.3854,7.3854,7.5432,7.6203,7.6203,7.6995,7.7399,7.7399,7.8259,7.8626,7.8662,7.9449,7.9816,7.9816,7.9816,7.9816,7.9412,7.5447,7.3905,7.4089,7.5652,7.6203,7.635,7.7105,7.7399,7.7399,7.7399,7.7399,7.7436,7.7436,7.7436,7.7619,7.8479,7.8699,7.8883,7.9669,8.0461,8.1085,8.1085,8.1672,8.226,8.226,8.226,8.226,8.226,8.1028,7.9926,7.9926,7.9926,7.9926,7.9963,8.0608,0.0,8.1122,8.1782,8.226,8.226,8.226,8.226,8.226,8.2994,8.3104,8.2333,8.303,8.272,8.1195,8.1856,8.1542,7.9926,7.7451,7.5836,7.5087,0.0,0.0,0.0,0.0,0.0,0.0,0.0,0.0,0.0,0.0,0.0,0.0,0.0,0.0,0.0,0.0,0.0,0.0,0.0,0.0,0.0,5.7398,5.8499,5.7483,5.9526,6.1398,6.2059,6.4114,6.5595,6.5815,6.7797,6.9119,6.9119,7.0403,7.1615,7.2657,7.3266,7.4037,7.5065,7.6497,7.7231,7.7231,7.8274,7.8788,7.8788,7.8993,7.9103,7.9103,7.9376,7.9486,7.9486,7.9706,7.9816,7.9816,7.9816,7.9816,7.9706,7.8568,7.8127,7.8201,7.8641,7.8788,7.8825,7.9029,7.9103,7.9103,7.9103,7.9507,7.9968,7.9968,8.0388,8.0901,8.1122,8.1195,8.1269,8.1505,8.215,8.272,8.272,8.3361,8.3948,8.3948,8.3948,8.3948,8.3948,8.3581,8.3104,8.2517,8.2406,8.2627,8.3177,8.3471,0.0,8.3618,8.3801,8.3948,8.3948,8.3948,8.3948,8.3948,8.4132,8.4168,8.3948,8.4168,8.4058,8.3618,8.3838,8.3177,8.1578,7.9743,7.8956,0.0,0.0,0.0,0.0,0.0,0.0,0.0,0.0,0.0,0.0,0.0,0.0,0.0,0.0,0.0,0.0,0.0,0.0,0.0,0.0,0.0,0.0,6.0199,6.1337,6.152,6.2866,6.3967,6.4297,6.6512,6.8017,6.8017,7.0183,7.1629,7.1629,7.3083,7.4368,7.5175,7.6019,7.6827,7.7598,7.8605,7.9103,7.9103,7.991,8.0277,8.0314,8.0661,8.0807,8.0807,8.0807,8.0807,8.0807,8.0807,8.0807,8.0807,8.0807,8.0807,0.0,0.0,0.0,0.0,0.0,8.0807,8.0807,8.0807,8.0807,8.0807,8.0807,8.1122,8.1562,8.1893,8.2333,8.2774,8.3104,8.3214,8.3214,8.3214,8.3544,8.3895,8.3895,8.4278,8.4609,8.4609,8.4609,8.4609,8.4609,8.4609,0.0,8.4425,8.4132,8.4058,8.4535,8.4609,8.4609,8.4609,8.4609,8.4609,8.4609,8.4609,8.4609,8.4609,8.4903,0.0,0.0,0.0,8.5086,8.5086,8.5086,0.0,0.0,0.0,0.0,0.0,0.0,0.0,0.0,7.4294,7.3766,0.0,0.0,0.0,0.0,0.0,0.0,0.0,0.0,0.0,0.0,0.0,0.0,0.0,0.0,0.0,0.0,6.3368,6.5057,6.6659,6.6439,6.6316,6.6843,6.8972,7.0403,7.0477,7.2679,7.4111,7.4111,7.5616,7.6827,7.7546,7.8405,0.0,0.0,0.0,8.0073,8.0073,8.0791,8.1158,8.1158,8.1856,8.2186,8.2186,8.2186,8.2186,8.2186,8.2186,8.226,8.2333,8.2333,8.237,8.237,8.1489,8.1158,8.1232,8.1929,8.226,8.2333,8.2333,0.0,0.0,8.248,8.248,8.259,8.3324,8.3528,8.3675,8.4389,8.4609,8.4609,8.4609,8.4682,8.4756,8.4756,8.4792,8.4866,8.4866,8.4939,8.5013,8.5013,8.5086,8.538,8.6077,8.538,8.4756,8.4866,8.4939,8.5013,8.5013,8.5086,8.5159,8.5159,0.0,0.0,8.5159,8.5783,8.5894,8.5196,8.582,8.6187,8.6187,8.6114,8.6094,8.6094,8.527,8.4535,8.3785,8.3104,8.2737,8.2663,7.9381,7.7913,0.0,0.0,0.0,0.0,0.0,0.0,0.0,0.0,0.0,0.0,0.0,0.0,0.0,0.0,0.0,6.3368,6.5534,6.759,6.9155,7.0403,7.0697,6.9522,7.0954,7.2275,7.2936,7.5212,7.6592,7.6592,7.8148,7.9155,7.9302,8.0094,8.0608,8.0755,8.1379,8.1746,8.1746,8.1893,8.1966,8.1966,0.0,0.0,8.2186,8.2186,8.2186,8.2186,8.2186,8.2553,8.3161,8.3161,8.3544,8.3985,8.2553,8.1966,8.2003,8.215,8.2627,8.3161,8.3161,8.3581,8.4132,8.4132,8.4132,8.4168,8.4315,8.4389,0.0,8.4572,8.4609,8.4609,8.4609,8.5086,8.5563,8.5563,8.6077,8.6537,8.6537,8.7068,8.7509,8.7509,8.8005,8.8519,8.8666,8.6958,8.5783,8.6427,8.7105,8.7509,8.7509,8.8096,8.8482,8.8482,8.8482,8.8482,8.8482,8.8592,8.8629,8.8482,8.8629,8.8702,8.8702,8.8096,8.7729,8.7729,8.6958,8.6464,8.628,8.6151,8.6077,8.6004,8.2774,8.1599,0.0,0.0,0.0,0.0,0.0,0.0,0.0,0.0,0.0,0.0,0.0,5.9465,6.026,0.0,6.447,6.5718,6.759,6.9449,7.1064,7.2349,7.2789,7.1982,7.3303,7.4625,7.5432,7.6995,7.8096,7.8516,7.969,8.0541,8.0896,8.1651,8.2238,8.2593,8.2676,8.2708,8.2708,8.2708,8.2708,8.2724,8.3425,8.3633,8.33,8.3722,8.3709,8.3398,8.3398,8.3618,8.4005,8.4005,8.4242,8.4535,8.3728,8.3398,8.3398,8.3398,8.3654,8.4005,8.4005,8.4278,8.4609,8.4609,8.4609,8.4682,8.5086,8.5196,8.527,8.571,8.582,8.582,8.582,8.6407,8.6995,8.6995,8.7619,8.8189,8.8189,8.8519,8.8776,8.8776,8.9143,8.94,8.94,8.8409,8.7766,8.8152,8.8519,8.8776,8.8776,8.9143,8.94,8.94,8.94,8.94,8.94,8.94,8.94,8.94,8.94,8.94,8.94,8.8996,8.8776,8.8776,8.8409,8.8189,8.8189,8.8189,8.8189,8.8152,8.6537,8.5583,0.0,0.0,0.0,0.0,0.0,0.0,0.0,5.6319,5.7237,5.8852,6.097,6.2732,6.338,6.5411,6.7283,6.8238,6.9596,7.1174,7.2936,7.3999,7.4595,7.4654,7.5652,7.6717,7.7693,7.8552,7.9402,8.0161,8.0971,8.1731,8.2379,8.3041,8.3651,8.4179,8.3556,8.3275,8.3378,8.3424,8.3498,8.3653,8.4994,8.5382,8.4858,8.5363,8.5318,8.4801,8.4985,8.5058,8.5058,8.5206,8.52,8.5086,8.5086,8.5086,8.5049,8.4719,8.4682,8.4829,8.4829,8.4939,8.5086,8.5086,8.5086,8.5233,8.6004,8.6278,8.6407,8.7234,8.7455,8.7455,8.7455,8.7932,8.8426,8.8426,8.8923,8.94,8.94,8.951,8.962,8.962,8.9767,8.9877,8.9877,8.9877,8.9767,8.9436,8.9546,8.962,8.962,8.9767,8.9877,8.9877,8.9877,8.9877,8.9877,8.9877,8.9877,8.9877,8.9877,8.9877,8.9877,8.9877,8.9877,8.9877,8.9877,8.9877,8.9877,8.9877,8.9877,8.9877,8.9877,8.8996,5.4252,5.5159,5.6737,5.8168,5.7985,5.8033,0.0,6.0872,6.141,6.3075,6.4751,6.5962,6.6072,6.7467,6.9119,7.0646,7.1651,7.3046,7.5359,7.6921,7.7831,7.8021,7.7509,7.7803,7.9376,8.0241,8.1034,8.1692,8.2516,8.3252,8.3941,8.4029,8.4142,8.4191,8.3556,8.3488,8.408,8.4213,8.4563,8.5185,8.6116,8.6531,8.6429,8.5845,8.5544,8.5544,8.6326,8.6661,8.6698,8.7411,8.7343,8.6721,8.6721,8.6721,8.6554,8.5123,8.5049,8.5673,8.5673,8.6114,8.6721,8.6721,8.6721,8.6867,8.7692,8.7912,8.8096,8.8923,8.9143,8.9143,8.9143,8.9216,8.9253,8.9253,8.9326,8.94,8.94,8.995,9.0464,9.0464,9.1033,9.1546,9.1546,9.1546,9.1069,8.962,8.9987,9.0464,9.0464,9.1106,9.1546,9.1546,9.1546,9.1546,9.1546,9.1546,9.1546,9.1546,9.1546,9.1546,9.1546,9.1546,9.1546,9.1546,9.1546,9.1546,9.1546,9.1546,9.1546,9.1546,9.1546,9.0665,5.7997,5.84,5.9049,5.971,6.0015,6.0493,6.1961,6.2695,6.3515,6.5154,6.6402,6.7467,6.8421,6.9926,7.1358,7.2496,7.4169,7.5779,7.718,7.8754,8.0105,8.1011,8.08,8.0697,8.1059,8.137,8.2041,8.3194,8.3585,8.4067,8.4696,8.4718,8.492,8.528,8.5167,8.5198,8.55,8.6055,8.6471,8.6738,8.7981,8.8341,8.7995,8.8151,8.8002,8.7677,8.8002,8.8198,8.833,8.8666,8.863,8.8425,8.8877,8.9053,8.8766,8.6759,8.6518,8.7178,8.7178,8.7729,8.8409,8.8409,8.8409,8.8445,8.8812,8.8886,8.8959,8.9326,8.94,8.94,8.94,8.9767,9.0097,9.0097,9.0482,9.0812,9.0812,9.1069,9.1289,9.1289,9.1583,9.1803,9.1803,9.2207,9.2317,9.1638,9.14,9.1289,9.1289,9.1583,9.1803,9.1803,9.1803,9.1803,9.1803,9.1803,9.1803,9.1803,9.1803,9.1803,9.1803,9.2281,9.2574,9.2574,9.3015,9.3235,9.3235,9.3235,9.3235,9.3235,9.3235,9.2905,6.1374,6.141,6.141,6.141,6.2034,6.2768,6.3343,6.431,6.5424,6.6586,6.7797,6.9119,7.0513,7.1908,7.3156,7.4184,7.6177,7.7819,7.8543,8.0374,8.1959,8.282,8.3264,8.3332,8.2884,8.2698,8.3132,8.437,8.4455,8.4718,8.535,8.5379,8.5704,8.6431,8.6432,8.6615,8.7033,8.7704,8.8124,8.8315,8.9627,9.0022,8.9565,9.0181,9.0338,9.0095,9.0095,9.0153,9.0226,9.0226,9.0168,9.0053,9.0593,9.0699,9.0311,8.8594,8.8344,8.8826,8.8587,8.8923,8.94,8.94,8.94,8.9436,8.9657,8.973,8.9767,8.9987,9.006,9.006,9.006,9.0482,9.0922,9.0922,9.1363,9.1877,9.2097,9.217,9.2207,9.2427,9.2501,9.2501,9.2501,9.3015,9.3418,9.3418,9.2905,9.2501,9.2501,9.2501,9.2501,9.2501,9.2501,9.2501,9.2501,9.2501,9.2501,9.2501,9.2501,9.2501,9.2501,9.3088,9.3418,9.3418,9.4006,9.4299,9.4299,9.4299,9.4299,9.4299,9.4299,9.441,6.3759,6.3992,6.3992,6.3992,6.4604,6.5178,6.5215,6.6439,6.759,6.7664,6.9559,7.1454,7.2275,7.3083,7.4184,7.5763,7.7282,7.8559,7.9356,8.1978,8.3578,8.2954,8.416,8.5041,8.5031,8.4464,8.437,8.5048,8.509,8.536,8.6043,8.6069,8.6462,8.7325,8.6748,8.7101,8.8615,8.8776,8.9197,8.9837,9.074,9.1163,9.1136,9.1288,9.1806,9.2595,9.2595,9.2584,9.2611,9.2611,9.2173,9.1536,9.155,9.1123,9.0485,9.0432,9.0417,9.0329,8.9622,8.9363,8.94,8.94,8.94,8.9546,9.0317,9.0537,9.0739,9.151,9.173,9.173,9.173,9.173,9.1767,9.1767,9.1767,9.2024,9.2868,9.3051,9.3308,9.4079,9.4226,9.4226,9.4226,9.4226,9.4263,9.4263,9.4226,9.4226,9.4226,9.4226,9.4226,9.4226,9.4226,9.4226,9.4226,9.4226,9.4226,9.4226,9.4226,9.4226,9.4226,9.4226,9.4263,9.4263,9.4299,9.4299,9.4299,9.4299,9.4299,9.4299,9.4299,9.4703,6.5595,6.5705,6.5705,6.5705,6.5888,6.6256,6.6769,6.7724,6.8788,6.9889,7.072,7.1857,7.3729,7.469,7.5702,7.7307,7.9246,8.0828,8.1525,8.3388,8.4782,8.4988,8.5454,8.5746,8.5746,8.5162,8.5069,8.571,8.5746,8.6124,8.6931,8.6978,8.7363,8.8256,8.8561,8.8974,8.947,9.0097,9.0558,9.0787,9.1633,9.2326,9.2855,9.2891,9.3083,9.3352,9.3352,9.342,9.3511,9.3511,9.3413,9.3302,9.3808,9.3527,9.2871,9.2871,9.2586,9.1982,9.0654,9.0555,9.0996,9.0996,9.0996,9.1033,9.1326,9.14,9.1436,9.173,9.1803,9.1803,9.1803,9.2244,9.2648,9.2648,9.3051,9.3529,9.3822,9.3896,9.3969,9.4226,9.4299,9.4299,9.4299,9.474,9.529,9.5804,9.496,9.4299,9.4299,9.4299,9.4299,9.4299,9.4299,9.4299,9.4299,9.4299,9.4299,9.4299,9.4299,9.4299,9.4299,9.4813,9.5107,9.5107,9.5621,9.5878,9.5878,9.5878,9.5878,9.5878,9.5878,9.6025,6.6916,6.6916,6.699,6.7283,6.7136,6.7223,6.8325,6.8752,6.9362,7.0977,7.1527,7.2347,7.4421,7.5632,7.6937,7.8776,8.0761,8.2434,8.3461,8.469,8.5636,8.606,8.6094,8.6094,8.6094,8.57,8.5645,8.6069,8.6401,8.6824,8.7363,8.7709,8.8248,8.9094,8.9624,9.0047,9.0355,9.1248,9.1825,9.2095,9.2672,9.3364,9.4181,9.4181,9.4326,9.4634,9.4634,9.4676,9.4773,9.4773,9.4822,9.4927,9.5396,9.5142,9.4489,9.4489,9.4033,9.3174,9.1586,9.1363,9.1803,9.1803,9.1803,9.1803,9.1803,9.1803,9.1803,9.1803,9.2024,9.2244,9.2244,9.2905,9.3529,9.3529,9.3932,9.4373,9.4666,9.474,9.4813,9.5107,9.5144,9.5144,9.5144,9.5584,9.6098,9.6612,9.5804,9.5144,9.5144,9.5144,9.5144,9.5144,9.5144,9.5144,9.5144,9.5144,9.5144,9.5144,9.5144,9.5144,9.5144,9.5658,9.5951,9.5951,9.6428,9.6685,9.6685,9.6685,9.6685,9.6685,9.6685,9.6685,6.7811,6.7811,6.8031,6.8825,6.8421,6.8214,6.9779,6.9559,6.9486,7.107,7.2039,7.3037,7.4456,7.6053,7.7928,8.013,8.1744,8.3284,8.4897,8.5671,8.6094,8.6094,8.6094,8.6094,8.6094,8.6132,8.617,8.617,8.694,8.744,8.7517,8.8325,8.9133,8.9932,8.997,9.0393,9.1248,9.2133,9.2979,9.3749,9.3749,9.422,9.5066,9.5066,9.5518,9.6288,9.6288,9.6288,9.6288,9.6288,9.6288,9.6288,9.6288,9.5852,9.5189,9.5189,9.4743,9.3893,9.238,9.1839,9.1839,9.1839,9.184,9.1803,9.184,9.1877,9.1877,9.1913,9.2537,9.3161,9.3161,9.3749,9.4336,9.4336,9.4373,9.463,9.5401,9.5565,9.5785,9.6539,9.6685,9.6685,9.6685,9.6685,9.6685,9.6685,9.6685,9.6685,9.6685,9.6685,9.6685,9.6685,9.6685,9.6685,9.6685,9.6685,9.6685,9.6685,9.6685,9.6685,9.6685,9.6685,9.6685,9.6685,9.6685,9.6685,9.6685,9.6685,9.6685,9.6685,9.6685,9.6685,6.9339,6.9499,6.9669,7.0499,7.0073,6.9743,7.0756,7.083,7.1108,7.2547,7.3482,7.4483,7.5899,7.7392,7.8843,8.002,8.1975,8.3513,8.3935,8.5219,8.6094,8.6094,8.6094,8.6094,8.6094,8.6709,8.7055,8.7055,8.7286,8.794,8.9201,8.9479,8.9979,9.0825,9.0855,9.1287,9.2172,9.2979,9.3826,9.4681,9.4681,9.5134,9.598,9.598,9.6095,9.6288,9.6288,9.6288,9.6288,9.6288,9.6288,9.6288,9.6288,9.5852,9.5189,9.5189,9.4743,9.3977,9.3035,9.2699,9.2699,9.2699,9.2279,9.1913,9.2574,9.2758,9.2905,9.3492,9.3822,9.3969,9.3969,9.4593,9.5199,9.518,9.5658,9.6135,9.6355,9.6392,9.6465,9.6649,9.6685,9.6685,9.6685,9.6685,9.6685,9.6685,9.6685,9.6685,9.6685,9.6685,9.6685,9.6685,9.6685,9.6685,9.6685,9.6685,9.6685,9.6685,9.6685,9.6685,9.6685,9.6685,9.6685,9.6685,9.6685,9.6685,9.6685,9.6685,9.6685,9.6685,9.6685,9.6685,7.033,7.0624,7.0807,7.1637,7.1197,7.0928,7.1995,7.1693,7.1682,7.3438,7.4169,7.4894,7.6299,7.7844,7.938,8.0844,8.2476,8.387,8.4593,8.5517,8.6094,8.6094,8.644,8.6671,8.6671,8.744,8.8132,8.8479,8.8517,8.8902,8.9855,9.0278,9.0701,9.1171,9.1556,9.2364,9.3604,9.4027,9.472,9.5557,9.5557,9.5826,9.6288,9.6288,9.6288,9.6288,0.0,9.6288,9.6288,9.6288,9.6288,9.6288,9.6288,9.603,9.5689,9.5689,9.5637,9.5532,9.5123,9.4787,9.436,9.3367,9.2988,9.2978,9.3492,9.3639,9.3712,9.4153,9.4556,9.4813,9.4813,9.5401,9.6025,9.6025,9.6392,9.6685,9.6685,9.6685,9.6685,9.6685,9.6685,9.6685,9.6685,9.6685,9.6685,9.6685,9.6685,9.6685,9.6685,9.6685,9.6685,9.6685,9.6685,9.6685,9.6685,9.6685,9.6685,9.6685,9.6685,9.6685,9.6685,9.6685,9.6685,9.6685,9.6685,9.6685,9.6685,9.6685,9.6685,9.6685,9.6685,9.6685,7.0903,7.138,7.1637,7.2349,7.1967,7.1812,7.3102,7.2212,7.1758,7.383,7.4336,7.4816,7.6091,7.7824,7.968,8.1806,8.2947,8.414,8.5709,8.6017,8.6094,8.6094,8.6863,8.7401,8.7401,8.8286,8.9133,8.9855,9.0009,9.0086,9.0086,9.0778,9.1248,9.1364,9.2326,9.3527,9.4989,9.5104,9.5557,9.6288,9.6288,9.6288,9.6288,9.6288,9.6288,9.6288,9.6288,9.6288,9.6288,9.6288,9.6288,9.6288,9.6288,9.6288,9.6326,9.6442,9.6903,9.7509,9.752,9.7227,9.6469,9.4268,9.3897,9.4299,9.441,9.4446,9.4483,9.4593,9.5107,9.5639,9.5639,9.6171,9.6685,9.6685,9.6685,9.6685,9.6685,9.6685,9.6685,9.6685,9.6685,9.6685,9.6685,9.6685,9.6685,9.6685,9.6685,9.6685,9.6685,9.6685,9.6685,9.6685,9.6685,9.6685,9.6685,9.6685,9.6685,9.6685,9.6685,9.6685,9.6685,9.6685,9.6685,9.6685,9.6685,9.6685,9.6685,9.6685,9.6685,9.6685,9.6685,9.6685,7.105,7.1784,7.2349,7.2459,7.2422,7.2474,7.3251,7.2634,7.229,7.3696,7.4505,7.5194,7.5909,7.8023,8.0006,8.1123,8.2601,8.3939,8.4978,8.567,8.6094,8.6094,8.6863,8.7401,8.7401,8.8786,8.9739,8.9893,9.0547,9.097,9.097,9.1133,9.1518,9.2249,9.3758,9.472,9.4989,9.5711,9.6134,9.6288,9.6288,9.6288,9.6288,9.6288,9.6288,9.6288,9.6288,0.0,9.6288,9.6288,9.6288,9.6288,9.6288,9.6288,9.6365,9.7057,9.7365,9.7539,9.7637,9.8034,9.82,9.6479,9.5165,9.441,9.5107,9.529,9.5437,9.6098,9.6392,9.6502,9.6502,9.6612,9.6685,9.6685,9.6685,9.6685,9.6685,9.6685,9.6685,9.6685,9.6685,9.6685,9.6685,9.6685,9.6685,9.6685,9.6685,9.6685,9.6685,9.6685,9.6685,9.6685,9.6685,9.6685,9.6685,9.6685,9.6685,9.6685,9.6685,9.6685,9.6685,9.6685,9.6685,9.6685,9.6685,9.6685,9.6685,9.6685,9.6685,9.6685,9.6685,9.6685,7.149,7.2202,7.2496,7.2496,7.2756,7.3008,7.3175,7.3105,7.3146,7.3581,7.3988,7.4627,7.5786,7.7361,7.9054,8.0823,8.2131,8.3401,8.4709,8.5239,8.5632,8.6055,8.7286,8.8064,8.8064,8.9594,9.0586,9.0586,9.0979,9.121,9.121,9.1633,9.2249,9.3095,9.4335,9.522,9.5672,9.6095,9.6288,9.6288,9.6288,9.6288,9.6288,9.6288,9.6288,9.6288,9.6288,9.6288,9.6288,9.6288,9.6288,9.6326,9.6749,9.6903,9.7019,9.7865,9.8442,9.8875,9.8933,9.9205,9.9438,9.8668,9.7678,9.6733,9.672,9.6708,9.6711,9.6691,9.6685,9.6685,9.6685,9.6685,9.6685,9.6685,9.6685,9.6685,9.6685,9.6685,9.6685,9.6685,9.6685,9.6685,9.6685,9.6685,9.6685,9.6685,9.6685,9.6685,9.6685,9.6685,9.6685,9.6685,9.6685,9.6685,9.6685,9.6685,9.6685,9.6685,9.6685,9.6685,9.6685,9.6685,9.6685,9.6685,9.6685,9.6685,9.6685,9.6685,9.6685,9.6685,9.6685,9.6685,7.1651,7.2463,7.27,7.27,7.3021,7.3273,7.322,7.3269,7.3306,7.3236,7.3199,7.3668,7.5207,7.6322,7.7861,8.04,8.1631,8.2901,8.4662,8.5055,8.5401,8.6017,8.7632,8.8718,8.8718,9.021,9.121,9.121,9.121,9.1287,9.1479,9.2287,9.3133,9.3941,9.4835,9.5595,9.6288,9.6288,9.6288,9.6288,9.6288,9.6288,9.6288,9.6288,9.6288,9.6288,9.6288,9.6288,9.6288,9.6288,9.6403,9.6634,9.725,9.7596,9.7865,9.875,9.9529,10.0106,10.0298,10.0401,10.0386,10.0386,9.9771,9.8861,9.8042,9.7813,9.7663,9.6896,9.6685,9.6685,9.6685,9.6685,9.6685,9.6685,9.6685,9.6685,9.6685,9.6685,9.6685,9.6685,9.6685,9.6685,9.6685,9.6685,9.6685,9.6685,9.6685,9.6685,9.6685,9.6685,9.6685,9.6685,9.6685,9.6685,9.6685,9.6685,9.6685,9.6685,9.6685,9.6685,9.6685,9.6685,9.6685,9.6685,9.6685,9.6685,9.6685,9.6869,9.6942,9.6942,9.7126,9.7199,7.094,7.2334,7.3315,7.3315,7.3185,7.3166,7.3678,7.2635,7.1684,7.2205,7.2329,7.2591,7.3546,7.5053,7.6938,7.9515,8.1246,8.2901,8.4662,8.5517,8.6017,8.6094,8.7632,8.8718,8.8718,9.021,9.121,9.121,9.121,9.1556,9.2326,9.3133,9.3989,9.4835,9.5711,9.6211,9.6288,9.6288,9.6288,9.6288,9.6288,9.6288,9.6288,9.6288,9.6288,9.6288,9.6288,9.6288,0.0,9.6288,9.6749,9.7403,9.748,9.798,9.8788,9.9644,9.999,10.0221,10.0904,10.1211,10.121,10.121,10.0183,9.8861,9.8042,9.7813,9.7663,9.6896,9.6685,9.6685,9.6685,9.6685,9.6685,9.6685,9.6685,9.6685,9.6685,9.6685,9.6685,9.6685,9.6685,9.6685,9.6685,9.6685,9.6685,9.6685,9.6685,9.6685,9.6685,9.6685,9.6685,9.6685,9.6685,9.6685,9.6685,9.6685,9.6685,9.6685,9.6685,9.6685,9.6685,9.6685,9.6685,9.6685,9.6685,9.6685,9.6685,9.7419,9.7806,9.7787,9.8557,9.8868,7.072,7.1715,7.219,7.252,7.2794,7.29,7.244,7.2082,7.1742,7.1486,7.1398,7.1668,7.2552,7.4091,7.6053,7.8592,8.0477,8.2516,8.5247,8.5901,8.6286,8.6824,8.8402,8.9248,8.8756,9.021,9.121,9.121,9.1672,9.2364,9.3172,9.3518,9.4104,9.4989,9.5865,9.6288,9.6288,9.6288,9.6288,9.6288,9.6288,9.6288,9.6288,9.6288,9.6288,9.6288,9.6288,9.6288,0.0,9.6288,9.6788,9.7557,9.8096,9.8827,9.9683,10.0481,10.0789,10.0904,10.1212,10.1279,10.1279,10.1279,10.0917,10.0219,9.9493,9.8905,9.8358,9.7577,9.7027,9.6685,9.6685,9.6685,9.6685,9.6685,9.6685,9.6685,9.6685,9.6685,9.6685,9.6685,9.6685,9.6685,9.6685,9.6685,9.6685,9.6685,9.6685,9.6685,9.6685,9.6685,9.6685,9.6685,9.6685,9.6685,9.6685,9.6685,9.6685,9.6685,9.6685,9.6685,9.6685,9.6685,9.6685,9.6685,9.6685,9.6942,9.7419,9.7273,9.7419,9.7916,9.7713,9.7676,7.0059,7.1001,7.1548,7.1936,7.2407,7.2566,7.1761,7.1697,7.1636,7.1014,7.0898,7.1168,7.2059,7.3399,7.5168,7.7715,7.9823,8.2208,8.5324,8.617,8.6824,8.7671,8.9248,8.997,8.9133,9.0364,9.121,9.121,9.2018,9.2864,9.3672,9.3941,9.4489,9.5374,9.598,9.6288,9.6288,9.6288,9.6288,9.6288,9.6288,9.6288,9.6288,9.6288,9.6288,9.6288,9.6288,9.6288,0.0,9.6288,9.6788,9.7596,9.8442,9.9336,10.0183,10.1019,10.1279,10.1279,10.1279,10.1279,10.1279,10.1279,10.1279,10.121,10.0705,9.9796,9.8846,9.8026,9.7263,9.6685,9.6685,9.6685,9.6685,9.6685,9.6685,9.6685,9.6685,9.6685,9.6685,9.6685,9.6685,9.6685,9.6685,9.6685,9.6685,9.6685,9.6685,9.6685,9.6685,9.6685,9.6685,9.6685,9.6685,9.6685,9.6685,9.6685,9.6685,9.6685,9.6685,9.6685,9.6685,9.6685,9.6685,9.6685,9.6685,9.6979,9.753,9.7199,9.7346,9.7897,9.7566,9.7273,6.8715,7.0312,7.1792,7.1803,7.2002,7.2199,7.2206,7.1514,7.0898,7.0898,7.0898,7.1168,7.2059,7.2937,7.4361,7.6899,7.9438,8.1977,8.4547,8.6324,8.7709,8.8564,9.0171,9.0825,8.997,9.0663,9.121,9.121,9.2018,9.2864,9.3672,9.4527,9.5412,9.6249,9.6288,9.6288,9.6288,9.6288,9.6288,9.6288,9.6288,9.6288,9.6288,9.6288,9.6288,9.6288,9.6288,9.6288,0.0,9.6288,9.6788,9.7596,9.8442,9.9336,10.0183,10.1019,10.1279,10.1279,10.1279,10.1279,10.1279,10.1279,10.1279,10.1279,10.1317,10.0207,9.8846,9.8026,9.7263,9.6685,9.6685,9.6685,9.6685,9.6685,9.6685,9.6685,9.6685,9.6685,9.6685,9.6685,9.6685,9.6685,9.6685,9.6685,9.6685,9.6685,9.6685,9.6685,9.6685,9.6685,9.6685,9.6685,9.6685,9.6685,9.6685,9.6685,9.6685,9.6685,9.6685,9.6685,9.6685,9.6685,9.6685,9.6685,9.6685,9.6685,9.6722,9.7493,9.7897,9.7897,9.8704,9.8668,6.8531,6.9345,7.0004,7.0734,7.0988,7.1096,7.1279,7.1091,7.0898,7.0898,7.0898,7.0975,7.1245,7.2514,7.4123,7.6092,7.9054,8.217,8.5286,8.6709,8.7709,8.8603,8.918,8.9825,9.0701,9.1047,9.121,9.121,9.2518,9.3441,9.3672,9.5095,9.6019,9.6288,9.6288,9.6288,9.6288,9.6288,9.6288,9.6288,9.6288,9.6288,9.6288,9.6288,9.6288,9.6288,9.6288,9.6596,9.7096,9.6519,9.7134,9.8404,9.8673,9.9336,10.0183,10.1019,10.1279,10.1279,10.1279,10.1279,10.1279,10.1279,10.1279,10.1279,10.1279,10.0622,9.9547,9.8188,9.7263,9.6685,9.6685,9.6685,9.6685,9.6685,9.6685,9.6685,9.6685,9.6685,9.6685,9.6685,9.6685,9.6685,9.6685,9.6685,9.6685,9.6685,9.6685,9.6685,9.6685,9.6685,9.6685,9.6685,9.6685,9.6685,9.6685,9.6685,9.6685,9.6685,9.6685,9.6685,9.6685,9.6685,9.6685,9.6685,9.6685,9.6979,9.753,9.7199,9.7089,9.7089,9.7346,9.7309,6.7467,6.8352,6.8964,6.9826,7.0199,7.0457,7.0834,7.0898,7.0898,7.0898,7.0898,7.1014,7.1321,7.2552,7.4161,7.6169,7.9092,8.2285,8.5632,8.6863,8.794,8.944,8.9363,8.9825,9.1518,9.1402,9.121,9.121,9.2479,9.3518,9.4181,9.5211,9.6095,9.6749,9.648,9.6288,9.6288,9.6288,9.6288,9.6288,9.6288,9.648,9.6749,9.6442,9.648,9.6749,9.6442,9.6749,0.0,9.698,9.7557,9.8827,9.9173,9.9606,10.0183,10.1019,10.1279,10.1279,10.1279,10.1279,10.1279,10.1279,10.1279,10.1279,10.1279,10.0782,9.9873,9.8231,9.7475,9.7137,9.7137,9.6896,9.6781,9.7046,9.6878,9.6685,9.6685,9.6685,9.6685,9.6685,9.6685,9.6685,9.6685,9.6685,9.6685,9.6685,9.6685,9.6685,9.6685,9.6685,9.6685,9.6685,9.6685,9.6685,9.6685,9.6685,9.6685,9.6685,9.6685,9.6685,9.6685,9.6685,9.6685,9.6685,9.6685,9.6942,9.7456,9.7236,9.7163,9.7163,9.7456,9.7273,0.0,6.7283,6.8481,6.9068,6.9654,7.017,7.0734,7.0878,0.0,7.0898,7.0898,7.1168,7.2059,7.2976,7.443,7.6984,7.9592,8.2401,8.567,8.6863,8.8325,9.0825,9.0355,9.0509,9.2326,9.171,9.121,9.121,9.2056,9.3249,9.4835,9.5027,9.5797,9.7365,9.6673,9.6288,9.6288,9.6365,9.6403,9.6403,9.6442,9.6865,9.7557,9.6826,9.6865,0.0,9.6788,9.6903,9.7596,9.7596,9.8096,9.8981,9.9798,10.0106,10.0183,10.1019,10.1279,10.1279,10.1279,10.1279,10.1279,10.1279,10.1279,10.1279,10.1279,10.0782,9.9886,9.831,9.7877,9.786,9.783,9.7281,9.6952,9.7646,9.7246,9.6685,9.6685,9.6685,9.6685,9.6685,9.6685,9.6685,9.6685,9.6685,9.6685,9.6685,9.6685,9.6685,9.6685,9.6685,9.6685,9.6685,9.6685,9.6685,9.6685,9.6685,9.6685,9.6685,9.6685,9.6685,9.6685,9.6685,9.6685,9.6685,9.6759,9.6795,9.6795,9.7566,9.7953,9.7897,9.8741,9.8264,6.349,0.0,6.7257,6.8383,6.9095,6.9636,0.0,7.0615,7.0898,7.0898,7.0898,7.1168,7.2059,7.3437,7.5245,7.7792,8.0908,8.3747,8.5824,8.6863,8.8094,8.997,8.9479,8.9902,9.2287,9.171,9.121,9.121,9.2595,9.3595,9.3989,9.5249,9.6172,9.6557,9.6403,9.6288,9.6288,9.6903,9.7211,9.725,9.7904,9.8288,9.8481,9.8288,9.7942,9.7519,9.8019,9.8327,9.8481,9.8481,9.9029,9.9798,9.999,10.0106,10.0183,10.1019,10.1279,10.1279,10.1279,10.1279,10.1279,10.1279,10.1279,10.1279,10.1279,10.0782,9.9974,9.9007,9.8727,9.8591,9.796,9.7661,9.7577,9.7763,9.7246,9.6685,9.6685,9.6685,9.6685,9.6685,9.6685,9.6685,9.6685,9.6685,9.6685,9.6685,9.6685,9.6685,9.6685,9.6685,9.6685,9.6685,9.6685,9.6685,9.6685,9.6685,9.6685,9.6685,9.6685,9.6685,9.6685,9.6685,9.6685,9.6685,9.7309,9.7603,9.7603,9.8447,9.8484,9.7897,9.8741,9.8557,6.2609,6.4591,6.6719,6.7724,6.8628,6.9443,7.0,7.0509,7.0898,7.0898,7.1206,7.186,7.3129,7.4745,7.6746,7.9285,8.2208,8.4901,8.7017,8.8363,8.9325,8.9855,8.9863,9.0402,9.1787,9.1479,9.1364,9.1787,9.2633,9.3672,9.4826,9.5788,9.648,9.6826,9.725,9.725,9.6865,9.7288,9.7711,9.8096,9.8557,9.9029,9.9375,9.8981,9.875,9.8711,9.875,9.9029,9.9413,9.9413,9.9683,10.0106,10.0481,10.0404,10.0183,10.1019,10.1279,10.1279,10.1279,10.1279,10.1279,10.1279,10.1279,10.1279,10.1279,10.1001,10.0478,9.9758,9.956,9.9428,9.9022,9.8636,9.8342,9.8342,9.7746,9.7119,9.6781,9.6685,9.6685,9.6685,9.6685,9.6685,9.6685,9.6685,9.6685,9.6685,9.6685,9.6685,9.6685,9.6685,9.6685,9.6685,9.6685,9.6685,9.6685,9.6685,9.6685,9.6685,9.6685,9.6685,9.6685,9.6685,9.6685,9.6685,9.7126,9.7713,9.8447,9.8888,9.9071,9.8998,9.9842,9.9585,6.2059,6.4386,6.6602,6.7153,6.8302,6.9443,7.0,7.0624,7.1091,7.1091,7.1898,7.3053,7.463,7.6438,7.8515,8.1054,8.3632,8.6055,8.8218,8.971,9.0441,8.997,9.0547,9.1133,9.1364,9.1402,9.171,9.2441,9.2749,9.3826,9.598,9.6249,9.6673,9.748,9.8211,9.8365,9.7904,9.7904,9.825,9.8981,9.9135,9.9558,10.0298,9.9519,9.9529,10.0106,0.0,0.0,10.0106,10.0221,10.0221,10.0183,10.1019,10.0789,10.0183,10.1019,10.1279,10.1279,10.1279,10.1279,10.1279,10.1279,10.1279,10.1279,10.1279,10.1279,10.119,10.0516,10.0416,10.0304,10.0209,9.9693,9.9165,9.9036,9.8389,9.7595,9.6858,9.6685,9.6685,9.6685,9.6685,9.6685,9.6685,9.6685,9.6685,9.6685,9.6685,9.6685,9.6685,9.6685,9.6685,9.6685,9.6685,9.6685,9.6685,9.6685,9.6685,9.6685,9.6685,9.6685,9.6685,9.6685,9.6685,9.6685,9.6832,9.7603,9.9108,9.9218,9.9622,10.0319,10.109,10.0686,6.0713,6.3415,6.6333,6.7121,6.8302,6.9443,7.0,7.1091,7.2021,7.2021,7.3245,7.463,7.563,7.7784,8.0246,8.2793,8.5363,8.7132,8.7555,8.7825,8.8479,8.9739,9.0009,9.0663,9.2172,9.2287,9.2364,9.2479,9.3796,9.4797,9.5181,9.5903,9.6673,9.748,9.7634,9.8327,9.9683,9.9721,9.976,9.9913,10.0596,10.1019,10.1096,10.1019,10.0596,10.0106,0.0,10.0596,10.0183,10.0789,10.0712,10.0183,10.1019,10.0789,10.0183,10.1019,10.1279,10.1279,10.1279,10.1279,10.1279,10.1279,10.1279,10.1279,10.1279,10.1279,10.1308,10.119,10.1083,10.1018,10.0404,10.0111,9.986,9.9165,9.8389,9.7595,9.6858,9.6685,9.6685,9.6685,9.6685,9.6685,9.6685,9.6685,9.6685,9.6685,9.6685,9.6685,9.6685,9.6685,9.6685,9.6685,9.6685,9.6685,9.6685,9.6685,9.6685,9.6685,9.6685,9.6685,9.6685,9.6685,9.6685,9.6685,9.7346,9.8154,9.9108,9.9769,10.0209,10.0319,10.109,10.098,6.0419,6.2965,6.5912,6.6855,6.8429,6.9907,7.0624,7.1544,7.2444,7.336,7.4553,7.5784,7.7092,7.9092,8.1477,8.4478,8.6324,8.7555,8.8017,8.8863,8.9556,8.9855,9.074,9.1441,9.1787,9.221,9.2672,9.3133,9.4296,9.522,9.5672,9.648,9.7134,9.748,9.8404,9.9288,10.0106,10.0481,10.0712,10.0789,10.1087,10.1279,10.1279,10.1279,10.1096,10.0789,0.0,10.1096,10.0789,10.1087,10.0789,10.0183,10.1019,10.0789,10.0183,10.1019,10.1279,10.1279,10.1279,10.1279,10.1279,10.1279,10.1279,10.1279,10.1279,10.1279,10.1279,10.1279,10.1279,10.1191,10.0896,10.0793,10.0482,9.9291,9.8727,9.8124,9.6952,9.6685,9.6685,9.6685,9.6685,9.6685,9.6685,9.6685,9.6685,9.6685,9.6685,9.6685,9.6685,9.6685,9.6685,9.6685,9.6685,9.6685,9.6685,9.6685,9.6685,9.6685,9.6685,9.6685,9.6685,9.6685,9.6685,9.6685,9.7052,9.764,9.8447,9.8814,9.9218,9.9659,9.9989,9.9989,6.0639,6.3039,6.5767,6.6897,6.8707,7.0457,7.1396,7.2379,7.3399,7.4476,7.5861,7.7284,7.8561,8.0708,8.317,8.594,8.6978,8.7632,8.8295,8.9671,9.0441,8.997,9.1248,9.1941,9.1248,9.2172,9.3018,9.3633,9.472,9.5595,9.6249,9.6865,9.7403,9.7788,9.9096,9.999,10.0414,10.1019,10.1279,10.1279,10.1279,10.1279,10.1279,10.1279,10.1279,10.1279,10.1279,10.1279,10.1279,10.1279,10.0789,10.0183,10.1019,10.0904,10.0491,10.1096,10.1279,10.1279,10.1279,10.1279,10.1279,10.1279,10.1279,10.1279,10.1279,10.1279,10.1279,10.1279,10.1279,10.1279,10.1279,10.1279,10.1008,9.9589,9.915,9.8621,9.7264,9.682,9.6685,9.6685,9.6685,9.6685,9.6685,9.6685,9.6685,9.6685,9.6685,9.6685,9.6685,9.6685,9.6685,9.6685,9.6685,9.6685,9.6685,9.6685,9.6685,9.6685,9.6685,9.6685,9.6685,9.6685,9.6685,9.6685,9.6685,9.7089,9.7916,9.7916,9.83,9.9108,9.9108,9.9108,6.13,6.3721,6.6374,6.7703,6.9297,7.082,7.1896,7.4,7.5515,7.4853,7.7277,7.9546,7.9669,8.3016,8.6094,8.7132,8.7363,8.7401,8.7478,8.8295,8.9133,8.9816,9.0701,9.1287,9.121,9.2672,9.3633,9.371,9.5249,9.6249,9.6288,9.6365,9.7096,9.8673,9.8827,9.9635,10.1202,10.1289,10.1279,10.1279,10.1279,10.1279,10.1279,10.1279,10.1279,10.1279,10.1279,10.1279,10.1279,10.1279,10.0789,10.0183,10.1019,10.1289,10.1202,10.1289,10.1279,10.1279,10.1279,10.1279,10.1279,10.1279,10.1279,10.1279,10.1279,10.1279,10.1279,10.1279,10.1279,10.1279,10.1279,10.1279,10.1101,10.028,9.956,9.8787,9.7931,9.7192,9.6685,9.6685,9.6685,9.6685,9.6685,9.6685,9.6685,9.6685,9.6685,9.6685,9.6685,9.6685,9.6685,9.6685,9.6685,9.6685,9.6685,9.6685,9.6685,9.6685,9.6685,9.6685,9.6685,9.6685,9.6685,9.6685,9.6685,9.7089,9.7916,9.7916,9.83,9.9108,9.9108,9.9108,6.2144,6.4558,6.7191,6.858,7.0782,7.2702,7.2937,7.4553,7.6361,7.7623,7.9323,8.1093,8.2662,8.4277,8.5632,8.6478,8.6594,8.6786,8.7325,8.8132,8.8979,8.9816,9.0663,9.121,9.121,9.271,9.371,9.371,9.5326,9.6288,9.6288,9.6288,9.7057,9.875,9.8788,9.9596,10.1279,10.1279,10.1279,10.1279,10.1279,10.1279,10.1279,10.1279,10.1279,10.1279,10.1279,10.1279,10.1279,10.1279,10.1087,10.0904,10.1212,10.1279,10.1279,10.1279,10.1279,10.1279,10.1279,10.1279,10.1279,10.1279,10.1279,10.1279,10.1279,10.1279,10.1279,10.1279,10.1279,10.1279,10.1279,10.1279,10.1111,10.0416,9.9587,9.8787,9.7976,9.7228,9.6685,9.6685,9.6685,9.6685,9.6685,9.6685,9.6685,9.6685,9.6685,9.6685,9.6685,9.6685,9.6685,9.6685,9.6685,9.6685,9.6685,9.6685,9.6685,9.6685,9.6685,9.6685,9.6685,9.6685,9.6685,9.6685,9.6685,9.6832,9.7163,9.7163,9.7309,9.7603,9.7603,9.7603,6.316,6.568,6.8377,7.0001,7.2185,7.4028,7.458,7.6015,7.7707,7.9431,8.1131,8.2901,8.4893,8.5517,8.5863,8.644,8.6286,8.6517,8.7632,8.8333,8.9094,9.0163,9.0825,9.121,9.121,9.271,9.371,9.371,9.5326,9.6288,9.6288,9.6288,9.7057,9.875,9.8788,9.9596,10.1279,10.1279,10.1279,10.1279,10.1279,10.1279,10.1279,10.1279,10.1279,10.1279,10.1279,10.1279,10.1279,10.1279,10.1212,10.0904,10.1202,10.1087,10.0981,10.1202,10.1279,10.1279,10.1279,10.1279,10.1279,10.1279,10.1279,10.1279,10.1279,10.1279,10.1279,10.1279,10.1279,10.1279,10.1279,10.1279,10.119,10.0694,9.9961,9.9165,9.8342,9.7577,9.699,9.6743,9.6685,9.6685,9.6685,9.6685,9.6685,9.6685,9.6685,9.6685,9.6685,9.6685,9.6685,9.6685,9.6685,9.6685,9.6685,9.6685,9.6685,9.6685,9.6685,9.6685,9.6685,9.6685,9.6685,9.6685,9.6685,9.6685,9.6685,9.6685,9.6685,9.6685,9.6685,9.6685,6.4457,6.7106,6.9908,7.2066,7.3257,7.4533,7.6778,7.8592,7.9815,7.9854,8.2546,8.5162,8.5978,8.6824,8.7401,8.7401,8.6671,8.6709,8.8449,8.8718,8.9334,9.1018,9.121,9.121,9.121,9.271,9.371,9.371,9.5326,9.6288,9.6288,9.6288,9.7057,9.875,9.8788,9.9596,10.1279,10.1279,10.1279,10.1279,10.1279,10.1279,10.1279,10.1279,10.1279,10.1279,10.1279,10.1279,10.1279,10.1279,10.0789,10.0183,10.1019,10.0789,10.0183,10.1019,10.1279,10.1279,10.1279,10.1279,10.1279,10.1279,10.1279,10.1279,10.1279,10.1279,10.1279,10.1279,10.1279,10.1279,10.1279,10.1279,10.1279,10.1279,10.07,9.9961,9.9179,9.8358,9.7577,9.6839,9.6685,9.6685,9.6685,9.6685,9.6685,9.6685,9.6685,9.6685,9.6685,9.6685,9.6685,9.6685,9.6685,9.6685,9.6685,9.6685,9.6685,9.6685,9.6685,9.6685,9.6685,9.6685,9.6685,9.6685,9.6685,9.6685,9.6685,9.6685,9.6685,9.6685,9.6685,9.6685,6.5191,6.7959,7.0607,7.2209,7.4443,7.6617,7.7839,7.9015,8.0469,8.2893,8.4624,8.6017,8.6863,8.6709,8.6709,8.7286,8.6671,8.6709,8.8449,8.8718,8.9334,9.1018,9.121,9.121,9.121,9.271,9.371,9.371,9.5326,9.6288,9.6288,9.6288,9.7057,9.875,9.8788,9.9596,10.1279,10.1279,10.1279,10.1279,10.1279,10.1279,10.1279,10.1279,10.1279,10.1279,10.1279,10.1279,10.1289,10.0712,10.0298,10.0106,10.0414,10.0298,10.0183,10.1019,10.1279,10.1279,10.1279,10.1279,10.1279,10.1279,10.1279,10.1279,10.1279,10.1279,10.1279,10.1279,10.1279,10.1279,10.1279,10.1279,10.1279,10.1279,10.0304,9.9291,9.9065,9.7964,9.6971,9.6743,9.6685,9.6685,9.6685,9.6685,9.6685,9.6685,9.6685,9.6685,9.6685,9.6685,9.6685,9.6685,9.6685,9.6685,9.6685,9.6685,9.6685,9.6685,9.6685,9.6685,9.6685,9.6685,9.6685,9.6685,9.6685,9.6685,9.6685,9.6685,9.6685,9.6685,9.6685,9.6685,6.61,6.8925,7.1597,7.3054,7.5111,7.7361,7.9523,8.0669,8.1977,8.4393,8.5824,8.6671,8.6863,8.6748,8.6671,8.6863,8.644,8.6709,8.8449,8.8718,8.9334,9.1018,9.121,9.121,9.121,9.271,9.371,9.371,9.5326,9.6288,9.6288,9.6596,9.7403,9.875,9.9144,9.9942,10.1279,10.1279,10.1279,10.1279,10.1279,10.1279,10.1279,10.1279,10.1279,10.1279,10.1279,10.1096,10.0789,10.0298,9.9683,9.9144,9.9837,9.9875,9.9721,10.0904,10.1279,10.1279,10.1279,10.1279,10.1279,10.1279,10.1279,10.1279,10.1279,10.1279,10.1279,10.1279,10.1279,10.1279,10.1279,10.1279,10.1279,10.1279,10.0622,9.9758,9.915,9.8268,9.7441,9.6801,9.6685,9.6685,9.6685,9.6685,9.6685,9.6685,9.6685,9.6685,9.6685,9.6685,9.6685,9.6685,9.6685,9.6685,9.6685,9.6685,9.6685,9.6685,9.6685,9.6685,9.6685,9.6685,9.6685,9.6685,9.6685,9.6685,9.6685,9.6685,9.6685,9.6685,9.6685,9.6685,6.6979,6.9881,7.2741,7.4308,7.5592,7.7515,8.1516,8.3093,8.3947,8.4824,8.6209,8.7055,8.6247,8.6748,8.7017,8.6247,8.6094,8.6709,8.8449,8.8718,8.9334,9.1018,9.121,9.121,9.121,9.271,9.371,9.371,9.5326,9.6288,9.6288,9.7057,9.7904,9.875,9.9644,10.0481,10.1279,10.1279,10.1279,10.1279,10.1279,10.1279,10.1279,10.1279,10.1279,10.1279,10.1279,10.0789,10.0106,9.999,9.8981,9.7673,9.9336,9.949,9.8981,10.0712,10.1279,10.1279,10.1279,10.1279,10.1279,10.1279,10.1279,10.1279,10.1279,10.1279,10.1279,10.1279,10.1279,10.1279,10.1279,10.1279,10.1279,10.1279,10.1211,10.0804,9.9332,9.8964,9.8452,9.699,9.6685,9.6685,9.6685,9.6685,9.6685,9.6685,9.6685,9.6685,9.6685,9.6685,9.6685,9.6685,9.6685,9.6685,9.6685,9.6685,9.6685,9.6685,9.6685,9.6685,9.6685,9.6685,9.6685,9.6685,9.6685,9.6685,9.6685,9.6685,9.6685,9.6685,9.6685,9.6685,6.6456,7.0205,7.3707,7.4511,7.7361,8.0592,8.2793,8.3978,8.4863,8.567,8.6132,8.6324,8.6132,8.6247,8.6324,8.6132,8.6094,8.6709,8.8449,8.8718,8.9334,9.1018,9.121,9.121,9.121,9.271,9.371,9.371,9.5326,9.6288,9.6288,9.7057,9.7904,9.875,9.9644,10.0481,10.1279,10.1279,10.1279,10.1279,10.1279,10.1279,10.1279,10.1279,10.1279,10.1279,10.1279,10.0789,9.999,9.9375,9.8442,9.7596,9.8673,9.8981,9.8981,10.0712,10.1279,10.1279,10.1279,10.1279,10.1279,10.1279,10.1279,10.1279,10.1279,10.1279,10.1279,10.1279,10.1279,10.1279,10.1279,10.1279,10.1279,10.1279,10.0885,10.0185,9.9221,9.8514,9.778,9.6877,9.6685,9.6685,9.6685,9.6685,9.6685,9.6685,9.6685,9.6685,9.6685,9.6685,9.6685,9.6685,9.6685,9.6685,9.6685,9.6685,9.6685,9.6685,9.6685,9.6685,9.6685,9.6685,9.6685,9.6685,9.6685,9.6685,9.6685,9.6685,9.6685,9.6685,9.6685,9.6685,6.6642,7.0112,7.3537,7.5471,7.8554,8.1554,8.3216,8.4555,8.5585,8.6017,8.6094,8.6094,8.6094,8.6094,8.6094,8.6094,8.644,8.7171,8.8526,8.9017,8.9748,9.1056,9.121,9.121,9.121,9.271,9.371,9.371,9.5326,9.6288,9.6288,9.7442,9.8327,9.8788,9.9981,10.0904,10.1279,10.1279,10.1279,10.1279,10.1279,10.1279,10.1279,10.1279,10.1279,10.1289,10.0904,10.0289,9.9413,9.8519,9.7673,9.7057,9.8288,9.8788,9.8981,10.0712,10.1279,10.1279,10.1279,10.1279,10.1279,10.1279,10.1279,10.1279,10.1279,10.1279,10.1279,10.1279,10.1279,10.1279,10.1279,10.1279,10.1279,10.1279,10.099,10.0505,9.9732,9.8949,9.8156,9.7388,9.6934,9.6685,9.6685,9.6685,9.6685,9.6685,9.6685,9.6685,9.6685,9.6685,9.6685,9.6685,9.6685,9.6685,9.6685,9.6685,9.6685,9.6685,9.6685,9.6685,9.6685,9.6685,9.6685,9.6685,9.6685,9.6685,9.6685,9.7089,9.7089,9.6722,9.7089,9.7052,6.6907,6.9996,7.3444,7.6861,7.9515,8.1708,8.3255,8.4901,8.6094,8.6094,8.6094,8.6094,8.6094,8.6094,8.6094,8.6094,8.6824,8.7709,8.8564,8.9402,9.0201,9.1095,9.121,9.121,9.121,9.271,9.371,9.371,9.5326,9.6365,9.6519,9.7942,9.8865,9.9029,10.0519,10.1279,10.1279,10.1279,10.1279,10.1279,10.1279,10.1202,10.1096,10.1096,10.1096,10.101,10.0212,9.9375,9.8519,9.7788,9.7019,9.648,9.8134,9.8788,9.8981,10.0712,10.1279,10.1279,10.1279,10.1279,10.1279,10.1279,10.1279,10.1279,10.1279,10.1279,10.1279,10.1279,10.1279,10.1279,10.1279,10.1279,10.1279,10.1279,10.1279,10.1101,10.0404,9.9574,9.8772,9.7943,9.721,9.6685,9.6685,9.6685,9.6685,9.6685,9.6685,9.6685,9.6685,9.6685,9.6685,9.6685,9.6685,9.6685,9.6685,9.6685,9.6685,9.6685,9.6685,9.6685,9.6685,9.6685,9.6759,9.6906,9.6906,9.6979,9.7126,9.7787,9.775,9.7126,9.7787,9.775,6.6324,7.059,7.52,7.8631,8.0823,8.2401,8.337,8.4901,8.6094,8.6094,8.6094,8.6094,8.6094,8.6094,8.6094,8.6094,8.6824,8.7709,8.8564,8.9402,9.0201,9.1095,9.121,9.121,9.121,9.271,9.371,9.371,9.5326,9.6596,9.7288,9.825,9.9144,9.9913,10.0789,10.1279,10.1279,10.1279,10.1279,10.1279,10.1279,10.0904,10.0298,10.0298,10.0298,10.0221,9.9336,9.8481,9.7673,9.7557,9.7019,9.648,9.8134,9.8788,9.8981,10.0712,10.1279,10.1279,10.1279,10.1279,10.1279,10.1279,10.1279,10.1279,10.1279,10.1279,10.1279,10.1279,10.1279,10.1279,10.1279,10.1279,10.1279,10.1279,10.1279,10.1101,10.0404,9.9574,9.8772,9.7943,9.721,9.6685,9.6685,9.6685,9.6685,9.6685,9.6685,9.6685,9.6685,9.6685,9.6685,9.6685,9.6685,9.6685,9.6685,9.6685,9.6685,9.6685,9.6685,9.6685,9.6685,9.6685,9.7016,9.7733,9.775,9.808,9.8778,9.8888,9.8888,9.8778,9.8888,9.8888,6.8008,7.1544,7.4623,7.7053,7.9285,8.1246,8.2554,8.4209,8.5555,8.6017,8.6094,8.6094,8.6094,8.6094,8.6247,8.6748,8.7555,8.8402,8.9248,9.0094,9.0787,9.1171,9.121,9.121,9.121,9.2326,9.321,9.3681,9.4403,9.5634,9.7403,9.7865,9.8673,10.0106,10.0904,10.1279,10.1279,10.1279,10.1279,10.1279,10.0789,10.0404,10.0106,9.9106,9.8904,9.9336,9.8442,9.7865,9.748,9.7019,9.6634,9.648,9.8134,9.8788,9.8981,10.0712,10.1279,10.1279,10.1279,10.1279,10.1279,10.1279,10.1279,10.1279,10.1279,10.1279,10.1279,10.1279,10.1279,10.1279,10.1279,10.1279,10.1279,10.1279,10.1279,10.122,10.0906,9.9847,9.8636,9.7404,9.6915,9.6685,9.6685,9.6685,9.6685,9.6685,9.6685,9.6685,9.6685,9.6685,9.6685,9.6685,9.6685,9.6685,9.6685,9.6685,9.6685,9.6685,9.6685,9.6685,9.6685,9.6685,9.7273,9.8557,9.8117,9.83,9.9108,9.9548,9.9548,9.9108,9.9548,9.9548,6.8936,7.1514,7.3353,7.5476,7.7592,7.9669,8.1554,8.3324,8.4786,8.5632,8.5978,8.6094,8.6094,8.6094,8.6401,8.7248,8.8141,8.8979,8.9778,9.0663,9.121,9.121,9.121,9.121,9.121,9.1979,9.2826,9.3633,9.4095,9.5288,9.7403,9.7904,9.875,10.0106,10.0904,10.1279,10.1279,10.1279,10.1279,10.1279,10.0481,9.999,9.9721,9.8173,9.775,9.8134,9.748,9.7211,9.7134,9.6557,9.6442,9.6749,9.8211,9.8942,9.9288,10.0789,10.1279,10.1279,10.1279,10.1279,10.1279,10.1279,10.1279,10.1279,10.1279,10.1279,10.1279,10.1279,10.1279,10.1279,10.1279,10.1279,10.1279,10.1279,10.1279,10.121,10.0814,9.9822,9.8529,9.7008,9.6685,9.6685,9.6685,9.6685,9.6685,9.6685,9.6685,9.6685,9.6685,9.6685,9.6685,9.6685,9.6685,9.6685,9.6685,9.6685,9.6685,9.6685,9.6685,9.6795,9.7016,9.7016,9.775,9.9365,9.8814,9.8924,9.9695,10.0283,10.0283,9.9732,10.0319,10.0283,6.7752,6.9744,7.1822,7.5168,7.6707,7.8092,8.0592,8.2439,8.3909,8.4786,8.5555,8.6094,8.6094,8.6094,8.6401,8.7248,8.8141,8.8979,8.9778,9.0663,9.121,9.121,9.121,9.121,9.121,9.1979,9.2826,9.3633,9.5211,9.6557,9.7442,9.9067,9.999,10.0106,10.0904,10.1279,10.1279,10.1279,10.1279,10.1279,10.0481,9.9683,9.8827,9.7904,9.7096,9.6442,9.6365,9.6365,9.6365,9.6326,9.6749,9.7519,9.8442,9.9298,10.0106,10.1019,10.1279,10.1279,10.1279,10.1279,10.1279,10.1279,10.1279,10.1279,10.1279,10.1279,10.1279,10.1279,10.1279,10.1279,10.1279,10.1279,10.1279,10.1279,10.1279,10.0889,9.9442,9.9065,9.8529,9.7008,9.6685,9.6685,9.6685,9.6685,9.6685,9.6685,9.6685,9.6685,9.6685,9.6685,9.6685,9.6685,9.6685,9.6685,9.6685,9.6685,9.6685,9.6685,9.6685,9.7052,9.7787,9.7843,9.8594,10.0209,10.0209,10.0576,10.1404,10.1404,10.1404,10.1404,10.1404,10.1404,6.6932,6.9206,7.1475,7.3815,7.5861,7.7823,7.9823,8.2016,8.387,8.4709,8.5547,8.6094,8.6094,8.6555,8.7209,8.8094,8.894,8.9787,9.0624,9.1018,9.121,9.121,9.121,9.121,9.121,9.1979,9.2826,9.3633,9.4287,9.548,9.7403,9.8096,9.8942,10.0106,10.0904,10.1279,10.1279,10.1279,10.1279,10.1279,9.9904,9.9096,9.875,9.7365,9.6557,9.6288,9.6288,9.6288,9.6288,9.6288,9.6788,9.7596,9.8442,9.9336,10.0183,10.1019,10.1279,10.1279,10.1279,10.1279,10.1279,10.1279,10.1279,10.1279,10.1279,10.1279,10.1279,10.1279,10.1279,10.1279,10.1279,10.1279,10.1279,10.1279,10.1279,10.0906,9.9346,9.9007,9.8529,9.7008,9.6685,9.6685,9.6685,9.6685,9.6685,9.6685,9.6685,9.6685,9.6685,9.6685,9.6685,9.6685,9.6685,9.6685,9.6685,9.6685,9.6685,9.6685,9.6685,9.7052,9.7879,9.7916,9.8668,10.0283,10.0283,10.0686,10.1514,10.1514,10.1514,10.1514,10.1514,10.1514,6.5736,6.8129,7.0475,7.2206,7.4361,7.6553,7.8515,8.0708,8.2708,8.417,8.5132,8.5778,8.6055,8.6824,8.7671,8.8564,8.9363,9.0201,9.1095,9.121,9.121,9.121,9.121,9.1325,9.1595,9.2172,9.2941,9.4066,9.4403,0.0,9.7019,9.7634,9.8596,10.0106,10.0596,10.1019,10.1279,10.1279,10.1279,10.1279,9.9596,9.8788,9.875,9.7057,9.6288,9.6288,9.6288,9.6288,9.6288,9.6288,9.6942,9.798,9.8557,9.9481,10.0596,10.1096,10.1279,10.1279,10.1279,10.1279,10.1279,10.1279,10.1279,10.1279,10.1279,10.1279,10.1279,10.1279,10.1279,10.1279,10.1279,10.1279,10.1279,10.1279,10.1279,10.0997,9.9679,9.9193,9.8529,9.7008,9.6685,9.6685,9.6685,9.6685,9.6685,9.6685,9.6685,9.6685,9.6685,9.6685,9.6685,9.6685,9.6685,9.6685,9.6685,9.6685,9.6685,9.6685,9.6685,9.7163,9.8264,9.83,9.9071,10.0706,10.0686,10.1,10.1514,10.1514,10.1514,10.1514,10.1514,10.1514,0.0,0.0,0.0,7.0475,7.2206,7.4161,7.6676,7.8592,8.0516,8.3024,8.4247,8.5132,8.594,8.6786,8.7632,8.8526,8.9363,9.0201,9.1047,9.1171,9.121,9.121,9.121,9.1556,9.2402,9.2556,9.3249,9.4874,9.5826,9.6288,9.6288,9.7865,9.9173,10.0106,10.0106,10.0481,10.1279,10.1289,10.1289,10.1202,9.9558,9.875,9.8711,9.7057,9.6288,9.6288,9.6288,9.6288,9.6288,9.6326,9.7326,9.8788,9.8827,9.9865,10.1279,10.1279,10.1279,10.1279,10.1279,10.1279,10.1279,10.1279,10.1279,10.1279,10.1279,10.1279,10.1279,10.1279,10.1279,10.1279,10.1279,10.1279,10.1279,10.1279,10.1279,10.1091,10.0304,9.956,9.8544,9.7045,9.6705,9.6685,9.6685,9.6685,9.6685,9.6685,9.6685,9.6685,9.6685,9.6685,9.6685,9.6685,9.6685,9.6685,9.6685,9.6685,9.6685,9.6685,9.6685,9.7419,9.9015,9.9108,9.9879,10.1514,10.1514,10.1514,10.1514,10.1514,10.1514,10.1514,10.1514,10.1514,6.4487,0.0,0.0,0.0,0.0,0.0,7.5938,7.813,8.0354,8.2247,8.3362,8.4401,8.5824,8.6286,8.6748,8.7632,8.8979,8.997,9.0239,9.0778,9.121,9.121,9.1748,9.2249,9.2479,9.3595,9.4489,0.0,9.5826,9.6288,9.6288,9.7288,9.8557,10.0106,10.0106,10.0481,10.1279,10.0712,10.0404,10.0404,9.8673,9.7865,9.7827,9.6788,9.6288,9.6288,9.6288,9.6288,9.6365,9.6942,9.7827,9.8865,9.949,10.0404,10.1279,10.1279,10.1279,10.1279,10.1279,10.1279,10.1279,10.1279,10.1279,10.1279,10.1279,10.1279,10.1279,10.1279,10.1279,10.1279,10.1279,10.1279,10.1279,10.1279,10.1279,10.091,9.9627,9.9165,9.8712,9.7698,9.7064,9.6685,9.6685,9.6685,9.6685,9.6685,9.6685,9.6685,9.6685,9.6685,9.6685,9.6685,9.6685,9.6685,9.6685,9.6685,9.6685,9.6685,9.6685,9.7419,9.9015,9.9108,9.9879,10.1514,10.1514,10.1514,10.1514,10.1514,10.1514,10.1514,10.1514,10.1514,6.4589,6.6468,6.8622,6.9629,0.0,0.0,7.4668,7.6669,7.8784,8.0823,8.1939,8.317,8.5209,8.5585,8.5978,8.7209,8.8209,8.8979,8.9363,9.0133,9.0663,9.0663,9.1441,9.2095,9.2441,9.3364,9.4258,9.4951,9.548,9.5903,9.6288,9.6749,9.7788,9.949,9.9221,9.9596,10.0789,9.9981,9.9567,9.9529,9.8173,9.7519,9.748,9.6673,9.6288,9.6288,9.6288,9.6288,9.6403,9.7557,9.8327,9.8904,9.976,10.0596,10.1279,10.1279,10.1279,10.1279,10.1279,10.1279,10.1279,10.1279,10.1279,10.1279,10.1279,10.1279,10.1279,10.1279,10.1279,10.1279,10.1279,10.1279,10.1279,10.1279,10.1279,10.1008,9.9758,9.9235,9.8682,9.758,9.7008,9.6685,9.6685,9.6685,9.6685,9.6685,9.6685,9.6685,9.6685,9.6685,9.6685,9.6685,9.6685,9.6685,9.6685,9.6685,9.6685,9.6685,9.6685,9.7273,9.8557,9.8924,9.9695,10.1,10.1274,10.1514,10.1514,10.1514,10.1514,10.1514,10.1514,10.1514,6.4705,6.6545,6.8507,6.8314,7.0167,0.0,7.3168,7.4591,7.6438,7.9015,8.0131,8.1477,8.4124,8.4555,8.5055,8.6824,8.7132,8.7478,8.8564,8.9325,8.9816,8.9893,9.0586,9.1441,9.2402,9.2479,9.3133,9.4758,9.4951,9.5374,9.6249,9.6288,9.7019,9.8596,9.7904,9.8288,9.9952,9.9106,9.8673,9.8634,9.7788,9.7365,9.7326,9.6634,9.6288,9.6288,9.6288,9.6365,9.6557,9.8134,9.8788,9.8904,9.9875,10.0712,10.1279,10.1279,10.1279,10.1279,10.1279,10.1279,10.1279,10.1279,10.1279,10.1279,10.1279,10.1279,10.1279,10.1279,10.1279,10.1279,10.1279,10.1279,10.1279,10.1279,10.1201,10.1008,10.0183,9.9414,9.8421,9.699,9.6685,9.6685,9.6685,9.6685,9.6685,9.6685,9.6685,9.6685,9.6685,9.6685,9.6685,9.6685,9.6685,9.6685,9.6685,9.6685,9.6685,9.6685,9.6685,9.7052,9.7879,9.8668,9.9475,10.0283,10.111,10.1514,10.1514,10.1514,10.1514,10.1514,10.1514,10.1514,6.5359,6.6974,6.9129,6.7705,6.9283,0.0,7.2245,7.3245,7.47,7.7246,7.79,7.9023,8.2208,8.2285,8.2631,8.5016,8.5401,8.617,8.841,8.8833,8.9171,8.9816,9.0047,9.0787,9.2364,9.2479,9.2903,9.3864,9.4604,9.5374,9.6249,9.6288,9.6749,9.7711,9.7596,9.8019,9.9019,9.8173,9.775,9.775,9.6903,9.6519,9.6519,9.6365,9.6288,9.6288,9.6288,9.6673,9.7365,9.8365,9.8788,9.8942,10.0519,10.1212,10.1279,10.1279,10.1279,10.1279,10.1279,10.1279,10.1279,10.1279,10.1279,10.1279,10.1279,10.1279,10.1279,10.1279,10.1279,10.1279,10.1279,10.1279,10.1279,10.1279,10.0798,10.0197,9.9401,9.8606,9.7763,9.6877,9.6685,9.6685,9.6685,9.6685,9.6685,9.6685,9.6685,9.6685,9.6685,9.6685,9.6685,9.6685,9.6685,9.6685,9.6685,9.6685,9.6685,9.6685,9.6685,9.7052,9.7879,9.8668,9.9475,10.0283,10.111,10.1514,10.1514,10.1514,10.1514,10.1514,10.1514,10.1514,6.6968,6.8045,6.9475,6.859,6.9667,0.0,0.0,7.2245,7.336,7.5053,7.5707,7.6899,7.9862,8.0092,8.0785,8.3785,8.3901,8.4362,8.6517,8.791,8.8872,8.9248,9.0056,9.0902,9.1787,9.1864,9.221,9.3018,9.3873,9.4527,9.498,9.5403,9.6057,9.6865,9.6903,9.7288,9.8134,9.7326,9.6903,9.6903,9.648,9.6288,9.6288,9.6288,9.6288,9.6288,9.6288,9.6749,9.7557,9.8442,9.9058,9.9558,10.0789,10.1279,10.1279,10.1279,10.1279,10.1279,10.1279,10.1279,10.1279,10.1279,10.1279,10.1279,10.1279,10.1279,10.1279,10.1279,10.1279,10.1279,10.1279,10.1279,10.1279,10.1279,10.0711,9.9974,9.9179,9.8358,9.7577,9.6839,9.6685,9.6685,9.6685,9.6685,9.6685,9.6685,9.6685,9.6685,9.6685,9.6685,9.6685,9.6685,9.6685,9.6685,9.6685,9.6685,9.6685,9.6685,9.6685,9.6869,9.7273,9.8447,9.9659,10.0927,10.1294,10.1514,10.1514,10.1514,10.1514,10.1514,10.1514,10.1514,6.8584,6.9161,6.9821,6.9321,7.0052,7.0898,0.0,0.0,0.0,7.3091,7.3776,7.4938,7.733,7.7753,7.8677,8.1447,8.1708,8.2016,8.3247,8.5901,8.7833,8.8179,8.9402,9.0402,9.0902,9.1248,9.1825,9.2672,9.3326,9.3864,9.4172,9.472,9.5412,9.6288,9.6288,9.6596,9.725,9.6634,9.6288,9.6288,9.6288,9.6288,9.6288,9.6288,9.6288,9.6288,9.6288,9.6865,9.7788,9.8519,9.9404,10.0414,10.101,10.1279,10.1279,10.1279,10.1279,10.1279,10.1279,10.1279,10.1279,10.1279,10.1279,10.1279,10.1279,10.1279,10.1279,10.1279,10.1279,10.1279,10.1279,10.1279,10.1298,10.1111,10.0505,9.9732,9.8949,9.8156,9.7404,9.6801,9.6685,9.6685,9.6685,9.6685,9.6685,9.6685,9.6685,9.6685,9.6685,9.6685,9.6685,9.6685,9.6685,9.6685,9.6685,9.6685,9.6685,9.6685,9.6685,9.6685,9.6685,9.8264,9.9879,10.1514,10.1514,10.1514,10.1514,10.1514,10.1514,10.1514,10.1514,10.1514,6.9237,6.9552,7.0206,6.7981,6.9167,7.0898,7.0898,0.0,7.1283,7.2175,0.0,7.3014,7.4784,0.0,0.0,7.5668,7.7515,7.8754,7.8253,8.1639,8.4717,8.6209,8.6555,8.7585,8.9816,9.1441,9.2672,9.348,9.3633,9.4364,9.5942,9.5365,9.5412,9.6288,9.6288,9.6326,9.6442,9.6365,9.6288,9.6288,9.6288,9.6288,9.6288,9.6288,9.6288,9.6288,9.6288,9.7173,9.8673,9.875,9.9712,10.1212,10.1289,10.1279,10.1279,10.1279,10.1279,10.1279,10.1279,10.1279,10.1279,10.1279,10.1279,10.1279,10.1279,10.1279,10.1279,10.1279,10.1279,10.1279,10.1279,10.1279,10.1083,10.0509,9.9719,9.8934,9.8124,9.7353,9.6782,9.6705,9.6685,9.6685,9.6685,9.6685,9.6685,9.6685,9.6685,9.6685,9.6685,9.6685,9.6685,9.6685,9.6685,9.6685,9.6685,9.6685,9.6685,9.6685,9.6685,9.6685,9.6685,9.8264,9.9879,10.1514,10.1514,10.1514,10.1514,10.1514,10.1514,10.1514,10.1514,10.1514,7.2584,7.2238,7.2014,7.0443,7.0475,7.0898,7.0898,7.0898,7.1014,7.136,0.0,0.0,0.0,0.0,0.0,0.0,7.5592,0.0,7.6515,7.8523,8.11,8.4286,0.0,0.0,8.9017,0.0,0.0,0.0,9.2979,9.3326,9.4057,9.4172,9.4412,9.4788,9.5788,9.6288,9.6288,9.6288,9.6288,9.6288,9.6288,9.6288,9.6288,9.6288,9.6288,9.6326,9.6788,9.7673,9.8827,9.9336,10.0212,10.1279,10.1279,10.1279,10.1279,10.1279,10.1279,10.1279,10.1279,10.1279,10.1279,10.1279,10.1279,10.1279,10.1279,10.1279,10.1279,10.1279,10.1279,10.1279,10.1279,10.1279,10.1111,10.0416,9.9587,9.8787,9.7976,9.7228,9.6685,9.6685,9.6685,9.6685,9.6685,9.6685,9.6685,9.6685,9.6685,9.6685,9.6685,9.6685,9.6685,9.6685,9.6685,9.6685,9.6685,9.6685,9.6685,9.6685,9.6685,9.7126,9.8043,9.8721,9.9879,10.1514,10.1514,10.1514,10.1514,10.2008,10.2191,10.2191,10.2191,10.2412,7.5284,7.4469,7.3623,7.2783,7.2091,7.1629,7.1629,7.1437,7.1245,7.1245,0.0,0.0,0.0,0.0,7.1939,7.2839,0.0,7.4091,7.4245,7.5592,7.7977,8.1754,0.0,0.0,0.0,0.0,0.0,0.0,0.0,9.2826,9.2826,9.3364,9.3787,9.4066,9.5518,9.6288,9.6288,9.6288,9.6288,9.6288,9.6288,9.6288,9.6288,9.6288,9.6442,9.6673,9.725,9.8134,9.9221,9.9837,10.0596,10.1279,10.1279,10.1279,10.1279,10.1279,10.1279,10.1279,10.1279,10.1279,10.1279,10.1279,10.1279,10.1279,10.1279,10.1279,10.1279,10.1279,10.1279,10.1279,10.1279,10.1279,10.1111,10.0416,9.9587,9.8787,9.7976,9.7228,9.6685,9.6685,9.6685,9.6685,9.6685,9.6685,9.6685,9.6685,9.6685,9.6685,9.6685,9.6685,9.6685,9.6685,9.6685,9.6685,9.6685,9.6685,9.6685,9.6685,9.6685,9.7309,9.8704,9.8998,9.9769,10.109,10.1604,10.1788,10.1788,10.2595,10.3089,10.3403,10.3109,10.3293,7.6207,7.5322,7.4469,7.3661,7.343,7.343,7.343,7.2745,7.2175,7.2175,7.1068,7.029,7.0836,7.0517,6.984,6.8761,7.0667,0.0,0.0,7.2706,7.5745,7.8369,0.0,0.0,0.0,0.0,0.0,0.0,0.0,0.0,9.3672,9.3672,9.4104,9.4912,9.5826,9.6288,9.6288,9.6288,9.6288,9.6288,9.6288,9.6288,9.6288,9.6288,9.6711,9.7442,9.748,9.8481,10.0106,10.0106,10.0596,10.1279,10.1279,10.1279,10.1279,10.1279,10.1279,10.1279,10.1279,10.1279,10.1279,10.1279,10.1279,10.1279,10.1279,10.1279,10.1279,10.1279,10.1279,10.1279,10.1279,10.1279,10.1111,10.0416,9.9587,9.8787,9.7976,9.7228,9.6685,9.6685,9.6685,9.6685,9.6685,9.6685,9.6685,9.6685,9.6685,9.6685,9.6685,9.6685,9.6685,9.6685,9.6685,9.6685,9.6685,9.6685,9.6685,9.6685,9.6685,9.7052,9.7916,9.8704,9.9512,10.0319,10.1898,10.2705,10.2705,10.3513,10.4284,10.4997,10.421,10.388,0.0,0.0,7.7015,7.6207,0.0,0.0,0.0,7.4938,7.4553,7.3976,7.2606,0.0,0.0,7.1147,7.0482,7.0109,7.0783,7.1129,0.0,0.0,0.0,0.0,0.0,0.0,0.0,0.0,0.0,0.0,0.0,0.0,0.0,9.3403,9.3835,9.4143,9.5557,9.6288,9.6288,9.6288,9.6288,9.6288,9.6288,9.6288,9.6326,9.6865,9.725,9.7557,9.8711,9.9567,10.0106,10.0712,10.1096,10.1279,10.1279,10.1279,10.1279,10.1279,10.1279,10.1279,10.1279,10.1279,10.1279,10.1279,10.1279,10.1279,10.1279,10.1279,10.1279,10.1279,10.1279,10.1279,10.1279,10.1279,10.098,9.9706,9.9207,9.8651,9.7353,9.6896,9.6685,9.6685,9.6685,9.6685,9.6685,9.6685,9.6685,9.6685,9.6685,9.6685,9.6685,9.6685,9.6685,9.6685,9.6685,9.6685,9.6685,9.6685,9.6685,9.6685,9.6685,9.7052,9.7879,9.9181,10.0283,10.111,10.2705,10.3513,10.3513,10.432,10.4777,10.5107,10.5385,10.5626,8.2131,8.0716,0.0,7.9138,7.8631,0.0,7.7861,0.0,7.6746,0.0,0.0,0.0,0.0,7.2445,7.1588,7.1801,7.1552,7.1245,0.0,7.136,0.0,0.0,0.0,0.0,0.0,0.0,0.0,0.0,0.0,0.0,0.0,0.0,9.3403,9.3672,9.5095,9.598,9.6288,9.6288,9.6288,9.6288,9.6288,9.6288,9.6326,9.7134,9.7673,9.8057,9.949,10.0298,10.0596,10.1096,10.1279,10.1279,10.1279,10.1279,10.1279,10.1279,10.1279,10.1279,10.1279,10.1279,10.1279,10.1279,10.1279,10.1279,10.1279,10.1279,10.1279,10.1279,10.1279,10.1279,10.1279,10.1101,10.0694,9.9666,9.8993,9.8279,9.7299,9.6896,9.6685,9.6685,9.6685,9.6685,9.6685,9.6685,9.6685,9.6685,9.6685,9.6685,9.6685,9.6685,9.6685,9.6685,9.6685,9.6685,9.6685,9.6685,9.6685,9.6685,9.6685,9.6942,9.7456,9.9292,10.0393,10.0613,10.3109,10.421,10.388,10.5018,10.5605,10.5605,10.6119,10.6376]}]]